GFSWCAN_700_spd_000.txt.gz
Wind_Speed
36 34 31 30 29 26 24 21 18 15 12 11 12 14 17 20 22 22 21 19 18 19 15 17 17 15 14 14 14 15 16 16 16 15 11 8 7 11 9 10 9 13 12 13 15 8 9 12 12 14 12 14 20 25
40 34 32 31 30 27 24 21 18 16 14 12 12 13 15 20 21 22 23 22 21 20 15 20 20 20 19 18 16 15 16 14 14 15 13 11 9 10 15 7 17 11 13 8 10 6 11 13 16 17 20 25 29 34
41 40 36 32 30 28 26 23 19 18 16 14 13 14 14 17 21 22 22 22 22 21 22 20 24 24 23 22 21 20 19 16 15 14 12 12 9 11 13 17 17 18 17 21 19 20 19 18 23 26 30 34 37 39
47 42 38 34 31 29 26 24 21 18 17 15 14 14 15 15 17 20 25 23 22 20 22 21 24 26 26 25 24 23 21 20 20 19 19 19 17 15 18 21 21 19 20 24 28 25 21 23 28 32 36 35 33 32
52 46 38 35 33 31 28 25 22 19 17 15 14 12 14 16 16 16 19 25 24 23 14 24 21 26 28 28 28 27 27 28 23 22 22 20 19 19 23 22 25 20 27 28 29 21 23 24 24 26 27 27 27 29
52 46 42 38 36 33 29 26 24 21 19 17 15 12 12 14 16 17 19 21 23 27 22 18 23 27 26 27 29 26 25 24 25 23 23 18 15 16 12 16 6 12 13 15 16 18 18 20 22 24 25 26 27 29
47 37 40 39 38 35 31 28 25 23 22 19 15 13 12 13 14 16 12 13 17 19 23 16 16 25 30 27 23 26 26 24 23 21 22 19 18 20 27 30 14 12 14 15 15 16 18 20 22 22 22 24 29 31
45 41 44 43 41 38 34 30 28 25 23 20 17 14 12 12 12 14 15 12 13 18 16 8 8 15 25 28 28 30 28 25 26 26 23 19 20 24 17 6 11 12 14 14 15 17 19 19 20 21 24 30 32 33
29 36 43 39 39 41 37 33 30 27 24 22 20 16 14 13 13 14 13 12 14 19 10 11 14 12 15 24 25 21 21 18 20 22 21 15 18 16 8 7 11 13 15 16 14 16 17 18 20 23 29 33 31 30
24 29 35 33 44 40 36 34 32 30 27 26 24 20 17 15 12 12 12 11 10 18 21 17 15 13 17 19 20 17 14 15 7 14 13 19 31 17 15 19 20 16 13 13 15 14 15 18 23 28 32 32 30 28
20 23 27 33 33 37 42 36 36 36 34 33 30 25 16 13 16 15 10 12 12 12 18 24 21 16 18 21 17 14 10 10 8 10 13 9 13 10 15 9 10 12 11 11 12 15 20 24 29 31 31 29 28 28
18 18 22 27 31 31 30 34 37 41 40 36 29 24 19 16 12 12 12 12 10 13 11 18 26 24 19 19 14 13 7 8 5 10 11 5 9 12 10 9 11 12 13 15 20 25 28 31 33 32 29 28 27 25
14 22 21 23 26 26 28 27 30 33 33 35 31 27 18 15 15 14 19 14 16 12 11 13 21 25 22 21 12 10 10 8 6 9 6 7 14 14 13 13 13 11 15 21 27 31 34 33 31 30 27 26 25 23
6 14 23 25 22 21 30 29 37 45 39 35 23 24 21 12 15 23 25 22 18 16 17 18 21 23 20 20 9 8 10 8 7 8 8 10 14 14 15 12 12 18 26 32 35 37 36 35 32 29 27 25 24 24
4 7 14 21 25 27 34 34 41 34 42 29 15 13 22 23 16 16 26 28 24 21 18 19 22 15 21 10 11 8 11 7 9 5 6 8 11 11 14 21 26 31 34 36 35 32 28 28 28 26 24 24 25 26
9 5 9 18 25 33 38 39 40 41 41 17 17 15 19 25 23 18 22 28 26 24 24 29 16 13 10 7 9 8 7 5 4 3 6 12 16 22 26 28 31 32 32 33 33 31 31 31 29 26 25 25 26 28
11 8 7 13 19 28 38 39 35 38 29 13 19 22 14 22 23 21 22 22 23 31 37 20 13 11 10 9 9 9 2 6 12 17 20 21 23 26 30 30 31 34 34 34 35 34 31 29 28 26 25 27 29 30
12 10 9 12 20 28 26 32 23 16 12 15 20 22 15 15 25 24 26 29 33 32 27 20 14 15 9 9 9 8 16 17 19 18 22 25 29 30 31 33 34 35 36 35 35 33 31 30 27 26 27 28 30 32
12 11 11 13 15 28 7 21 17 10 17 9 16 23 22 17 24 26 25 25 25 25 23 20 10 14 14 13 14 20 23 23 27 30 32 30 30 32 34 35 34 34 34 34 34 34 33 29 27 27 28 29 32 33
14 14 16 15 16 28 7 7 29 15 13 17 16 20 24 28 28 23 16 16 17 19 19 18 16 11 13 20 26 30 30 32 33 34 32 29 31 33 34 35 35 35 36 35 34 35 31 29 28 26 29 31 32 33
16 15 20 17 19 27 7 8 16 10 9 22 26 27 28 31 28 23 21 17 18 20 18 15 14 16 23 28 31 33 32 31 31 33 35 33 32 33 32 33 34 34 33 32 33 31 29 28 27 30 32 31 31 32
18 13 21 19 18 22 10 13 17 21 17 9 19 19 19 19 15 16 19 22 28 28 26 27 27 28 30 29 28 28 29 30 31 31 32 33 32 31 33 33 32 32 32 31 28 27 27 27 29 29 28 29 30 31
20 14 13 10 13 19 11 11 13 16 21 23 21 19 18 19 22 21 25 27 28 26 25 22 21 23 25 25 26 27 29 30 30 32 33 32 31 32 32 31 31 29 27 27 26 25 26 26 25 25 27 28 30 33
17 17 13 6 7 10 15 13 16 10 12 17 19 18 18 25 21 24 25 21 18 16 17 20 20 21 22 23 24 25 27 29 30 31 30 31 32 29 28 27 27 27 25 23 22 22 21 22 23 24 26 29 34 36
12 11 10 10 8 9 12 16 16 13 9 10 12 12 9 11 12 16 21 18 16 16 15 15 16 18 20 21 21 22 22 22 23 25 26 27 27 26 26 26 25 24 20 18 18 19 20 21 23 26 29 32 34 34
7 8 9 8 15 15 10 12 10 11 11 11 11 10 11 11 12 13 17 12 7 8 10 9 8 8 11 14 18 20 23 26 29 29 29 27 26 25 25 22 18 16 15 16 18 18 20 23 25 27 29 30 33 36
13 7 13 13 11 12 17 16 12 11 7 8 13 13 12 9 9 14 12 5 8 5 4 8 13 16 17 20 23 25 26 27 28 29 27 24 23 21 18 14 12 13 15 17 18 20 22 24 25 27 28 30 32 33
13 15 12 13 11 8 11 9 10 8 9 10 10 9 6 7 5 5 5 6 7 14 15 15 18 19 20 21 23 23 23 23 23 22 18 16 16 15 12 10 12 14 16 18 19 21 22 23 25 28 29 28 29 31
22 20 21 17 14 14 15 16 16 16 16 14 13 12 15 15 16 16 17 17 18 19 19 17 19 21 21 21 20 20 20 18 14 13 13 13 12 10 11 12 14 16 17 18 19 20 22 25 26 26 27 28 29 30
15 18 21 18 18 17 14 13 15 14 14 14 16 18 18 18 18 17 17 18 19 21 21 21 22 23 22 19 18 16 14 11 10 11 11 11 10 11 12 14 15 16 17 18 19 21 24 25 26 27 28 29 30 28
19 20 22 22 22 20 19 17 15 13 14 17 17 17 18 20 19 20 22 24 24 24 23 24 25 23 19 16 14 13 12 11 11 12 12 11 11 13 14 15 15 16 17 19 21 22 23 24 25 26 27 27 27 28
21 25 25 25 24 20 20 20 21 21 19 18 19 19 21 22 25 27 26 26 25 25 23 22 20 18 16 14 14 14 13 13 12 12 12 13 13 14 15 15 15 17 19 20 22 23 24 25 26 26 26 25 25 26
14 12 13 16 17 17 17 18 20 23 24 24 25 24 25 26 30 30 27 24 23 21 20 17 15 14 14 14 13 13 12 13 13 13 14 13 13 13 14 15 17 18 20 22 23 24 24 25 25 24 23 24 24 25

GFSWCAN_700_spd_003.txt.gz
Wind_Speed
28 45 39 35 32 30 28 25 24 23 19 18 17 16 18 19 21 20 21 24 20 18 14 18 19 18 17 18 19 18 20 22 22 17 12 8 8 14 11 10 9 13 13 14 14 8 9 13 16 17 13 13 13 13
30 43 43 36 33 31 29 25 25 23 20 18 18 16 18 20 22 23 23 23 20 19 14 19 20 19 18 17 15 13 15 13 18 16 13 11 8 11 15 8 17 12 13 8 9 8 10 8 16 16 18 18 20 24
32 41 40 38 33 30 28 26 25 24 21 19 18 16 18 21 22 24 26 26 23 20 19 17 22 22 21 20 18 17 19 13 18 16 12 11 7 11 11 15 14 16 17 19 18 18 16 15 16 19 21 24 27 32
42 36 40 39 33 31 29 27 25 24 22 20 18 17 17 19 21 22 24 26 27 25 23 20 21 22 22 22 22 22 20 18 17 15 14 13 12 10 14 16 17 19 18 22 25 25 17 18 19 22 25 29 33 33
41 39 49 43 34 32 29 27 26 24 23 20 17 17 16 16 20 21 23 25 26 26 15 27 22 23 23 24 23 22 22 21 20 19 18 18 18 19 23 26 31 26 28 26 24 21 19 25 28 30 30 28 29 29
36 39 42 42 41 33 31 29 27 25 23 20 18 16 15 15 18 20 22 27 27 26 26 14 24 25 25 26 24 24 22 21 21 21 21 23 23 20 15 16 14 17 22 24 30 30 28 27 25 25 26 26 27 28
23 34 45 44 36 34 32 29 28 26 24 21 18 16 14 13 15 20 18 21 28 30 25 17 18 22 28 26 26 26 27 27 27 27 23 23 23 23 29 33 13 10 11 15 15 16 17 19 22 23 24 24 24 26
15 36 41 47 37 35 35 32 29 27 26 23 20 17 15 14 14 15 17 14 20 26 25 11 12 17 27 27 25 24 25 27 24 23 25 23 23 23 23 15 15 22 21 18 18 18 20 21 21 21 22 24 27 30
17 37 42 42 44 34 37 33 32 30 28 24 21 18 17 16 16 14 14 13 15 22 13 14 18 14 17 27 29 24 20 22 21 23 27 22 27 17 10 14 12 11 12 14 16 18 19 18 19 21 24 26 29 32
9 16 34 45 48 36 35 37 34 33 31 28 25 23 22 21 16 15 14 15 18 22 21 17 15 14 12 24 26 23 22 19 10 19 20 25 33 27 15 14 12 12 12 14 16 16 17 19 21 23 25 30 33 33
7 18 19 32 41 40 40 36 36 37 35 34 32 29 20 19 19 18 12 13 14 13 18 25 25 18 15 16 24 18 9 10 8 10 13 8 15 15 21 25 23 23 21 18 16 17 18 19 22 27 33 34 32 31
7 14 24 23 33 35 40 38 40 41 42 39 34 30 27 24 15 12 12 12 12 16 12 21 24 23 20 21 15 14 9 11 6 11 12 7 13 10 10 13 13 12 13 15 16 16 19 24 30 33 33 31 30 29
7 12 20 24 27 34 31 30 37 45 45 42 38 33 21 18 15 16 22 18 19 15 18 21 25 26 23 21 11 10 9 8 6 9 7 10 13 16 16 15 15 14 13 15 16 21 28 34 34 32 29 28 28 28
6 13 18 26 28 34 35 31 43 44 45 44 26 27 21 13 16 26 24 26 25 20 18 22 28 25 20 22 9 6 8 6 8 8 8 15 18 20 19 17 16 13 14 18 26 31 33 32 30 29 28 28 27 26
5 11 18 22 26 31 31 31 42 37 29 24 21 13 21 22 18 18 26 26 23 20 22 28 30 19 24 11 11 10 10 8 10 10 14 15 17 19 19 17 17 19 24 29 31 30 29 30 30 30 29 27 26 26
8 5 11 21 25 27 33 37 35 36 38 10 20 17 17 25 23 18 21 24 27 26 24 30 27 11 11 10 12 11 10 9 10 15 12 14 15 17 20 21 24 27 27 27 28 29 29 30 30 29 29 28 27 27
8 6 5 12 23 30 32 34 32 31 31 18 16 27 22 12 20 21 24 29 27 28 34 22 15 13 11 11 13 15 10 15 14 10 11 12 16 20 23 23 23 25 25 27 28 28 29 30 29 29 29 29 28 26
10 9 8 6 11 18 24 28 27 21 15 24 22 16 21 20 20 24 23 26 31 31 34 23 15 17 9 13 16 19 14 11 12 14 14 15 20 25 28 28 27 27 29 29 30 30 30 30 30 30 28 25 24 25
12 9 9 9 9 16 12 17 18 9 14 21 21 20 22 22 24 24 23 26 28 33 33 19 11 17 15 19 18 13 10 11 13 14 17 22 27 29 27 26 27 29 31 32 32 32 32 31 29 29 26 25 24 25
12 10 11 10 11 7 11 5 19 8 14 15 21 26 23 21 24 25 26 28 31 40 25 14 11 17 17 16 14 15 17 19 18 21 23 26 31 28 26 27 30 32 33 32 32 31 31 30 30 27 26 25 24 26
13 13 12 14 12 13 9 7 10 9 12 18 20 23 28 26 26 27 27 30 33 33 23 17 14 16 16 16 17 18 21 24 27 29 30 27 25 25 27 29 30 30 31 32 32 32 32 30 28 26 26 25 27 29
14 11 11 15 8 8 16 8 12 13 13 18 30 27 27 31 31 28 25 24 23 19 15 12 13 14 18 21 23 25 28 31 31 30 29 26 26 27 29 30 29 30 31 31 29 29 28 27 27 26 26 26 27 28
13 12 7 2 8 8 9 11 11 17 12 14 19 26 28 34 32 30 28 26 27 25 22 20 21 25 27 29 31 30 28 26 27 27 28 28 29 28 28 28 28 29 28 27 27 26 25 24 24 23 24 26 27 28
12 11 9 2 3 7 13 11 11 9 8 13 14 16 16 14 14 17 20 21 24 22 20 19 17 19 21 22 24 25 27 27 27 26 26 26 26 26 27 27 27 28 27 27 25 24 22 20 21 23 24 26 28 29
7 6 4 5 3 2 8 10 13 11 11 13 17 14 14 14 17 19 19 17 14 15 14 14 18 20 22 24 25 24 24 24 24 24 25 27 28 29 28 28 28 27 26 25 22 19 18 19 21 23 25 26 28 29
5 7 6 4 6 9 5 4 7 9 8 8 8 7 7 8 8 6 14 11 10 15 18 20 20 18 18 20 21 22 23 24 25 27 28 29 30 31 30 29 26 24 22 20 18 17 18 20 22 23 24 26 29 32
9 4 7 6 2 1 5 9 7 5 5 5 6 6 5 5 6 9 7 7 12 13 13 13 14 17 19 21 22 24 26 27 28 30 30 30 29 27 24 21 19 18 16 16 16 17 19 20 21 22 23 27 31 33
11 12 11 8 7 5 3 3 5 6 7 7 9 10 7 9 7 6 8 9 14 14 14 14 15 18 20 23 25 27 27 27 28 29 28 26 23 19 17 14 13 13 14 15 17 18 19 20 21 23 26 28 29 31
18 15 13 13 10 10 9 9 7 8 7 7 5 7 11 11 10 10 12 14 16 17 19 21 22 22 24 24 25 25 26 27 26 23 21 18 15 13 12 13 13 14 15 16 17 19 19 20 22 25 27 29 29 30
14 12 16 16 15 15 13 11 7 5 8 10 11 13 15 16 17 17 16 16 16 17 18 18 19 21 22 23 24 24 24 23 20 16 13 12 11 12 13 12 13 14 16 17 17 18 20 22 25 27 29 30 30 30
17 14 17 14 14 13 13 12 12 12 12 13 9 11 13 16 19 22 21 19 18 18 19 20 21 22 22 23 23 21 20 17 14 13 13 13 13 13 13 13 14 15 16 17 18 19 21 24 26 28 28 28 29 28
12 17 18 18 17 15 14 16 16 16 16 18 18 15 14 15 17 18 18 21 21 22 23 24 24 23 22 20 18 16 15 15 14 14 14 14 13 14 14 14 15 15 16 17 18 21 24 26 27 26 26 26 25 25
12 10 10 13 15 16 16 16 16 18 18 19 20 20 21 22 24 25 24 24 24 23 23 21 20 19 18 17 15 14 14 14 14 13 13 13 14 14 14 14 14 15 17 18 21 23 24 24 25 25 25 24 23 23

GFSWCAN_700_spd_006.txt.gz
Wind_Speed
23 28 34 36 38 36 31 29 28 27 25 21 19 18 19 18 19 19 18 21 21 19 9 10 14 17 16 23 22 22 23 23 25 20 19 6 7 14 10 10 12 17 15 11 14 7 9 14 16 17 11 10 12 12
21 23 37 32 39 37 33 30 30 28 25 22 20 18 20 18 20 21 20 21 22 21 12 13 16 17 18 19 18 16 19 18 17 20 14 14 8 10 15 9 16 12 14 8 11 7 10 8 18 17 17 13 13 14
21 22 38 29 41 39 37 28 30 28 25 23 20 19 20 18 21 22 22 21 21 21 20 15 19 19 19 21 16 15 21 11 22 19 14 11 8 13 10 14 12 16 16 14 13 15 12 10 11 12 13 14 16 20
24 22 37 29 42 41 40 28 31 28 26 24 21 20 19 19 20 22 23 23 22 21 20 18 18 21 20 21 19 17 18 16 13 15 16 15 12 9 11 11 10 13 13 16 20 20 15 14 15 17 18 19 21 25
21 21 29 31 44 46 37 31 30 28 27 24 22 21 19 20 18 20 22 22 22 22 12 24 19 20 21 22 22 20 19 18 16 16 16 16 17 14 16 18 20 20 22 24 23 21 19 20 22 23 24 25 25 25
13 18 30 30 45 44 32 31 30 29 27 25 23 21 20 21 20 20 22 25 24 25 25 13 21 25 23 22 23 22 23 22 21 20 20 19 18 16 12 13 12 15 18 21 24 24 25 23 22 25 27 24 24 24
13 6 22 29 47 43 35 35 32 30 28 27 24 21 20 20 20 21 20 21 27 25 24 15 14 18 23 24 23 23 23 23 22 21 22 23 22 21 25 29 26 28 23 9 13 17 20 20 19 18 19 21 22 21
14 4 16 26 40 41 36 39 32 32 30 28 25 22 21 20 21 22 22 15 18 25 21 12 13 17 21 22 25 20 21 23 23 24 25 26 27 27 21 25 25 26 26 28 22 16 15 15 16 18 19 18 19 21
16 5 17 27 40 40 35 37 36 34 32 29 26 24 22 20 19 20 20 19 18 25 14 17 21 14 17 22 22 21 24 21 23 23 26 22 25 17 15 17 19 19 14 15 16 15 16 17 18 17 16 18 19 23
17 5 12 23 39 38 43 37 34 35 34 31 29 28 27 25 20 20 18 20 20 26 27 23 18 18 12 22 26 20 15 16 10 16 18 25 38 36 34 32 27 16 11 10 12 14 17 17 15 16 18 19 25 30
17 6 4 18 35 34 38 36 39 40 36 37 35 31 23 24 20 18 12 15 15 13 21 27 25 17 17 18 19 17 9 10 7 12 13 10 22 25 27 29 26 19 15 14 16 17 14 14 16 16 21 28 32 32
15 8 6 11 26 31 40 39 41 44 43 40 38 34 26 24 13 13 12 12 11 14 11 17 21 24 20 17 13 14 10 10 7 10 10 8 18 10 10 21 30 27 21 19 13 11 14 15 17 23 30 33 32 31
15 11 5 8 19 33 31 37 42 47 48 43 38 34 22 19 14 15 19 17 18 16 16 17 20 24 20 17 10 12 12 9 7 9 7 8 9 12 12 13 15 14 11 10 12 14 17 19 25 30 33 33 31 30
15 13 8 10 16 30 30 36 53 45 50 50 30 30 20 12 17 22 25 23 23 18 15 17 21 20 19 19 8 7 9 7 8 9 12 15 13 15 15 14 11 10 10 12 15 19 22 25 31 31 31 31 29 28
14 12 9 10 17 32 39 40 55 46 37 21 19 14 23 23 17 21 27 26 24 21 22 26 27 19 21 10 9 8 8 8 12 13 16 16 16 18 18 15 13 13 16 19 22 25 29 31 30 28 30 30 29 28
12 9 7 10 15 30 42 40 48 36 33 10 15 15 22 24 17 17 22 25 24 26 28 30 25 12 12 9 11 10 8 8 10 12 15 18 19 19 16 14 15 18 20 24 27 29 28 27 26 27 29 30 30 29
10 9 6 5 14 18 29 35 35 38 19 9 13 25 13 14 18 15 17 24 25 27 36 25 14 13 10 11 14 16 16 13 11 16 19 17 15 14 11 11 15 19 22 25 26 25 25 26 28 30 31 32 32 31
6 9 9 6 6 14 17 25 27 25 15 17 19 12 21 21 9 15 19 22 26 31 33 24 19 18 11 11 18 21 16 18 23 20 17 14 10 8 9 12 16 19 20 22 23 23 25 28 30 30 29 30 30 29
4 5 8 5 2 6 7 14 16 9 11 16 18 21 17 12 17 17 16 15 21 28 33 18 9 15 13 14 15 24 25 22 18 14 11 8 10 12 15 18 21 21 20 20 22 24 27 29 28 28 29 29 28 26
4 4 6 5 4 3 6 3 16 5 9 15 17 17 20 19 18 19 23 24 23 25 30 19 19 16 19 22 23 20 17 14 11 9 8 11 14 17 20 21 21 20 21 23 24 26 28 29 29 29 28 26 25 25
6 5 6 6 6 3 6 6 8 8 6 12 16 20 23 24 24 24 24 24 25 28 28 19 23 25 25 21 17 15 12 10 9 11 12 16 20 23 23 23 22 23 24 25 27 28 29 29 29 28 27 26 26 25
6 6 5 6 4 4 4 6 6 11 12 14 17 21 19 23 27 27 28 28 29 32 34 28 25 22 21 19 18 18 18 18 18 21 24 26 27 24 23 23 24 25 26 27 28 29 29 29 28 28 27 26 25 24
5 5 2 4 2 2 4 7 8 7 9 18 21 21 24 28 30 34 32 35 31 35 29 23 23 23 23 23 23 22 23 25 29 31 30 26 23 22 22 23 24 25 26 26 26 25 26 27 27 27 25 23 22 23
3 3 3 3 2 4 7 8 12 9 6 11 13 12 23 26 29 30 27 27 24 20 20 21 22 23 25 28 30 32 32 30 26 23 22 21 21 21 21 23 24 24 24 25 26 26 25 25 25 23 21 21 22 23
1 1 0 2 3 2 4 7 13 8 3 4 6 6 10 14 13 11 13 21 27 27 27 28 29 28 27 25 22 21 21 20 20 20 20 20 21 22 23 24 25 26 27 27 25 24 23 21 20 19 20 22 23 23
2 2 2 2 2 4 5 1 4 8 9 7 6 9 10 11 9 5 11 12 11 13 12 12 14 16 18 19 20 20 19 19 19 20 21 21 22 23 25 26 27 26 25 23 21 19 18 18 18 19 21 22 23 24
5 3 3 4 3 2 1 5 7 3 4 5 9 10 7 4 4 6 8 9 9 10 12 14 16 17 17 18 20 20 20 20 21 22 23 24 25 25 25 24 23 20 18 16 15 15 15 16 18 20 21 23 25 27
7 7 8 5 3 2 2 2 5 4 4 5 7 7 5 7 7 8 11 12 12 13 14 14 15 17 18 19 20 20 21 21 22 23 23 23 24 23 22 19 16 13 12 12 13 14 15 17 18 19 21 23 27 30
11 10 8 8 8 6 7 5 3 3 4 5 7 9 8 10 13 14 14 15 15 15 14 14 15 17 18 19 21 23 24 24 24 24 23 22 21 18 15 13 11 11 12 13 14 15 16 17 18 20 22 26 29 31
11 6 7 10 10 10 8 6 5 6 8 9 9 11 11 12 14 15 15 15 15 16 17 18 19 21 24 24 24 24 24 23 23 23 21 18 16 14 12 11 11 13 14 14 15 16 17 18 20 23 26 30 30 29
14 12 12 13 12 10 11 8 7 10 8 7 10 14 14 16 18 19 20 20 21 21 21 22 22 21 21 22 23 23 24 23 22 20 17 15 13 12 11 12 13 14 14 15 16 17 18 20 22 25 28 27 28 28
7 12 13 14 12 12 13 14 14 15 16 15 14 16 16 15 17 18 18 18 18 21 21 21 22 23 24 25 24 23 21 19 17 16 14 14 13 12 12 13 14 15 15 15 16 18 19 21 25 26 24 24 25 24
12 10 8 11 14 16 17 17 17 19 20 20 20 21 23 22 22 21 19 19 20 20 21 23 25 26 25 23 20 19 17 15 14 13 13 13 13 13 14 14 15 15 15 16 17 19 21 24 24 22 22 22 23 23

GFSWCAN_700_spd_009.txt.gz
Wind_Speed
22 24 22 23 24 28 37 34 30 26 29 26 24 21 21 18 19 20 18 16 16 15 10 7 10 11 12 13 15 25 23 19 21 24 15 7 8 11 10 14 18 24 18 17 16 8 10 17 14 14 11 10 9 15
20 24 22 23 24 29 39 36 33 26 29 26 24 22 21 19 20 21 19 17 18 15 11 11 11 13 13 16 15 13 16 16 15 13 10 9 10 15 14 10 15 15 18 16 14 9 10 9 17 20 15 8 7 9
22 25 20 21 26 29 40 38 34 27 29 27 24 22 22 20 20 21 20 19 19 17 15 12 13 15 15 18 16 19 20 9 20 21 13 10 6 11 11 14 13 15 16 12 11 13 9 8 12 14 12 12 12 12
23 21 19 21 26 32 44 36 34 32 29 26 25 23 23 20 20 22 22 20 19 17 16 15 16 17 17 18 19 15 19 12 15 18 18 15 10 8 10 10 12 13 13 15 16 15 13 13 14 14 14 14 15 16
23 22 20 20 24 28 40 46 42 24 29 27 25 24 23 21 20 22 22 22 21 20 10 19 16 18 19 18 18 17 16 20 16 15 15 15 15 12 12 13 13 13 13 14 18 18 16 14 15 17 17 16 18 19
24 23 21 16 24 31 42 46 42 28 32 29 26 25 23 21 20 22 23 24 24 22 19 9 20 20 19 20 20 20 19 18 19 18 17 18 16 14 10 16 16 13 10 13 16 16 20 19 17 16 16 16 20 16
23 22 21 12 19 29 42 44 38 32 32 29 28 26 24 22 21 25 21 23 25 25 21 14 12 16 23 20 21 22 22 22 22 21 21 20 19 18 22 24 20 18 18 20 19 12 16 18 18 20 20 17 14 14
23 21 23 11 16 23 41 42 38 34 31 31 29 27 25 24 23 26 22 16 23 24 21 11 12 15 19 20 20 21 20 22 21 22 22 21 21 23 20 24 23 21 21 21 19 17 12 11 11 11 10 11 12 13
22 20 22 11 14 22 40 43 38 30 34 33 29 26 25 26 26 25 23 18 20 23 13 13 18 14 16 21 21 21 22 18 17 21 24 21 26 17 16 17 21 19 13 14 16 17 18 15 13 10 10 11 12 14
23 18 20 14 12 18 46 41 39 36 36 33 31 30 31 29 27 24 22 20 21 24 23 19 19 21 15 18 20 19 14 16 10 20 22 28 39 35 32 30 27 23 21 15 12 14 13 10 9 10 10 11 13 16
22 16 19 12 11 17 41 36 36 40 41 41 38 36 28 29 24 21 13 17 16 14 23 29 23 18 20 19 21 16 9 9 6 9 11 9 24 22 24 31 33 30 23 14 14 11 7 9 9 10 11 13 18 23
21 16 17 11 12 15 41 35 36 43 50 45 42 33 27 28 13 13 13 14 12 16 12 23 26 23 20 18 14 14 9 9 6 8 9 9 22 17 13 18 26 23 18 17 12 9 9 8 9 11 14 19 23 28
20 17 15 10 8 19 37 27 29 44 47 46 38 33 25 20 15 15 21 19 19 19 27 22 25 27 21 19 11 11 11 10 7 7 8 11 6 6 12 12 17 22 22 19 14 12 9 9 12 17 21 23 28 30
18 17 14 11 4 19 33 27 39 50 51 50 25 30 21 13 18 19 27 26 25 22 16 21 25 25 22 21 9 8 11 8 8 8 9 9 9 11 12 13 14 17 18 16 13 10 11 14 18 22 25 30 29 27
16 16 12 13 7 15 36 34 48 38 43 21 19 15 26 23 22 25 23 26 27 22 20 25 26 18 22 10 11 9 10 7 10 6 6 7 13 15 15 15 18 18 15 11 11 12 15 19 23 28 29 27 26 26
14 13 9 12 9 13 37 39 46 45 38 10 12 14 27 28 21 21 28 27 25 28 27 27 23 10 11 9 11 10 8 8 6 4 3 8 15 18 19 18 16 12 9 8 12 17 22 25 26 25 25 24 25 26
12 12 8 7 7 7 26 40 33 27 24 11 13 16 17 22 16 18 24 28 28 31 36 23 16 12 10 10 12 11 11 9 7 4 6 11 15 19 18 14 9 7 8 13 18 22 23 23 23 23 24 25 26 27
10 9 8 5 5 6 12 24 29 21 11 11 12 19 15 16 23 21 21 23 27 33 34 23 15 17 10 9 12 18 14 12 10 11 18 23 22 19 14 9 8 10 12 16 18 20 21 22 22 23 25 25 26 28
8 7 9 3 2 2 10 13 11 7 10 17 17 14 18 18 17 17 20 22 26 33 33 21 10 16 18 11 8 9 10 12 14 23 26 23 19 14 11 9 10 13 17 18 19 20 21 21 22 24 25 26 27 28
6 7 7 3 2 5 5 6 9 8 13 17 18 21 20 12 15 18 16 15 19 26 26 23 21 9 11 14 10 12 20 21 20 21 19 16 12 9 8 11 14 17 19 20 20 20 21 22 23 25 26 27 28 27
7 8 8 3 4 5 5 7 7 8 11 15 19 21 22 21 22 19 19 20 20 24 23 22 25 24 13 10 21 23 21 20 17 15 13 11 9 9 13 17 19 19 19 19 19 20 21 22 24 26 26 26 26 26
9 7 8 6 3 5 4 6 8 11 10 14 18 23 24 24 24 23 24 29 30 30 26 23 22 20 20 23 25 25 23 20 17 14 12 11 13 18 21 20 19 19 18 19 20 21 22 23 23 24 24 25 25 25
9 6 4 5 1 2 3 5 8 8 9 19 17 18 18 25 26 29 32 35 34 34 31 26 27 28 27 26 25 22 19 19 18 16 15 19 23 25 22 21 19 18 18 19 20 21 22 23 24 24 24 24 22 21
7 5 3 5 3 1 5 5 5 5 9 15 19 17 23 24 25 26 20 31 33 32 38 35 31 28 25 21 18 17 16 16 18 22 25 25 22 20 18 17 17 18 19 20 21 23 24 25 24 23 22 20 19 20
4 4 3 2 5 5 2 3 6 5 6 7 9 11 18 22 22 15 18 24 30 33 38 41 39 33 26 22 19 19 22 24 23 20 19 18 16 15 16 17 17 19 20 23 24 24 24 23 21 18 18 17 18 20
1 2 2 1 2 3 5 6 4 6 8 7 7 8 11 10 9 8 17 21 21 21 21 22 21 20 19 19 18 17 15 15 15 15 14 14 14 15 16 17 19 21 22 22 21 20 19 16 16 16 16 18 19 20
2 1 1 3 5 4 3 1 6 6 4 4 8 10 7 5 4 10 16 16 15 15 14 13 12 13 14 14 13 14 14 13 13 14 15 15 16 17 17 18 19 19 19 18 16 14 13 13 14 16 18 19 20 21
4 4 6 3 2 1 3 2 2 1 1 2 2 3 3 4 7 13 14 14 15 15 14 14 15 16 15 16 15 14 14 14 14 15 16 17 17 17 17 17 17 16 14 12 11 11 12 14 15 17 18 20 22 24
6 4 5 6 7 4 4 4 4 4 4 6 7 7 6 6 8 13 14 14 14 15 15 15 15 15 15 14 14 13 14 16 17 17 17 16 16 15 15 14 13 12 10 10 11 12 14 15 16 17 19 21 24 28
7 4 3 5 7 6 7 5 4 4 6 6 6 8 10 14 15 15 14 12 9 9 9 10 10 11 12 15 16 17 17 17 16 16 15 15 15 14 13 12 11 10 10 11 12 13 15 16 17 19 21 23 26 27
10 9 9 8 7 8 9 9 8 8 8 7 8 12 13 15 15 16 15 15 15 15 15 16 16 17 17 17 17 17 16 17 17 17 17 16 15 13 11 10 10 11 12 13 14 15 16 17 18 20 22 26 25 23
6 9 11 11 11 8 9 11 13 12 13 14 12 12 13 16 17 17 17 18 18 19 19 21 22 21 20 20 18 18 19 20 19 17 15 13 11 10 10 11 12 12 13 15 16 16 17 18 19 22 24 22 21 21
11 9 7 8 11 14 13 13 15 16 18 19 20 19 18 18 21 21 16 15 16 16 17 16 16 17 18 19 21 22 21 19 17 15 13 11 10 11 11 12 13 14 15 15 15 17 18 19 22 22 20 20 20 21

GFSWCAN_700_spd_012.txt.gz
Wind_Speed
29 24 16 18 20 21 19 28 24 39 31 22 30 26 25 21 20 19 20 18 17 17 8 10 8 8 8 10 25 29 26 22 25 18 14 10 9 13 11 16 25 25 17 16 18 10 13 15 13 12 11 10 8 9
29 24 19 19 20 22 19 31 25 39 34 29 30 26 25 22 21 20 21 19 18 18 12 9 8 9 11 12 13 23 21 19 20 18 15 8 9 16 14 13 18 21 23 18 17 13 15 11 15 17 18 14 8 8
29 24 20 19 22 20 19 30 27 37 35 28 31 27 26 24 22 22 21 21 19 18 15 13 13 12 14 16 11 14 18 8 13 11 13 14 6 9 16 15 21 21 21 23 21 22 15 14 13 15 13 13 10 11
29 23 20 21 21 19 19 32 33 37 34 27 32 27 27 24 22 23 23 21 20 18 16 17 15 15 14 16 15 12 14 11 12 14 15 10 11 9 11 10 18 18 21 23 22 17 14 14 14 13 13 11 11 11
28 23 21 20 19 19 16 31 39 42 38 29 30 28 27 24 22 23 25 22 22 21 11 18 17 18 17 17 17 15 15 17 12 17 16 15 15 11 10 12 13 14 14 16 13 12 11 11 12 14 15 15 15 15
28 23 21 19 19 18 14 30 42 39 34 30 28 28 27 24 23 24 27 25 23 24 11 8 21 20 21 20 19 17 16 18 20 17 15 16 13 11 8 14 17 15 14 15 14 13 11 14 17 18 19 19 18 17
29 22 22 18 19 17 15 29 38 42 39 28 30 30 27 24 25 27 24 26 29 26 21 12 8 18 22 21 21 20 20 19 19 19 20 19 18 18 22 24 17 15 15 15 17 16 14 14 16 19 21 19 18 16
28 22 22 18 18 15 16 29 42 41 35 31 31 29 26 25 25 28 22 27 30 23 22 8 11 17 21 25 22 19 20 20 21 22 21 23 21 22 22 25 22 22 21 20 18 17 14 12 16 18 18 16 12 11
27 22 21 17 18 12 16 26 40 43 37 32 31 29 27 28 28 31 25 20 26 30 13 13 16 16 17 21 22 22 21 20 21 22 23 20 26 19 18 20 17 13 13 13 13 17 17 16 13 13 12 10 9 7
25 22 21 17 16 10 13 25 44 45 37 31 34 34 32 30 29 31 24 23 22 29 28 20 20 20 17 25 27 22 14 14 8 15 14 24 38 34 32 29 23 19 13 13 10 12 17 18 14 12 11 9 7 7
24 22 20 16 16 11 12 25 38 44 37 40 41 38 32 31 26 25 16 21 18 16 26 30 24 22 23 22 21 17 9 10 7 12 14 10 29 24 23 31 33 27 22 18 9 10 15 14 11 10 8 6 7 10
22 22 19 15 15 10 11 33 39 41 42 46 45 39 30 27 14 13 16 15 13 21 15 29 33 24 20 21 15 14 10 10 6 9 9 7 14 12 14 17 23 25 23 16 12 14 12 10 10 7 6 8 11 15
21 21 18 16 13 10 14 39 42 34 46 45 39 30 25 20 16 15 22 20 21 18 27 21 30 31 24 22 12 12 11 10 7 8 8 11 7 6 10 15 19 20 17 16 19 14 10 10 7 6 8 13 16 19
20 19 17 15 11 7 10 39 43 46 48 36 27 29 18 15 20 22 32 27 29 22 18 23 30 29 23 23 10 8 11 7 7 8 8 8 9 10 12 15 17 17 20 23 19 10 10 8 7 10 14 17 20 20
19 16 16 13 10 7 15 42 51 46 46 26 22 21 28 24 28 31 18 30 30 26 21 25 31 20 24 10 11 9 11 8 11 9 7 6 10 13 15 16 20 21 22 20 13 11 10 10 12 16 19 20 20 19
17 15 15 12 9 7 24 48 52 50 39 14 14 17 31 31 20 27 31 24 30 30 28 31 26 12 11 9 11 10 9 9 9 11 8 8 13 15 16 19 23 22 18 16 12 9 10 13 17 19 20 20 19 20
16 15 14 8 6 4 15 44 49 41 24 11 12 16 19 28 22 19 26 32 30 32 37 26 16 13 10 10 12 13 11 12 14 10 8 12 15 18 21 24 24 21 16 12 10 10 12 15 18 19 20 20 20 20
14 13 14 7 3 3 12 26 30 19 11 14 16 15 15 22 25 24 24 29 34 38 37 22 21 18 10 9 11 16 14 15 14 13 15 20 23 23 23 21 18 14 10 8 8 11 15 17 18 19 19 20 20 22
12 12 13 5 2 5 7 14 14 9 14 19 16 17 18 22 26 27 28 31 33 40 33 18 10 15 16 10 8 8 9 12 13 16 23 26 26 24 20 16 13 10 7 8 11 15 17 18 19 20 21 21 22 23
14 13 12 6 4 5 5 6 11 9 20 23 24 22 21 23 21 21 26 33 36 41 33 22 16 9 10 14 12 8 8 10 12 16 26 30 27 22 17 12 8 6 9 13 16 17 18 19 20 20 20 21 23 23
16 12 10 7 3 4 4 7 7 11 19 21 28 23 21 22 23 21 20 22 25 32 33 30 26 22 17 7 4 7 14 17 19 18 25 26 22 16 12 9 9 12 15 17 18 19 19 19 19 19 21 22 22 23
15 13 10 5 1 3 3 6 10 13 14 18 24 25 27 23 20 18 21 23 26 25 18 16 13 13 11 11 15 21 25 27 26 24 22 19 15 13 11 11 14 17 18 18 19 18 18 17 18 19 21 22 23 24
11 11 7 5 2 1 4 8 10 10 9 17 18 19 21 27 28 28 29 32 30 27 29 18 14 15 17 18 23 25 25 26 25 21 18 15 13 11 13 17 19 20 19 17 16 16 16 18 19 21 23 24 23 22
8 8 3 4 4 1 2 4 6 7 10 15 17 13 21 23 25 26 28 34 36 28 27 27 20 20 24 26 27 27 25 23 21 19 17 16 17 18 21 23 20 17 16 15 15 16 18 20 21 22 22 21 19 18
5 5 4 4 5 5 2 2 4 4 7 10 14 12 16 20 18 18 20 29 33 33 30 28 28 28 27 27 26 24 22 19 16 15 18 19 20 20 18 15 15 15 15 15 17 18 19 20 20 19 18 17 17 17
3 4 4 5 3 4 5 7 4 5 8 6 7 12 15 13 11 8 21 25 27 29 31 32 34 33 32 30 26 22 22 23 23 20 16 14 14 13 13 13 14 14 15 16 18 19 19 19 17 16 15 15 16 18
1 0 2 5 7 5 4 3 5 7 6 3 7 10 8 6 5 10 20 25 29 31 30 29 29 28 27 26 23 18 13 12 12 12 12 10 10 10 11 12 13 15 16 18 18 18 17 15 14 14 15 16 18 19
2 3 5 2 1 4 4 3 4 2 2 3 5 3 3 5 7 17 24 27 27 24 23 22 21 20 17 14 13 12 12 10 8 7 7 8 10 11 13 14 15 16 17 16 16 15 14 13 13 14 16 18 19 21
2 3 5 7 5 3 0 3 4 3 4 3 2 2 4 7 11 14 15 17 19 20 20 17 14 13 13 12 11 9 7 6 6 8 9 11 11 12 12 13 13 14 14 13 13 12 12 13 14 16 18 19 20 23
6 5 5 7 6 6 5 4 4 3 3 3 4 6 7 8 9 9 9 9 11 13 13 12 11 10 8 7 7 8 8 9 10 9 9 10 10 10 11 11 11 11 11 12 12 12 13 14 16 17 18 19 21 24
8 9 9 8 7 7 9 8 7 6 6 6 6 7 10 11 14 14 13 11 10 9 9 8 8 9 10 11 12 12 11 10 9 9 9 10 11 11 11 11 10 11 11 12 13 14 14 15 16 16 18 20 23 24
7 9 10 10 10 9 10 11 11 10 9 10 8 7 9 12 13 14 14 14 14 14 14 14 15 14 15 15 14 13 12 12 12 12 13 12 12 12 11 11 11 12 13 13 14 14 15 15 15 17 19 22 21 20
8 8 7 7 8 11 12 11 12 14 16 16 15 15 16 16 16 16 16 17 17 16 16 16 16 15 14 14 14 15 14 14 15 15 14 14 13 13 12 12 12 12 12 13 14 14 15 16 17 19 20 18 17 18

GFSWCAN_700_spd_015.txt.gz
Wind_Speed
32 32 28 22 17 16 18 22 17 28 32 38 29 27 26 24 21 21 21 23 20 21 13 12 12 10 5 15 21 26 28 29 28 19 14 9 6 11 6 13 28 22 18 14 12 6 10 9 9 9 7 6 5 6
30 31 28 21 18 17 18 22 18 28 33 42 31 29 27 24 21 22 22 21 21 19 13 12 10 12 8 7 18 23 17 30 27 13 12 15 9 14 11 10 19 19 19 18 13 13 10 9 10 12 17 13 10 8
29 29 27 21 19 17 19 21 18 25 35 39 36 25 28 25 22 23 22 20 21 18 16 12 12 11 12 5 8 22 24 15 23 23 13 11 8 17 11 8 16 19 25 22 15 19 18 16 16 12 12 11 10 8
27 27 29 21 20 17 18 19 19 26 35 43 31 30 27 25 23 23 23 19 20 17 17 11 14 13 13 10 6 8 19 10 5 9 16 15 9 11 12 12 14 20 19 23 26 25 20 19 20 15 13 12 10 10
26 27 29 22 20 17 18 18 19 28 31 39 33 26 28 26 24 23 24 20 22 20 10 17 15 13 13 15 13 8 8 11 13 13 9 9 8 6 10 13 16 22 23 23 20 21 20 18 13 13 15 16 14 13
26 26 27 23 20 17 17 17 17 31 32 35 35 26 27 25 25 22 27 23 25 24 7 7 17 19 17 15 16 15 13 17 13 19 17 16 15 12 8 13 16 11 12 16 15 13 13 13 14 17 19 18 17 16
26 26 26 22 20 16 16 16 16 29 36 35 29 26 26 26 26 29 26 30 23 24 18 6 8 21 20 20 18 18 18 18 20 19 19 17 15 16 19 19 13 10 12 16 17 17 15 14 15 16 18 20 18 17
25 24 24 22 20 15 16 17 19 29 36 41 32 26 26 26 25 28 20 26 22 26 22 12 11 16 25 23 21 19 19 18 18 19 20 21 21 22 22 24 21 21 19 20 19 18 18 18 15 18 19 19 18 16
24 24 24 23 19 14 16 16 22 31 38 40 34 28 28 28 29 29 18 17 25 29 15 13 18 17 21 25 25 21 21 20 18 22 24 21 26 19 23 25 22 18 15 14 16 19 20 19 17 17 18 18 17 14
23 23 23 23 18 14 16 14 21 32 41 40 33 32 32 33 31 28 24 18 22 28 28 10 19 15 14 20 22 21 20 17 11 20 21 30 40 35 32 29 21 17 15 12 15 13 13 16 18 17 17 17 14 11
23 22 23 23 18 14 14 12 17 29 38 39 42 41 37 35 26 31 14 22 18 18 19 29 17 16 19 19 22 18 9 10 6 11 13 11 29 24 19 29 33 25 19 16 20 14 12 11 16 18 17 14 12 10
21 20 23 22 17 13 13 12 26 39 38 43 44 36 33 33 18 17 12 15 13 23 13 24 33 26 19 18 17 17 8 6 7 8 9 9 25 20 20 17 26 31 24 21 21 14 16 20 20 17 15 12 9 8
18 20 24 20 17 13 12 10 41 45 45 36 37 39 28 22 18 18 24 20 23 15 30 24 26 32 25 20 13 10 12 10 7 8 8 10 9 9 9 14 19 25 24 24 19 17 19 17 16 15 11 7 7 10
17 22 23 18 16 12 10 12 34 37 44 36 20 26 23 17 19 22 29 30 29 27 10 27 27 29 26 25 11 9 10 7 7 8 10 11 11 12 12 12 17 21 23 21 20 23 18 18 15 10 6 7 11 14
21 22 20 17 15 10 10 16 35 48 46 25 15 18 29 24 28 28 16 22 27 24 20 23 30 22 27 11 11 10 9 8 11 13 13 10 10 12 14 17 21 21 21 23 25 18 17 14 9 6 8 12 16 17
24 21 17 17 11 7 10 20 39 49 24 19 16 20 33 31 18 24 27 17 24 28 26 28 21 11 13 10 11 11 8 9 10 12 11 11 10 13 15 19 23 23 24 26 18 15 12 8 6 8 12 15 17 17
23 20 18 15 7 4 7 17 37 44 21 15 21 18 23 30 26 17 20 24 24 29 35 25 17 13 11 12 14 15 13 12 10 13 11 7 9 12 16 21 25 25 23 19 16 11 7 5 8 11 14 16 17 17
24 19 19 14 7 0 3 14 27 17 11 11 15 21 15 23 29 28 23 27 30 33 35 29 20 19 10 10 13 24 17 15 16 15 11 11 14 16 19 23 24 23 20 16 11 7 6 8 10 13 16 17 17 17
26 21 18 13 8 2 4 8 13 8 11 16 14 14 16 20 25 27 25 28 29 35 38 27 12 18 18 13 11 10 13 16 17 15 16 17 19 22 26 25 23 19 14 10 8 7 9 11 14 16 17 17 17 18
22 22 16 14 8 2 2 4 7 7 13 17 18 17 17 13 20 27 28 32 36 41 35 26 20 11 14 14 13 15 16 15 15 16 21 25 26 27 25 22 18 15 11 9 8 9 12 15 17 18 17 18 18 19
19 19 15 12 7 3 2 4 7 7 14 18 21 22 22 19 21 22 26 33 38 44 36 36 22 16 16 17 16 15 15 15 17 16 16 24 29 26 21 17 14 11 9 8 10 14 17 18 18 18 18 18 19 20
19 19 16 9 6 4 2 1 5 10 13 19 22 22 26 28 26 24 23 29 36 40 31 22 25 22 18 16 15 12 15 17 18 21 24 26 25 21 17 14 12 9 10 14 18 19 19 18 17 17 18 19 21 23
17 17 13 9 5 4 2 1 4 6 6 15 21 15 22 24 28 30 26 32 32 29 31 26 15 9 9 12 17 20 23 25 27 28 28 25 20 17 14 13 14 15 17 20 20 19 17 16 17 18 19 21 23 24
13 13 8 7 8 5 5 3 1 3 6 11 14 11 17 18 21 24 21 29 32 26 25 23 12 13 16 18 20 24 29 32 30 29 24 20 18 17 15 16 18 20 24 22 18 17 16 17 18 19 21 22 22 22
9 7 6 7 7 8 5 4 3 1 2 7 11 8 13 17 17 17 20 24 25 26 20 23 21 21 21 23 26 29 31 32 30 25 22 20 18 19 18 19 21 22 20 18 17 16 16 17 19 21 22 22 20 19
4 3 6 6 5 5 5 4 4 3 2 2 4 8 11 11 11 7 20 23 25 26 27 26 27 29 27 26 26 27 26 26 26 24 22 21 21 23 26 24 20 18 17 16 15 16 17 19 21 21 20 19 18 17
3 3 2 3 5 4 3 3 5 2 2 2 2 6 6 5 6 9 17 22 25 28 30 30 29 28 28 29 30 30 29 28 28 27 27 24 19 18 18 16 15 15 15 15 16 17 19 20 19 18 17 16 16 18
6 6 7 4 2 3 4 2 2 3 4 4 2 0 1 5 6 11 16 22 26 28 29 28 28 28 29 29 28 28 27 26 23 17 15 15 15 14 13 13 13 14 15 16 17 18 18 18 17 16 16 16 17 19
7 8 8 8 6 3 1 2 2 1 1 2 3 3 6 4 6 11 18 22 24 26 27 26 25 24 25 25 23 19 16 13 13 14 13 12 11 12 12 12 13 14 15 16 17 17 16 16 16 16 17 18 19 21
10 9 9 9 9 7 5 3 2 2 3 2 2 4 4 4 7 10 11 14 16 18 19 19 18 18 18 17 15 13 12 11 10 10 10 11 11 11 11 13 13 13 14 16 16 16 16 15 16 17 18 19 20 21
11 11 10 9 8 8 8 8 7 4 2 1 1 2 3 5 8 10 12 14 15 16 16 15 14 13 12 10 9 8 9 10 10 11 11 10 10 11 12 13 13 14 14 15 15 15 15 15 16 17 18 19 21 22
12 13 12 12 11 10 9 10 11 9 7 6 6 7 8 8 8 8 8 8 8 8 9 9 9 9 9 9 10 11 12 12 12 12 12 11 11 12 13 13 13 13 13 13 14 14 15 15 16 17 19 20 21 22
11 10 10 10 11 11 12 11 12 12 12 11 11 11 11 10 11 11 11 11 12 12 12 11 12 12 12 13 13 14 14 14 14 13 13 13 14 14 13 13 13 13 13 13 13 14 14 15 17 18 18 19 18 18

GFSWCAN_700_spd_018.txt.gz
Wind_Speed
31 32 29 28 29 22 16 17 17 19 16 21 30 33 28 21 24 21 20 21 20 25 22 12 13 13 15 8 13 14 24 22 27 23 20 9 7 13 5 12 22 21 20 11 11 5 9 9 9 6 4 1 1 3
30 29 27 26 28 23 18 16 18 19 17 25 25 36 27 25 24 22 20 19 18 21 14 12 16 11 13 6 14 14 21 26 17 22 9 8 9 14 10 7 11 18 22 16 12 9 4 5 1 3 9 10 10 7
29 26 26 25 27 24 18 16 18 15 16 26 30 36 30 25 23 22 19 20 17 18 15 16 12 11 10 6 8 16 25 21 21 25 18 10 10 13 12 9 9 18 18 16 15 17 14 11 10 9 10 8 7 7
28 25 26 25 25 25 19 16 16 14 15 23 35 39 26 22 21 22 20 20 17 13 14 12 13 12 7 9 3 14 17 18 30 24 17 16 14 12 16 8 13 17 17 26 22 16 11 12 13 14 15 12 9 6
27 26 26 24 24 24 19 16 15 14 14 23 36 35 28 24 22 21 19 22 17 16 4 11 12 12 7 7 3 6 23 14 5 14 6 12 16 12 9 12 15 16 18 19 23 16 18 20 16 13 12 11 9 7
26 26 25 24 23 24 19 15 13 13 16 24 34 34 32 25 22 21 21 26 21 20 13 4 10 12 10 6 6 4 3 11 13 11 9 4 4 6 5 12 11 9 15 19 18 17 13 11 12 12 12 13 12 11
26 25 23 22 22 23 18 14 12 13 15 29 35 36 30 25 25 27 22 25 21 21 20 6 5 15 15 12 9 10 11 10 12 13 17 13 12 14 16 16 4 8 12 12 14 13 13 12 12 11 13 14 15 15
26 24 23 22 22 23 18 13 12 14 17 33 37 33 26 24 24 26 17 17 26 27 19 9 9 11 20 19 16 13 13 14 16 16 17 18 17 16 17 17 18 16 13 14 14 15 14 14 14 14 15 16 16 16
25 23 23 21 22 23 17 13 12 14 23 32 40 32 26 27 30 29 27 15 16 25 15 14 17 14 15 22 21 17 16 15 14 18 22 16 20 16 15 17 18 17 16 15 16 18 17 16 15 13 14 16 17 16
24 22 22 21 22 22 17 13 11 14 26 30 38 33 34 35 29 24 28 25 16 27 26 15 20 20 16 24 24 18 14 14 8 14 16 24 34 31 29 28 25 20 15 13 17 17 17 17 16 16 17 18 17 15
22 20 20 20 22 21 16 12 8 15 28 30 32 34 26 31 27 25 21 14 13 13 21 32 19 17 19 19 20 14 8 8 6 12 13 9 29 25 24 28 33 30 18 17 17 18 17 14 10 13 15 16 14 12
21 21 20 22 25 18 14 10 7 18 28 31 33 25 31 33 21 14 16 13 12 14 12 21 26 18 13 17 12 11 9 5 5 7 7 9 20 18 19 20 18 23 24 21 20 17 14 12 13 16 16 15 14 12
22 23 24 25 23 16 13 9 9 26 28 37 28 36 25 21 19 16 24 24 18 14 19 16 19 25 21 16 10 7 7 9 7 7 7 10 11 8 7 8 16 21 25 23 20 19 16 15 17 18 16 14 11 7
28 26 26 24 18 15 10 9 9 26 36 28 21 14 16 17 21 23 35 31 25 16 9 23 23 22 21 19 9 8 10 6 6 7 11 16 14 12 11 9 12 18 22 21 19 18 15 17 18 17 14 10 7 7
33 28 24 21 18 14 7 10 11 32 34 16 9 10 23 24 24 23 19 24 36 28 20 16 23 24 19 9 10 9 8 7 9 13 14 9 10 12 12 11 13 18 22 21 19 16 20 18 17 15 10 5 6 9
33 32 24 20 18 10 6 10 13 31 28 12 10 13 25 23 18 21 26 15 22 31 28 24 21 10 13 9 10 12 8 8 10 11 10 10 11 11 10 11 15 18 20 19 17 19 18 17 14 8 4 5 8 11
29 32 30 24 18 10 5 7 10 27 18 8 13 12 14 21 18 13 22 24 22 28 34 24 16 13 11 11 14 14 18 17 15 12 8 11 8 8 11 15 18 20 20 20 21 18 17 13 8 5 5 7 10 13
28 28 30 24 17 9 4 3 8 12 9 9 14 17 10 16 21 20 23 26 27 31 34 29 21 18 12 14 17 21 23 19 13 11 13 10 10 13 15 19 22 21 22 23 19 17 13 8 6 5 7 11 13 14
27 29 27 25 18 11 3 3 7 6 9 11 12 17 18 15 16 23 22 24 26 32 34 28 17 18 21 16 16 14 15 17 15 14 15 13 13 15 20 23 24 25 24 20 16 12 9 6 5 7 11 13 14 14
23 24 25 24 16 11 4 2 5 4 11 15 16 16 14 20 22 21 25 28 30 37 32 32 30 19 14 20 18 15 16 13 9 12 14 16 18 22 24 24 25 23 21 16 12 8 5 5 9 12 14 14 14 14
21 22 21 19 12 9 4 3 3 4 10 16 21 21 19 17 18 24 25 26 32 36 38 37 37 31 21 17 19 21 20 17 16 13 9 13 21 25 26 27 25 20 16 12 9 6 6 10 13 14 14 14 14 15
22 22 23 16 9 5 4 5 3 4 8 13 19 20 23 22 18 15 18 28 35 38 35 36 30 27 23 21 21 20 18 17 17 16 15 16 23 29 28 23 19 16 12 8 6 8 11 15 16 16 14 15 16 17
20 21 20 13 6 6 5 7 5 4 5 10 14 17 20 24 26 26 23 26 33 32 34 24 18 22 22 28 26 24 22 21 19 21 21 25 27 26 23 20 16 12 10 9 12 15 17 18 16 15 15 16 18 20
17 15 10 8 7 8 9 9 7 4 3 6 10 7 16 18 24 24 23 27 32 31 30 29 25 22 17 22 24 24 24 27 28 29 29 28 26 22 19 17 15 13 13 15 16 19 18 16 15 16 16 18 20 21
13 8 6 8 7 10 7 8 8 7 4 1 4 5 10 15 18 18 14 19 24 25 25 22 21 21 19 19 20 24 28 30 31 31 32 30 23 20 20 19 18 17 16 17 19 17 16 15 16 17 18 20 21 21
5 3 5 7 8 6 7 7 7 7 5 2 0 4 7 8 9 7 18 21 23 23 22 22 23 22 23 23 26 30 32 33 33 31 28 20 19 20 20 19 18 18 21 19 16 15 16 17 18 19 21 21 20 19
5 5 6 6 6 8 6 7 7 7 4 4 3 1 3 3 4 7 16 22 24 26 25 26 27 28 27 28 29 32 33 33 31 28 24 22 21 21 21 21 23 18 15 15 16 16 17 18 20 21 20 19 18 17
9 10 8 7 5 6 7 7 6 5 6 6 4 4 3 1 1 3 11 17 22 26 28 29 30 31 31 29 28 28 28 27 26 26 25 24 25 24 24 18 15 15 16 16 17 18 19 19 19 18 17 16 16 17
10 10 9 8 7 5 4 5 5 4 4 4 6 6 6 1 2 4 8 13 18 23 26 27 27 27 28 28 28 26 26 26 25 25 24 24 21 17 15 15 15 16 17 17 17 17 18 18 17 16 15 15 16 18
12 12 11 10 9 7 5 3 2 4 5 4 3 3 6 8 7 5 7 9 13 18 20 22 23 24 25 25 26 26 26 25 24 19 16 14 14 14 15 16 16 16 15 15 16 17 17 17 16 15 15 16 18 19
12 13 12 10 9 8 6 6 5 4 4 3 3 3 3 4 7 9 10 12 13 15 16 17 18 19 20 21 21 19 17 16 14 12 12 13 14 14 14 14 14 14 14 15 16 16 15 15 14 15 16 18 19 20
13 13 13 13 11 9 8 8 8 7 5 4 2 1 4 9 10 12 13 14 15 16 16 16 15 15 15 15 15 14 12 11 11 11 12 12 12 12 12 13 14 15 16 16 15 14 13 14 15 16 17 19 21 21
15 13 12 13 12 12 11 10 9 9 9 8 7 6 6 7 7 8 8 7 8 9 9 10 10 10 10 10 9 9 10 11 12 13 13 13 13 13 13 14 15 16 15 14 13 13 13 14 15 16 18 19 18 17

GFSWCAN_700_spd_021.txt.gz
Wind_Speed
39 33 29 27 24 24 26 23 17 15 14 15 16 17 24 31 23 20 19 15 17 21 19 16 9 9 15 13 9 6 25 21 23 19 19 9 9 14 10 12 16 22 16 12 14 4 8 2 5 3 3 4 4 4
38 31 26 25 24 24 24 23 18 14 13 15 16 23 19 28 24 19 20 14 17 17 12 12 13 11 12 14 8 12 18 21 18 16 13 17 9 13 14 8 15 16 24 15 14 10 3 2 2 2 2 4 4 4
35 28 25 25 24 24 23 22 17 14 12 14 15 24 25 26 22 23 17 15 15 14 13 16 12 9 9 13 3 9 16 25 15 30 15 12 7 14 11 8 9 14 14 13 15 14 13 10 5 5 3 2 3 3
30 26 25 24 23 23 22 22 17 14 11 12 12 23 29 28 21 20 19 14 18 11 9 10 5 7 7 10 4 3 15 20 14 18 20 10 8 12 12 9 12 12 12 23 18 13 13 14 11 6 6 7 6 5
29 26 26 25 23 22 20 21 18 12 11 13 14 26 27 29 26 17 17 17 20 11 3 5 10 5 7 6 5 8 14 13 23 23 20 21 16 13 14 14 16 17 16 16 14 17 16 11 11 11 10 8 7 6
29 28 25 24 22 21 21 21 17 12 11 14 14 31 32 25 21 18 17 20 24 12 9 1 1 7 7 5 3 1 20 15 8 13 26 4 10 13 7 9 7 9 11 11 8 6 9 11 12 11 10 9 10 9
31 28 25 23 22 21 21 21 16 13 10 16 16 33 37 28 24 23 18 21 21 15 16 8 5 8 10 8 3 2 6 17 10 10 11 7 4 6 10 12 2 9 9 12 14 15 13 10 7 8 10 10 11 10
30 26 24 22 22 21 21 20 16 14 11 15 21 33 35 29 23 25 21 15 15 19 18 7 6 7 14 13 10 6 5 4 6 9 9 10 12 11 9 6 12 10 8 9 10 10 10 9 9 9 9 10 12 12
29 26 24 22 22 20 21 18 15 13 10 14 28 36 33 33 32 27 19 12 11 22 10 11 11 7 12 18 15 11 8 10 10 13 15 11 16 13 11 10 7 8 10 11 12 12 12 11 12 10 10 11 13 13
27 25 23 22 20 22 23 16 13 11 9 17 31 36 35 33 28 23 25 22 11 22 23 11 13 15 10 16 19 15 12 11 6 11 12 19 27 24 21 19 17 13 10 11 12 14 15 13 14 11 11 13 14 13
30 25 23 22 22 23 20 13 11 2 5 24 27 22 23 28 28 25 18 16 13 11 22 30 17 12 15 15 18 15 8 6 5 9 9 8 24 21 20 21 24 27 21 16 14 14 14 13 13 11 13 16 15 13
35 32 26 23 23 19 13 11 9 5 16 21 22 28 38 32 18 16 13 14 12 16 11 20 28 19 14 19 13 15 6 6 4 6 5 7 16 10 12 14 18 19 23 21 17 17 14 9 10 11 13 15 15 13
34 37 33 26 21 15 11 10 7 6 18 21 25 41 17 19 17 20 22 20 23 13 19 15 19 25 16 14 6 6 8 6 4 6 6 14 16 15 11 7 12 17 18 22 19 17 13 13 12 14 15 15 13 11
33 34 36 31 24 18 11 6 5 7 21 22 18 14 13 14 15 19 37 29 27 19 9 18 24 24 20 18 9 7 9 6 6 8 14 14 11 11 11 9 8 11 16 18 18 15 15 14 14 17 17 14 11 8
29 32 33 31 24 19 10 5 5 9 27 10 9 8 17 18 15 24 17 29 28 22 18 21 26 16 20 9 10 9 8 7 10 11 13 9 7 8 9 7 8 13 18 19 16 13 13 12 14 16 16 13 8 5
30 32 31 30 25 17 11 5 5 9 26 6 9 10 16 18 14 20 22 20 25 26 22 25 24 11 12 8 11 10 8 9 8 7 5 5 7 7 7 7 11 16 19 17 16 14 13 17 17 16 13 9 6 5
29 31 30 27 24 16 11 6 3 9 14 6 7 12 9 19 15 16 19 20 19 27 34 26 16 15 10 11 13 14 19 16 11 13 11 10 6 7 8 11 14 19 20 19 17 17 18 19 18 14 10 7 5 6
29 29 29 27 25 15 10 6 4 6 9 13 8 11 11 19 20 19 20 21 24 26 32 29 21 20 19 17 17 17 13 13 16 12 10 11 12 10 11 13 18 21 21 20 18 20 21 18 15 11 7 4 5 8
29 29 30 29 25 16 10 5 6 4 9 20 10 17 17 21 23 24 25 28 29 32 33 32 18 20 22 18 16 16 15 14 15 14 14 15 14 15 17 20 22 24 22 21 22 21 19 15 11 7 5 5 8 10
24 24 26 26 22 15 7 5 6 7 6 11 18 17 22 23 22 25 25 26 26 33 33 32 31 25 20 18 20 21 17 19 16 15 14 17 18 18 21 22 24 25 25 23 22 19 15 11 8 5 5 9 12 13
23 23 24 24 18 10 5 6 7 7 8 9 14 21 21 24 29 29 27 28 29 32 36 37 34 34 31 25 20 19 20 15 17 14 13 12 16 22 24 27 26 25 24 22 19 15 12 9 6 6 9 12 13 12
23 23 23 20 12 6 3 7 9 9 9 9 10 14 16 20 27 31 31 35 38 40 39 39 37 33 31 27 24 21 21 22 20 19 17 16 18 23 28 28 27 25 22 19 16 13 9 5 7 10 12 12 11 12
22 21 20 13 6 6 5 11 10 9 6 6 9 11 12 17 23 23 22 30 37 35 38 38 34 35 34 26 24 24 24 24 24 25 21 20 22 25 26 29 26 21 19 16 13 9 7 9 12 13 12 12 13 14
19 15 9 7 7 6 10 9 9 10 6 7 7 9 7 13 20 21 26 26 26 29 29 29 29 24 18 16 20 21 24 28 28 26 22 23 26 32 29 26 24 21 17 13 10 11 13 13 12 11 12 13 14 16
15 7 4 5 6 8 9 9 7 7 8 6 5 5 4 9 11 12 22 30 28 28 28 27 26 22 23 17 16 25 30 26 25 26 31 31 28 28 26 23 19 15 12 12 14 13 13 12 11 12 13 14 16 18
6 5 4 4 7 7 7 8 8 8 7 6 4 3 4 5 7 7 17 22 25 26 26 29 29 28 26 27 24 28 28 31 33 31 32 31 25 21 20 16 14 15 14 12 13 15 13 12 13 14 15 16 18 20
8 7 7 6 5 7 7 8 8 6 4 3 5 5 3 3 4 5 12 22 23 24 27 29 29 26 25 25 25 25 28 33 36 34 34 33 29 23 19 16 15 14 13 15 13 12 12 13 14 15 17 19 19 19
13 10 8 7 6 6 7 7 6 4 4 4 4 4 4 3 4 6 7 15 23 27 28 28 28 26 25 24 25 28 32 35 35 32 28 27 23 21 18 14 12 15 16 13 12 12 13 14 16 17 18 18 17 17
12 10 9 8 7 5 3 5 5 4 4 3 3 4 3 4 4 4 4 8 14 19 22 24 26 27 27 28 29 32 34 34 32 30 27 25 23 18 13 14 17 15 13 13 13 14 15 16 16 17 17 17 17 18
11 10 11 9 8 7 6 3 2 3 5 5 3 2 4 5 2 3 4 6 9 14 17 20 21 23 23 23 23 23 22 22 22 21 21 18 14 12 14 14 14 14 14 14 15 16 16 16 16 16 16 17 18 18
13 12 12 11 10 7 7 6 5 4 4 5 4 2 1 3 4 6 8 8 10 13 16 18 19 21 20 19 19 19 19 20 20 18 17 14 12 13 13 13 13 14 14 15 15 16 16 16 16 16 16 17 17 18
14 15 13 12 10 8 7 7 7 6 5 3 2 1 2 4 7 8 11 13 14 15 16 17 17 18 19 19 19 19 20 20 18 16 13 12 11 11 12 13 13 13 13 14 15 16 16 15 15 16 16 17 18 19
14 12 12 12 12 12 10 9 8 8 8 7 6 4 6 6 6 9 11 12 14 15 15 16 16 16 16 16 16 16 16 15 14 12 11 11 12 12 12 12 13 13 13 14 14 14 14 15 15 15 16 18 18 17

GFSWCAN_700_spd_024.txt.gz
Wind_Speed
48 41 34 25 23 23 23 24 24 18 15 12 8 10 9 23 25 25 27 22 21 18 14 12 11 7 7 15 14 5 19 26 26 19 10 8 6 8 7 8 11 15 11 9 9 4 7 0 2 2 6 8 6 5
47 39 29 25 24 24 23 23 22 18 14 12 9 11 13 24 20 19 16 17 19 15 11 10 12 16 13 13 10 8 12 20 24 20 18 12 7 6 11 6 14 12 14 8 8 5 5 3 4 6 3 1 4 6
48 34 28 25 25 23 23 22 21 17 13 12 9 16 16 21 24 20 15 16 15 13 14 14 12 9 10 11 6 8 11 16 24 24 20 15 9 13 10 13 9 15 12 16 13 13 8 9 6 3 3 5 5 4
46 33 27 25 24 23 21 19 20 16 14 12 11 18 20 20 24 23 14 17 14 10 11 7 4 6 9 7 5 0 10 17 19 25 19 12 18 13 14 11 16 13 10 15 21 11 12 13 8 2 1 0 1 2
43 31 28 25 22 22 21 20 19 16 13 11 10 16 24 28 21 20 20 17 13 15 4 6 7 7 7 5 4 3 9 18 15 18 19 18 16 9 12 16 18 16 13 14 9 10 11 7 5 4 5 4 3 4
40 31 28 25 23 23 22 20 20 16 12 12 15 17 24 30 22 20 19 19 18 18 14 2 3 8 8 6 4 6 14 14 17 16 17 18 16 15 8 18 20 18 12 10 8 6 8 14 12 9 8 7 6 6
37 32 28 26 23 22 23 21 20 16 12 13 18 21 28 28 26 26 16 18 16 21 8 7 6 6 10 8 4 2 16 15 11 11 10 20 8 12 10 11 7 10 9 12 11 9 8 7 9 9 10 9 9 9
38 34 29 26 24 24 22 21 19 13 12 11 18 25 33 28 26 20 19 13 14 23 14 6 6 6 11 10 7 1 4 15 9 7 8 9 8 8 7 9 12 6 10 10 13 12 11 8 9 8 9 9 9 9
36 37 34 27 24 23 22 21 15 11 9 10 18 24 35 32 28 25 13 14 10 21 10 9 10 4 10 12 10 8 3 3 4 5 9 7 12 11 8 8 6 10 10 8 8 8 9 10 8 9 8 8 10 11
34 35 37 34 27 25 24 19 10 7 6 7 12 24 28 34 28 17 20 16 16 15 26 9 17 12 6 13 12 8 6 7 3 8 10 15 24 17 14 10 7 6 7 9 9 11 12 11 10 10 8 10 12 12
34 35 36 37 32 25 20 13 8 4 2 12 22 24 24 24 30 23 18 13 13 13 18 31 20 7 10 9 12 9 4 3 3 6 6 7 18 12 13 18 21 21 18 16 13 12 11 8 8 12 10 13 15 12
34 33 34 35 34 26 19 13 7 4 9 22 22 28 38 28 15 13 16 13 11 15 13 20 26 21 11 12 12 11 5 5 4 5 5 6 6 2 3 11 19 21 22 22 19 15 13 12 11 11 12 13 13 12
33 33 33 34 33 29 19 12 7 4 10 20 20 21 15 19 13 15 19 19 21 12 18 17 20 27 20 14 9 8 7 6 4 6 6 14 12 12 10 8 8 18 21 21 21 16 15 14 13 13 13 15 13 11
32 33 32 31 29 27 18 11 6 5 12 18 10 12 11 11 14 15 27 34 30 24 9 20 18 21 23 17 8 6 8 6 5 7 13 16 12 8 7 7 7 9 16 19 20 17 17 13 11 13 16 15 13 12
31 32 31 28 26 26 17 11 7 5 12 11 6 6 12 14 10 12 12 23 26 23 16 20 22 14 22 9 8 8 7 7 9 8 6 5 6 5 6 6 7 9 15 20 19 19 17 11 14 13 19 17 15 13
30 31 31 29 26 24 16 10 8 9 12 13 6 7 12 16 10 8 15 17 24 24 24 24 16 10 12 8 10 10 6 8 5 3 5 4 6 7 7 8 10 15 19 21 21 17 16 16 15 16 19 18 14 9
28 30 31 31 27 24 15 10 7 9 8 11 10 14 12 9 15 15 19 24 26 28 32 26 16 12 11 11 13 13 17 14 9 9 9 11 10 9 9 10 14 18 22 22 21 19 16 18 20 19 17 13 10 7
27 29 29 30 30 25 15 9 7 6 10 14 22 13 12 12 20 24 26 29 32 30 31 27 22 18 13 15 18 16 12 15 14 12 12 11 10 12 12 13 16 21 22 22 20 17 18 20 20 18 14 11 7 4
27 30 30 30 31 27 15 9 8 7 10 14 18 22 14 17 24 25 29 32 34 36 37 34 22 29 31 25 22 21 18 9 10 13 13 13 13 15 15 17 19 23 23 20 19 19 22 21 18 14 11 8 5 5
25 27 27 28 29 25 10 6 9 9 11 12 15 20 19 21 25 28 28 33 36 40 38 34 35 26 16 19 22 16 11 11 13 18 16 17 18 17 18 20 22 24 24 22 21 22 20 18 16 13 10 6 5 7
22 24 24 25 26 19 9 8 9 9 11 13 13 16 25 22 25 30 34 33 34 41 45 40 35 33 27 20 15 13 14 12 17 15 15 18 21 21 22 24 25 26 22 21 22 22 21 17 14 11 7 5 7 10
23 23 23 23 21 14 6 7 12 13 14 16 15 13 17 18 19 24 29 32 37 39 39 39 36 34 30 27 24 22 16 13 15 15 17 18 22 24 25 26 27 26 25 24 22 19 18 16 13 9 6 7 10 11
24 22 22 21 10 7 6 12 13 11 9 9 13 11 11 14 14 19 19 30 39 39 38 34 33 35 32 29 26 26 27 23 22 21 19 20 22 24 26 30 28 25 26 25 22 20 16 14 9 7 7 10 11 11
22 20 16 6 4 7 11 11 11 11 9 9 9 9 9 10 12 18 20 24 31 37 32 34 36 34 31 29 29 25 20 21 22 25 26 25 27 30 33 31 30 26 21 18 19 17 13 9 7 9 12 13 12 12
19 11 6 7 5 8 8 9 10 10 10 10 9 8 7 5 8 15 17 20 27 30 32 31 28 26 24 23 19 17 18 21 23 24 28 29 30 38 38 35 32 26 23 19 16 12 7 10 13 13 13 12 11 12
8 7 6 5 6 6 7 8 9 12 12 9 5 6 8 8 7 6 13 24 18 24 28 30 28 25 22 19 18 18 18 18 22 25 27 32 37 36 34 28 24 24 21 17 11 13 15 12 12 12 11 11 11 13
10 10 12 12 9 8 8 9 9 10 8 6 8 9 5 4 4 6 8 12 16 20 21 24 26 26 26 25 25 24 23 25 26 27 33 36 32 25 21 21 24 23 21 20 14 9 10 10 10 10 10 11 12 14
13 14 14 11 10 8 6 7 8 6 6 7 10 7 4 3 6 11 10 10 13 18 21 25 28 29 29 29 26 24 23 28 33 38 41 39 37 36 34 29 23 19 17 11 9 9 9 10 10 11 11 12 13 14
12 12 11 10 10 9 7 5 5 6 7 8 8 8 9 12 12 10 9 7 7 10 16 18 19 21 24 24 23 24 28 35 38 37 34 33 32 31 28 23 19 14 9 9 8 9 10 10 11 11 12 12 13 15
9 10 11 11 12 11 10 7 6 5 6 8 8 8 9 11 11 8 6 4 4 6 9 11 12 14 16 18 22 27 31 32 32 27 26 25 27 25 22 18 12 9 9 7 8 9 10 10 10 11 12 13 14 15
10 10 10 12 13 10 9 9 8 7 7 7 8 8 8 8 9 7 2 2 5 8 11 14 15 16 16 16 18 21 24 26 27 25 22 21 19 17 13 10 9 9 8 8 9 11 10 10 11 11 12 14 15 16
15 12 10 12 13 10 10 9 8 8 8 7 6 6 5 5 4 3 1 4 7 10 12 14 16 18 19 18 18 17 18 19 20 21 18 15 12 10 9 10 10 9 7 8 10 10 10 10 11 12 13 15 16 17
17 15 14 13 13 12 12 10 9 9 10 9 8 6 4 1 1 4 5 7 9 12 14 15 15 15 16 16 16 16 16 17 18 17 16 14 13 12 11 9 8 8 9 11 11 11 11 11 12 13 14 15 16 18

GFSWCAN_700_spd_027.txt.gz
Wind_Speed
48 47 41 29 27 25 24 22 22 23 19 11 7 6 11 16 23 29 25 19 17 12 13 11 12 13 13 10 9 10 10 16 26 17 13 8 7 6 6 6 4 8 5 5 6 4 3 4 2 5 8 7 4 8
46 45 38 29 27 26 23 22 22 18 17 12 8 9 14 16 17 22 14 16 19 11 10 14 15 13 15 13 14 9 9 20 13 22 11 8 6 6 8 4 10 8 10 3 6 2 3 3 4 5 2 4 5 6
44 43 36 28 25 24 22 22 20 19 16 12 9 11 15 21 19 18 16 17 15 14 14 15 10 10 7 9 15 16 15 15 30 18 18 12 8 12 9 10 12 8 11 10 7 6 6 3 5 5 5 6 7 7
42 41 36 30 25 23 21 22 20 20 15 11 10 12 17 20 25 22 17 17 17 7 8 5 4 6 10 11 9 4 13 16 20 26 25 20 16 13 14 14 10 12 6 5 9 7 7 7 4 3 3 3 3 3
40 40 36 30 26 23 21 22 21 19 14 10 12 16 21 22 25 24 19 15 16 9 5 4 7 9 7 7 4 1 7 13 10 19 21 20 19 14 16 16 18 12 12 9 7 5 11 4 8 4 2 2 2 4
38 38 38 33 27 23 23 23 21 18 13 10 14 17 22 23 20 20 15 14 13 14 10 5 6 7 9 7 6 2 5 11 15 10 29 16 13 14 6 13 15 16 14 12 9 7 6 13 8 5 5 5 6 8
36 37 37 37 32 25 22 20 19 18 13 8 14 19 25 27 23 21 18 16 19 14 12 4 7 5 8 8 7 3 9 13 10 11 14 13 18 12 18 25 12 8 11 13 12 8 7 8 7 6 6 8 9 10
34 36 37 36 37 30 24 21 20 16 8 7 14 20 26 30 26 20 14 9 15 12 14 4 6 6 6 9 6 1 5 12 11 11 13 16 16 19 14 10 14 9 10 9 13 9 10 7 7 9 9 9 10 10
33 35 36 36 36 34 27 21 16 10 5 6 11 17 24 26 27 20 17 17 11 14 9 8 9 3 3 8 7 3 3 6 4 6 7 6 10 11 5 8 13 14 8 9 12 13 11 9 8 7 7 9 10 10
33 34 36 36 35 33 28 20 13 9 3 5 14 17 23 26 25 22 14 16 15 17 21 16 11 10 3 6 7 4 2 3 3 8 8 14 20 15 12 11 9 9 13 12 11 10 10 10 10 10 10 11 11 10
32 33 34 35 35 32 27 20 13 8 1 12 18 18 21 29 20 26 7 12 13 10 17 25 15 9 10 6 9 7 2 3 4 6 6 6 18 10 16 18 16 12 11 11 14 12 11 9 5 10 11 12 13 12
30 32 33 34 35 32 28 19 13 8 2 13 19 23 29 26 11 11 12 11 10 15 11 16 21 15 6 7 7 6 5 4 4 6 5 6 5 8 17 19 21 22 22 20 18 15 11 11 11 12 12 10 13 12
28 30 31 32 34 33 27 17 12 7 2 13 23 18 16 17 12 12 17 13 17 7 18 21 16 26 23 11 7 7 6 5 4 5 5 6 4 7 8 9 12 19 24 25 23 18 16 14 15 14 13 14 14 12
26 28 29 30 32 33 27 16 9 7 4 13 11 8 8 7 11 11 16 23 21 21 6 15 16 18 20 16 7 5 6 5 5 6 8 11 9 8 9 12 12 11 15 20 21 18 18 16 15 15 16 14 13 11
24 26 27 27 29 31 29 17 9 7 5 8 5 5 9 9 10 5 13 9 21 25 21 17 20 18 15 10 8 7 6 6 8 6 6 7 5 5 9 10 12 13 15 18 20 20 18 18 15 12 13 16 15 14
23 25 25 26 27 29 29 19 9 8 8 9 8 7 6 10 13 6 13 13 21 25 20 21 15 9 11 7 9 11 7 7 6 3 3 8 7 6 6 8 10 13 16 19 21 20 20 18 13 14 16 19 16 14
23 26 26 26 26 27 28 20 10 9 5 8 13 16 14 11 9 13 17 21 24 27 31 22 14 11 10 11 14 14 18 15 11 9 10 12 11 10 8 8 10 13 17 21 21 21 18 13 14 15 15 17 15 12
21 24 26 26 27 27 27 20 7 6 9 13 16 19 19 14 14 17 19 23 32 35 36 20 19 20 16 16 17 20 17 11 12 13 12 11 11 10 9 9 12 17 21 22 21 18 19 16 18 18 17 15 12 9
22 24 26 26 27 28 27 16 9 7 12 13 15 19 21 23 18 20 23 25 31 34 40 30 17 23 29 21 18 15 14 17 17 12 9 10 12 10 9 13 17 19 21 21 20 19 17 19 19 18 16 13 11 7
23 24 26 25 25 26 21 11 15 10 11 15 16 17 19 21 28 24 27 26 26 36 44 41 38 24 18 22 26 27 26 20 16 13 13 14 14 12 15 18 19 20 24 22 23 20 22 24 23 19 16 13 9 6
22 23 24 24 22 22 21 12 12 9 13 14 14 17 17 18 25 25 25 26 29 35 48 40 39 38 33 25 16 15 16 14 10 9 13 12 14 17 21 23 22 21 24 23 22 23 24 21 18 16 14 10 6 4
22 23 24 23 22 25 14 10 12 16 18 16 16 15 17 18 19 23 22 21 29 39 42 45 43 39 35 29 24 21 17 17 15 14 15 16 15 18 24 26 25 25 26 22 21 23 22 21 19 15 12 8 4 5
23 24 24 22 20 8 8 12 16 15 12 13 15 15 12 13 14 14 16 22 31 36 41 42 45 42 40 33 27 25 24 21 18 18 14 15 19 18 21 26 23 24 25 25 26 23 21 19 17 14 10 6 4 8
23 23 20 8 6 7 12 12 14 13 13 12 14 14 14 13 14 15 17 22 23 31 36 40 44 43 38 36 32 26 26 25 25 23 23 23 18 21 24 28 28 29 27 27 27 24 21 18 15 12 8 5 10 11
19 13 6 9 9 7 8 11 12 11 12 15 16 14 9 10 10 12 14 17 23 21 25 30 32 39 40 35 29 26 25 24 21 19 20 23 25 27 32 35 36 35 31 29 24 21 19 18 13 7 8 12 13 12
8 6 7 8 9 9 8 9 9 12 13 13 8 9 12 12 9 7 9 10 15 21 18 24 28 28 28 26 26 23 20 20 19 21 22 23 25 32 33 36 40 35 31 26 21 21 18 12 12 16 14 13 13 11
10 11 14 17 18 15 12 11 11 11 11 8 9 14 10 5 6 6 9 13 14 13 14 18 21 29 30 28 25 22 20 19 18 19 19 19 26 34 37 39 37 33 30 28 27 19 18 18 14 14 13 13 11 9
12 12 13 13 14 13 13 10 9 7 6 8 11 9 7 6 13 20 19 16 14 12 13 15 18 20 26 28 25 23 22 21 21 19 20 25 30 33 33 34 31 29 28 24 24 22 15 14 14 13 12 11 9 8
12 11 11 12 13 14 13 12 10 9 9 9 11 13 14 16 18 20 19 15 13 12 10 12 14 17 22 25 24 25 24 23 22 24 27 30 37 41 41 37 35 31 27 23 19 17 16 15 14 13 11 9 8 7
11 8 10 11 13 15 15 13 11 10 10 10 12 13 15 16 16 17 17 14 11 8 7 7 8 10 12 14 18 21 21 20 22 25 34 42 44 42 37 31 27 24 22 20 17 15 15 13 13 12 10 8 7 8
12 11 13 13 14 13 13 12 12 12 12 13 13 14 15 15 14 15 13 11 8 5 5 6 8 10 12 14 15 18 21 25 25 26 31 30 26 24 27 26 24 22 19 18 18 18 17 15 12 9 8 7 8 9
15 15 12 11 12 12 13 13 13 13 12 13 13 13 13 13 12 12 10 7 5 3 7 9 12 13 16 17 18 21 23 25 26 24 23 25 27 28 27 24 22 19 18 18 16 15 14 11 9 7 7 8 10 11
15 15 15 14 15 13 14 13 13 14 14 14 13 13 12 10 8 7 6 4 1 4 8 11 12 14 16 18 19 21 23 24 24 25 26 25 23 22 21 19 18 17 16 16 15 13 10 7 7 7 8 10 11 12

GFSWCAN_700_spd_030.txt.gz
Wind_Speed
42 43 45 43 36 27 24 22 21 23 19 14 8 5 7 11 17 21 20 19 13 18 12 12 11 9 12 14 14 8 5 12 22 24 13 10 9 7 7 8 4 5 3 4 4 5 4 11 5 5 6 6 2 6
40 42 42 40 37 28 23 21 21 23 21 14 8 7 8 15 13 24 22 17 15 15 10 13 10 13 15 15 10 13 5 14 14 18 14 8 8 6 7 4 4 5 8 4 5 2 4 7 5 5 6 8 7 4
38 41 42 41 38 31 24 20 20 21 21 14 8 9 12 16 17 19 19 12 15 11 9 11 12 12 13 10 11 14 14 14 15 24 16 8 6 8 8 9 10 8 9 10 6 3 3 1 4 6 6 8 9 8
37 40 41 40 39 33 25 22 21 21 18 13 8 12 15 21 19 18 17 15 14 12 7 7 8 8 9 10 13 17 15 17 25 18 24 22 15 10 13 14 15 11 9 4 7 4 3 4 3 4 5 6 7 6
35 38 39 39 40 37 29 23 21 19 16 13 10 13 15 22 26 20 16 10 13 10 5 6 8 8 8 7 9 7 14 15 22 21 26 24 22 18 15 18 20 11 10 8 5 7 4 3 6 2 1 3 3 6
34 36 38 39 40 38 33 25 20 19 16 13 12 14 16 21 24 24 16 15 12 16 12 3 4 8 7 8 8 2 5 8 17 12 13 22 13 12 9 12 12 10 10 11 10 8 5 9 10 5 2 2 2 4
33 34 36 38 40 38 34 27 20 17 15 11 12 16 19 23 22 26 17 14 13 11 8 6 6 4 4 7 6 4 6 7 11 12 14 13 19 14 20 26 13 15 13 14 12 10 9 11 10 5 4 4 5 6
32 33 34 37 38 37 33 27 20 16 11 7 11 17 21 25 21 22 14 8 13 15 10 4 6 5 2 4 4 4 6 9 10 10 10 13 14 20 19 14 11 14 9 7 10 11 8 8 10 10 5 4 4 8
30 32 33 35 37 36 32 25 19 17 12 3 9 14 19 26 22 18 12 6 10 11 8 9 9 3 2 4 5 3 3 4 5 11 12 10 18 16 6 7 7 13 9 8 9 12 11 8 5 5 9 11 10 10
28 31 32 33 36 36 32 23 19 17 11 5 11 14 14 28 22 18 8 10 12 17 15 12 10 9 4 2 2 1 4 3 3 7 8 14 23 12 11 8 8 8 11 9 8 13 10 8 9 8 10 12 12 10
26 29 31 32 34 35 33 24 17 16 12 7 12 13 17 25 21 19 9 12 13 10 12 20 17 11 10 4 3 3 2 4 3 4 5 6 14 11 17 14 9 8 12 13 13 11 10 8 4 9 11 13 13 12
24 27 29 30 31 33 34 26 15 14 11 6 13 17 21 22 10 9 7 8 8 12 7 13 14 14 7 8 5 4 5 4 4 4 5 5 6 9 13 17 19 17 14 13 12 11 10 10 11 12 12 12 14 14
22 24 26 28 30 30 32 28 13 11 7 5 19 11 17 12 7 8 11 8 9 2 7 7 12 20 12 7 4 5 4 6 4 4 4 3 4 3 6 17 21 23 23 21 18 16 15 12 14 15 14 14 14 13
21 23 25 27 28 28 29 29 15 8 5 7 14 6 7 8 8 7 9 11 12 12 2 9 10 14 20 12 7 4 6 5 4 5 4 5 7 9 9 11 11 12 15 20 21 20 18 15 16 18 17 14 15 12
21 21 23 25 27 28 27 27 20 5 3 4 8 5 7 7 8 7 11 14 18 18 14 11 13 14 8 7 6 7 5 6 7 4 3 4 5 5 7 11 12 14 16 17 19 20 17 17 17 18 18 17 15 13
20 19 21 23 25 26 27 25 21 6 6 5 9 7 6 6 10 11 9 15 14 20 17 16 10 9 10 7 8 10 6 6 3 3 1 7 8 5 5 7 8 10 13 14 16 17 17 18 19 17 10 16 15 14
20 18 20 22 23 25 26 25 20 7 5 7 10 16 16 11 7 7 15 16 20 22 26 19 13 12 9 10 14 15 21 16 12 7 8 9 11 9 8 7 7 9 11 14 18 20 21 21 22 17 13 17 15 16
20 19 20 22 23 23 23 23 17 6 7 12 13 14 16 20 18 14 14 16 18 27 34 24 19 20 14 17 20 16 12 16 20 15 13 12 12 11 9 8 9 11 13 17 20 22 21 19 13 16 16 17 17 14
20 19 20 22 22 23 23 19 20 10 12 12 14 16 17 17 19 21 22 18 19 29 38 37 19 26 32 23 19 18 17 16 12 11 12 13 12 11 9 9 11 14 18 20 20 20 20 18 16 17 19 17 14 12
20 19 20 21 23 21 18 12 20 11 11 14 15 16 17 18 17 20 27 29 20 25 35 42 41 27 15 23 27 21 19 19 18 18 14 15 16 14 11 10 14 18 20 20 23 21 21 22 23 21 20 17 14 12
20 19 19 21 21 18 16 14 15 10 14 14 16 18 19 18 17 18 22 29 27 26 33 41 48 45 29 18 14 16 16 16 18 15 14 14 13 15 13 13 19 22 21 23 22 26 21 20 23 22 19 17 14 11
20 20 20 21 21 21 20 15 10 14 18 17 16 16 18 17 17 17 19 21 25 29 33 40 41 38 41 41 38 30 29 18 13 13 11 9 11 14 14 17 23 26 24 22 21 20 19 23 22 20 18 16 13 10
20 21 22 22 19 11 10 9 12 15 15 15 18 17 15 15 15 15 15 15 16 23 30 34 40 38 35 33 37 39 35 27 23 19 14 14 12 14 16 18 24 25 23 25 24 22 24 25 23 20 19 16 13 8
22 21 19 8 7 7 10 13 13 14 16 15 16 16 17 17 17 18 21 21 19 20 23 28 33 34 37 36 34 29 30 31 24 21 21 19 15 14 15 21 28 26 27 26 26 27 26 23 21 21 18 16 11 5
19 14 8 9 10 10 11 12 13 14 13 14 17 14 10 11 15 19 21 20 18 20 21 23 23 26 31 31 34 38 39 33 30 27 27 24 22 21 20 23 33 36 34 31 30 30 27 24 23 21 18 13 10 10
9 8 9 8 10 11 11 10 10 12 14 14 9 10 13 16 13 9 11 12 14 17 19 20 20 21 25 29 31 32 32 30 28 29 27 25 24 23 26 29 39 41 39 35 32 30 26 25 24 22 18 16 12 11
12 13 16 18 19 17 15 16 14 13 12 8 8 11 9 5 6 7 15 20 21 20 19 19 18 21 22 26 28 30 32 32 32 31 29 29 27 24 27 32 43 41 41 38 33 28 26 25 25 21 17 12 11 10
16 16 15 13 14 16 18 17 14 10 6 6 8 7 5 7 17 22 24 24 23 23 21 18 18 18 21 23 27 29 29 29 29 27 27 28 26 25 28 31 40 40 34 35 33 32 31 27 25 18 14 14 12 11
15 14 13 14 15 17 17 17 15 13 12 12 12 12 14 16 19 21 21 21 22 22 21 19 16 16 17 20 23 27 28 27 24 24 25 27 27 28 30 31 34 39 40 38 35 30 26 23 19 18 16 14 12 12
19 17 16 13 13 15 16 13 11 10 12 14 16 16 17 18 20 20 18 18 19 18 18 17 15 14 14 15 18 21 23 23 21 22 24 22 22 24 29 35 39 38 34 30 30 28 22 19 18 17 16 14 14 13
18 17 17 14 15 13 13 13 14 14 15 16 16 17 18 19 18 18 17 16 16 14 13 12 11 10 11 13 16 19 19 20 20 21 22 21 24 30 38 41 38 33 30 24 23 23 21 20 20 18 16 15 14 13
17 17 15 14 13 12 14 14 15 15 15 15 15 16 18 18 17 16 15 15 13 10 8 6 6 6 7 10 14 16 18 18 20 23 23 25 30 35 34 32 29 26 26 26 26 25 23 22 19 16 15 15 14 13
16 17 17 17 17 16 13 13 15 17 17 16 15 16 17 17 14 11 12 12 9 5 3 1 3 4 5 8 12 16 21 23 23 24 24 24 26 29 32 31 28 26 25 24 23 22 20 18 16 16 16 16 14 12

GFSWCAN_700_spd_033.txt.gz
Wind_Speed
33 36 38 39 40 41 39 28 22 20 21 17 8 6 8 11 14 23 15 14 14 8 9 8 7 6 7 9 11 11 8 13 14 18 16 10 7 6 7 7 5 6 6 4 4 5 7 15 9 12 11 9 4 6
32 34 37 38 39 40 39 31 23 21 21 18 8 7 9 16 12 24 18 16 17 8 11 12 10 12 12 11 14 12 7 6 11 15 12 10 7 6 8 4 5 5 8 3 5 6 8 10 9 11 12 13 8 8
31 34 36 37 38 40 40 34 25 23 20 17 10 10 12 18 16 27 23 20 12 5 9 5 8 10 9 10 12 10 10 9 12 20 12 17 6 9 8 7 8 5 6 8 7 5 3 2 4 7 9 12 10 8
30 32 35 36 37 39 40 35 28 22 20 15 10 11 14 21 20 28 21 17 10 10 8 5 5 4 7 10 11 11 15 14 18 17 22 12 10 7 8 9 14 13 11 6 6 5 5 4 1 5 7 10 12 8
29 31 33 35 36 39 40 34 28 23 19 15 10 12 16 21 20 16 20 16 12 10 7 6 5 7 10 7 8 12 10 12 20 20 14 19 24 21 20 22 22 14 10 9 5 6 2 4 3 1 3 3 4 7
27 30 32 34 35 38 38 33 26 23 19 14 9 11 17 23 21 24 18 18 17 16 8 3 2 8 8 6 6 7 2 10 16 20 20 21 20 18 12 18 14 7 8 9 12 9 6 5 8 6 2 1 3 6
26 28 30 32 34 36 37 31 24 22 20 14 7 11 18 20 26 25 16 16 15 12 9 4 4 5 5 5 5 3 1 4 8 15 18 11 16 24 21 29 10 8 8 11 13 12 9 8 10 6 4 5 3 7
24 26 29 31 32 35 36 31 23 22 19 13 3 10 16 17 21 22 19 10 13 11 5 4 5 7 5 2 4 3 3 4 7 11 10 14 15 16 25 15 10 14 17 12 8 12 9 8 12 9 9 7 8 9
22 23 27 29 31 34 35 31 21 22 17 7 6 13 14 18 25 16 10 9 15 14 6 6 6 5 5 2 3 2 2 1 5 11 12 9 15 15 1 5 6 6 9 7 8 13 14 11 6 6 9 10 10 8
21 22 25 27 30 32 34 32 20 20 13 4 11 16 15 21 24 19 13 7 6 12 11 11 8 8 7 5 2 2 3 3 3 5 8 15 24 14 13 8 6 7 8 5 8 16 7 9 8 9 9 11 12 10
19 21 23 24 27 30 33 33 20 18 11 3 12 10 19 21 20 13 7 9 10 5 8 15 15 11 7 6 4 3 3 3 3 4 4 6 6 4 10 12 10 8 9 13 13 15 12 11 8 9 12 15 15 13
17 19 21 21 25 27 30 31 21 16 10 6 14 13 20 17 4 7 4 6 6 7 7 5 10 15 11 7 6 4 4 4 4 4 5 4 4 3 10 15 14 11 12 15 14 11 12 14 13 12 12 14 15 15
16 18 19 19 22 23 27 29 25 12 7 11 16 15 15 9 7 7 8 6 7 1 3 6 6 10 9 7 4 5 4 5 4 4 4 3 4 5 2 11 18 20 17 14 13 13 13 13 13 14 15 16 15 15
16 18 18 18 19 21 23 25 24 11 4 10 9 9 11 5 5 5 10 10 12 8 4 6 5 9 12 7 6 4 6 4 3 4 3 3 4 5 6 4 8 14 20 21 19 17 16 15 13 17 18 15 17 16
15 17 18 18 18 19 20 21 23 14 1 6 7 5 8 7 8 9 10 11 13 15 11 8 11 10 6 6 5 6 4 5 5 2 2 1 3 4 4 4 8 10 12 14 18 19 17 16 14 18 20 18 17 15
14 16 17 18 18 19 19 19 20 15 3 6 8 8 7 7 10 10 11 11 15 16 16 12 9 8 9 7 8 8 4 5 2 2 1 4 7 5 5 4 5 7 10 13 16 18 19 17 17 19 21 20 17 17
15 17 17 17 17 19 18 17 17 10 1 4 7 14 13 10 7 5 7 14 14 18 18 15 11 11 8 9 12 14 22 19 14 10 9 8 9 9 8 8 8 7 8 11 15 18 19 20 22 23 19 13 18 18
15 17 18 17 17 18 19 15 10 5 8 8 9 12 13 14 17 20 20 16 12 14 20 24 23 20 13 17 21 17 12 18 22 19 17 16 14 12 10 9 9 11 10 12 16 19 21 22 22 24 20 14 16 16
16 17 16 16 17 18 19 14 8 8 11 6 7 9 13 16 17 17 20 22 24 20 22 33 26 28 35 24 18 17 16 17 15 15 12 11 10 10 10 8 10 11 13 15 19 21 20 21 21 19 18 17 16 16
17 18 17 15 16 17 14 9 14 8 8 11 13 11 12 13 16 20 20 21 23 24 28 30 39 36 31 28 32 33 23 16 19 18 15 13 12 13 14 10 8 10 14 16 20 23 22 24 22 20 19 20 19 16
18 17 16 16 16 16 15 12 11 9 10 11 14 17 16 15 15 18 21 23 24 26 29 35 35 37 34 27 20 22 25 27 27 25 22 20 18 18 17 14 10 12 16 20 22 24 25 23 22 23 24 23 21 19
18 18 16 16 17 19 20 18 13 9 11 15 16 17 19 17 16 15 18 22 26 27 27 29 32 37 36 38 35 24 21 20 17 14 13 14 14 13 11 9 10 15 21 23 23 22 21 24 25 25 25 23 20 18
17 18 17 18 17 11 12 13 11 11 10 14 18 20 17 18 17 16 15 18 20 20 22 24 27 31 35 34 33 35 39 34 31 32 25 14 14 13 11 11 13 18 24 24 25 22 26 26 24 24 23 22 20 17
17 16 15 8 8 8 10 10 12 14 15 16 19 19 17 18 17 17 20 18 18 21 23 26 27 27 27 31 30 32 35 37 40 44 40 28 18 18 16 15 16 21 26 28 27 29 27 26 27 25 23 21 20 18
13 12 8 10 10 10 12 14 13 14 16 17 17 17 12 13 16 21 22 17 17 20 23 25 26 26 25 25 28 33 33 31 34 31 28 27 24 23 21 17 19 24 30 33 31 32 30 30 27 25 24 22 20 17
8 8 9 8 10 11 10 11 11 13 15 16 11 11 13 15 12 8 11 12 14 19 21 22 22 23 24 24 24 28 32 33 31 29 26 27 28 27 25 23 24 28 35 38 39 37 35 32 29 27 26 25 25 22
12 12 15 18 18 16 15 15 16 16 16 15 15 13 10 6 6 6 12 20 26 27 26 24 23 23 22 22 25 26 29 33 35 34 33 33 33 32 30 29 29 31 37 43 44 35 34 32 29 28 28 28 24 21
17 21 18 15 16 16 19 19 20 20 15 14 13 9 6 6 14 20 22 24 24 23 23 23 24 24 23 22 21 24 27 30 32 37 37 36 33 30 30 30 31 31 35 44 40 37 35 31 28 30 28 24 21 17
17 14 13 13 15 17 18 19 20 21 20 18 17 16 19 18 19 23 24 25 24 22 22 23 23 22 22 22 20 20 24 26 28 31 34 33 33 31 31 33 34 33 36 43 39 37 33 31 32 27 26 24 19 15
18 17 16 17 18 17 17 17 17 13 13 15 17 19 19 19 19 22 23 23 23 23 24 23 20 19 20 21 19 18 20 23 25 27 29 28 26 26 28 32 32 34 39 41 40 40 39 34 31 31 27 21 18 16
18 17 18 18 17 15 14 15 16 16 18 18 19 18 18 19 19 19 20 20 21 23 23 20 17 16 16 16 16 16 17 19 24 26 26 25 27 25 24 25 29 33 37 37 34 33 31 30 28 25 22 20 18 16
15 17 16 15 14 14 15 15 16 18 18 19 18 17 17 19 21 21 17 17 21 21 18 15 12 11 12 12 11 11 12 15 20 23 23 25 26 26 28 32 35 36 33 31 30 30 29 27 25 24 22 19 18 16
13 13 14 15 16 16 14 14 15 17 18 18 17 16 17 20 21 16 13 14 17 16 12 9 8 7 8 6 4 4 9 12 16 18 22 24 25 27 31 33 32 32 33 33 31 31 28 27 26 25 22 19 16 15

GFSWCAN_700_spd_036.txt.gz
Wind_Speed
25 26 29 32 35 38 42 41 37 30 22 14 8 9 14 13 15 18 15 14 12 8 13 11 9 6 6 7 8 7 9 10 12 15 11 10 9 8 7 8 6 6 5 8 7 7 6 13 13 13 14 12 2 11
24 24 27 31 34 37 41 41 36 30 23 15 8 11 15 18 23 23 17 15 15 7 10 11 8 6 9 8 9 10 11 8 6 10 13 10 9 7 10 4 6 6 10 4 7 6 12 11 8 11 14 12 5 12
22 23 26 30 32 36 40 41 36 29 24 16 9 12 17 18 24 30 23 18 15 9 10 9 9 8 7 9 8 12 13 15 12 16 8 11 8 11 8 10 9 7 7 10 12 6 9 6 6 8 12 11 8 6
22 21 25 29 31 35 38 40 35 27 24 18 11 10 17 19 21 31 25 17 12 6 5 6 5 6 8 7 9 11 13 10 10 15 20 11 17 9 12 13 12 12 12 9 10 8 7 4 2 4 9 11 11 9
20 21 24 27 30 33 37 38 33 25 23 19 11 8 16 19 22 29 24 18 13 8 5 9 7 5 5 10 11 7 12 17 17 16 19 24 14 14 14 20 26 16 16 16 8 7 5 4 4 4 7 6 5 8
18 20 23 25 29 32 35 36 30 24 23 20 11 7 16 19 23 21 23 18 16 11 5 2 4 7 10 10 8 9 7 9 13 16 14 18 13 13 11 16 14 8 10 12 11 11 9 5 6 6 5 2 1 3
16 18 21 23 27 31 34 35 29 24 24 17 7 6 17 19 21 21 19 20 19 16 9 4 3 4 7 7 7 6 2 6 9 14 21 20 17 19 25 28 8 9 7 10 9 11 12 9 8 7 6 6 5 6
16 17 19 22 25 29 32 33 27 25 23 12 2 11 18 19 29 17 13 14 15 13 6 4 4 3 6 4 3 4 4 5 7 12 13 15 20 14 18 8 9 14 19 20 16 14 13 13 12 11 10 10 5 8
15 16 17 19 22 27 30 31 25 23 17 8 10 16 18 19 26 16 13 12 14 10 5 6 5 2 4 5 2 4 5 5 5 8 14 10 17 15 3 7 8 7 9 12 12 11 15 15 13 13 13 13 14 13
15 14 15 17 20 24 28 29 24 20 12 7 14 16 17 20 23 17 9 9 15 14 14 11 6 4 6 6 4 3 4 4 4 6 7 16 25 19 19 14 8 7 8 9 9 11 12 13 13 8 9 10 11 8
14 13 14 15 17 21 25 27 24 17 10 6 11 12 19 26 16 7 9 10 8 6 7 12 12 10 5 4 4 4 3 4 3 4 4 6 4 5 9 11 14 11 13 11 11 15 12 9 8 9 10 12 13 13
13 13 13 13 15 18 21 24 23 14 7 6 10 20 18 15 7 5 7 7 6 8 7 6 10 12 14 8 3 4 5 4 4 5 4 4 2 5 4 10 13 11 10 12 12 12 9 12 12 12 12 14 16 15
14 12 12 11 12 15 17 19 21 11 4 6 12 18 13 6 6 6 8 7 6 5 2 5 4 6 10 5 4 4 4 5 5 4 4 2 4 5 2 10 15 13 10 14 14 12 11 13 13 13 14 17 17 16
15 11 11 11 10 12 14 15 17 11 5 11 4 9 10 6 7 7 9 11 9 6 3 2 5 7 6 5 5 3 5 5 4 4 1 3 5 6 3 2 7 16 18 15 14 14 14 13 14 15 17 16 16 15
15 12 11 11 9 10 12 12 13 13 4 9 7 6 10 9 8 9 9 13 14 13 12 5 8 8 5 5 4 6 4 4 4 3 4 4 4 6 5 2 5 8 12 18 20 18 16 15 16 17 20 21 20 20
15 13 13 11 9 9 11 12 11 12 5 8 9 8 9 11 12 12 14 13 14 14 13 9 7 6 9 6 7 8 4 6 3 3 2 5 7 7 6 6 5 6 10 14 17 19 18 18 19 18 21 23 22 21
15 14 14 12 10 10 9 11 10 7 3 4 6 10 14 11 10 11 13 17 18 17 15 11 9 10 8 10 12 12 17 16 13 10 7 9 11 13 11 9 8 8 8 11 15 18 19 19 20 21 24 25 25 22
16 15 15 11 10 10 11 11 9 4 6 9 9 8 12 16 19 20 17 15 14 15 16 22 21 14 12 14 17 17 16 14 17 19 20 18 15 15 13 11 10 10 10 11 14 18 20 22 22 23 26 26 21 18
17 16 15 12 10 10 11 10 5 6 8 8 6 6 7 10 15 19 21 22 24 24 22 20 17 27 30 25 17 17 17 18 20 20 15 12 11 12 10 8 9 10 11 12 15 19 20 21 23 26 27 23 19 17
19 18 17 13 10 10 8 6 10 9 8 9 10 9 8 10 13 15 17 21 24 25 26 30 35 31 25 19 27 35 36 32 25 20 17 17 17 16 12 10 10 12 12 12 15 19 21 24 26 29 26 21 19 18
22 22 17 13 11 10 9 9 7 9 11 12 11 12 12 12 14 16 18 19 23 29 33 33 33 35 36 36 36 33 27 31 33 36 33 27 22 20 20 19 17 17 16 14 17 23 25 24 23 24 24 20 23 23
23 21 17 14 12 13 14 16 14 15 14 16 14 13 15 16 16 16 18 19 23 23 25 27 30 32 32 34 36 35 34 34 31 29 28 29 27 26 26 23 22 20 19 18 21 25 25 25 27 25 22 26 27 24
20 19 16 13 11 9 12 15 15 15 12 11 13 16 15 17 16 16 16 17 19 18 20 23 26 29 31 31 32 35 37 40 40 35 27 23 22 21 19 19 21 20 20 21 25 28 26 26 30 29 29 29 26 24
18 17 13 7 10 11 13 12 12 12 14 15 16 17 18 18 18 18 19 19 18 19 21 24 25 27 28 30 31 30 32 37 41 40 37 34 29 25 21 16 19 21 21 23 28 29 30 29 28 32 33 29 25 24
14 11 9 12 12 12 15 16 16 16 17 16 17 17 15 14 17 21 22 16 14 15 17 19 21 24 25 25 25 27 30 32 36 39 37 38 39 36 33 31 25 22 23 26 33 35 35 30 32 34 29 27 26 25
12 11 11 11 13 13 11 12 12 15 15 15 12 12 14 17 15 10 16 13 14 19 23 27 29 27 25 26 25 24 25 31 32 36 35 33 35 39 38 37 31 26 24 27 32 38 36 34 37 32 31 30 29 26
14 11 13 17 15 13 14 16 16 16 15 13 18 17 13 7 7 9 9 18 23 25 27 28 27 26 25 26 25 25 24 26 31 32 35 35 34 35 38 40 36 30 26 27 31 39 39 41 38 35 34 32 29 28
18 18 18 17 18 18 21 22 21 21 17 16 16 12 8 6 10 20 23 24 25 26 27 27 28 25 24 25 24 23 23 25 26 30 32 35 34 33 33 34 34 32 31 31 33 39 44 42 38 35 33 31 30 31
22 21 19 20 17 18 21 22 21 20 20 20 20 20 23 21 20 21 23 24 25 27 28 26 28 29 27 25 23 21 21 22 24 26 28 31 33 35 33 33 36 34 33 35 32 38 43 40 37 34 31 32 29 21
25 22 20 18 19 20 20 18 17 17 18 18 18 19 20 19 19 20 22 23 26 27 27 27 27 28 25 22 20 19 19 19 22 23 25 28 28 31 32 33 32 32 34 34 35 41 43 41 40 38 37 30 24 24
18 16 18 20 22 18 16 16 17 18 19 18 19 21 21 21 19 19 20 23 25 25 25 27 26 23 20 18 17 15 16 17 19 20 22 25 26 27 29 30 29 29 32 35 39 42 43 45 41 35 30 28 27 23
19 19 17 17 15 13 15 16 17 18 17 18 19 20 21 20 20 20 19 21 21 20 23 22 19 18 17 16 15 13 12 13 14 16 19 22 24 24 26 29 28 29 33 40 42 43 40 32 30 31 30 29 26 22
17 16 15 14 13 13 13 13 14 17 18 19 20 20 19 18 18 17 15 16 14 18 19 18 15 13 14 14 12 10 8 7 8 11 14 17 21 23 27 29 29 33 39 40 38 35 32 30 31 30 29 27 23 21

GFSWCAN_700_spd_039.txt.gz
Wind_Speed
21 19 21 23 26 29 30 33 36 34 28 17 11 15 19 17 15 13 11 7 9 7 9 9 12 8 7 9 10 4 5 10 9 12 9 9 8 5 5 4 5 8 6 7 9 7 8 10 16 14 19 15 9 1
20 18 20 23 25 28 30 32 35 32 26 19 12 13 22 22 22 19 15 14 10 12 10 11 10 8 9 9 9 10 9 7 6 8 12 8 7 5 7 4 8 7 10 4 8 7 11 14 12 12 17 12 4 2
19 17 19 22 23 27 29 31 34 32 22 18 14 12 19 24 24 26 22 20 16 8 9 12 11 9 8 12 12 11 12 10 13 9 9 11 8 10 7 11 9 9 12 12 9 3 11 11 8 7 9 11 6 6
18 17 18 20 23 26 28 30 33 30 21 18 15 12 17 24 26 28 25 18 17 9 6 9 8 7 9 10 10 12 13 16 11 11 18 9 9 9 9 13 12 9 12 9 15 13 9 5 5 5 6 7 7 2
16 16 16 19 21 25 27 30 33 29 21 19 16 11 14 24 25 29 29 23 14 8 5 8 6 6 7 9 12 15 11 12 12 14 15 21 19 15 16 18 22 19 15 14 8 13 9 7 5 1 4 8 3 1
16 15 15 18 20 24 27 30 33 28 24 21 15 9 13 22 24 27 27 23 19 12 3 3 7 9 9 10 13 10 9 12 18 17 18 20 17 17 9 14 19 12 12 14 17 16 14 11 7 6 4 6 1 3
15 13 15 17 19 22 26 29 32 27 25 19 10 6 14 21 21 24 27 22 17 10 6 4 4 5 6 8 7 7 7 7 11 14 17 11 14 18 22 25 12 16 12 11 12 13 12 13 10 9 5 5 4 6
14 12 14 16 17 20 24 28 30 24 19 13 4 9 18 19 19 18 22 16 18 9 8 5 5 5 5 6 3 4 7 8 8 12 11 17 21 21 20 8 7 13 19 21 20 18 15 13 14 10 8 8 7 3
13 12 12 13 14 17 22 26 26 20 13 9 11 17 20 24 22 18 12 11 19 11 5 6 5 3 2 5 4 5 7 8 6 9 14 10 17 17 6 6 7 9 11 12 17 20 17 15 13 11 16 11 10 9
14 12 12 11 12 15 19 23 23 15 7 11 15 18 18 27 18 15 10 7 12 12 12 11 6 6 6 6 4 5 4 5 5 5 7 14 25 19 16 17 13 9 8 8 7 7 9 10 7 7 10 13 12 8
16 10 12 10 9 12 15 19 21 11 6 10 13 17 21 23 15 9 6 6 8 6 9 13 11 12 8 4 5 4 4 4 3 3 3 5 4 4 8 12 15 20 10 9 8 8 7 10 14 8 8 7 9 10
15 10 12 10 8 10 12 15 18 8 4 11 11 20 25 21 7 5 7 6 6 5 6 6 6 9 12 9 5 5 4 4 4 4 4 4 4 9 10 6 10 11 11 13 10 8 12 10 9 10 11 10 11 12
15 12 12 8 8 7 8 11 13 7 4 11 18 17 13 9 7 6 8 5 6 6 5 6 4 3 7 7 5 5 4 4 7 4 3 3 7 10 7 5 8 11 11 11 11 11 10 10 9 10 11 13 15 14
16 13 12 9 8 7 5 8 8 7 5 10 11 10 11 7 7 8 9 12 8 6 3 1 4 4 4 5 5 5 5 5 4 3 3 7 9 9 7 3 6 15 14 12 14 14 13 12 12 13 14 15 16 16
16 13 11 11 9 9 5 6 7 6 5 8 8 7 12 10 8 9 10 11 12 10 8 4 3 5 5 5 5 6 4 5 4 1 3 4 7 8 9 8 4 4 11 17 16 15 16 15 14 15 16 18 19 18
16 15 12 13 11 9 7 4 7 7 5 11 10 10 10 12 13 12 13 12 12 13 12 9 7 5 8 6 6 7 5 4 3 2 2 2 4 7 8 9 8 6 6 10 15 19 19 17 17 17 18 20 21 20
16 16 14 14 12 9 9 6 8 8 5 6 7 12 15 13 11 15 16 17 17 16 13 8 7 9 8 9 11 10 11 9 7 9 9 9 10 11 13 11 9 8 9 10 12 16 19 20 19 19 20 21 23 24
17 19 15 15 13 11 11 8 9 7 8 10 9 9 11 12 16 16 15 16 18 18 18 19 18 15 10 13 19 19 19 20 20 16 16 18 19 21 19 17 14 12 11 12 12 14 17 20 21 20 21 23 26 28
20 21 15 16 15 12 9 10 11 7 10 11 10 8 7 9 11 15 19 22 23 23 22 23 16 20 27 30 21 18 20 23 23 21 18 18 19 17 17 16 15 14 14 13 14 14 17 21 19 21 24 26 28 27
19 22 16 17 16 12 9 8 11 10 9 9 11 11 10 9 10 12 14 16 17 23 28 32 37 35 29 23 22 26 31 33 32 29 28 27 26 21 19 20 19 16 14 14 13 14 17 18 23 25 27 28 28 23
21 23 20 18 18 14 12 10 11 9 10 12 13 14 13 12 13 14 16 18 20 23 25 27 28 32 37 38 39 41 41 40 40 35 30 33 35 33 25 22 22 21 19 19 19 17 18 22 23 24 28 29 26 25
22 25 24 23 20 17 16 17 16 16 16 17 15 14 15 15 16 16 18 20 22 21 22 22 24 27 29 32 35 39 40 40 41 43 42 39 34 32 33 33 32 29 29 27 25 22 21 23 25 26 25 26 27 25
23 25 25 24 20 13 14 17 18 19 15 13 12 14 14 15 17 17 17 17 17 19 21 22 23 25 26 28 30 32 35 37 37 38 38 41 39 35 36 35 34 34 36 34 29 24 25 27 26 28 28 27 28 27
22 23 23 15 16 13 15 15 15 15 15 17 15 15 16 17 18 21 23 20 17 20 20 20 20 21 22 24 26 28 30 32 33 34 35 37 41 40 39 37 34 33 32 30 30 25 28 32 32 29 29 32 28 27
21 15 12 14 15 16 19 20 18 17 17 15 15 15 13 16 19 23 27 19 13 14 15 16 20 23 26 27 29 29 30 30 30 29 30 36 38 39 41 42 35 31 30 29 28 27 30 34 37 33 34 35 31 29
15 13 12 12 17 16 14 12 13 15 16 16 12 12 13 15 16 11 17 15 13 12 18 23 24 27 29 30 29 30 30 32 32 30 27 33 35 37 37 41 43 41 33 27 27 27 29 36 40 36 36 35 35 31
17 10 18 21 17 15 15 14 13 14 12 11 16 15 14 7 7 7 7 10 18 22 24 25 27 30 32 31 29 29 30 31 32 31 28 30 31 34 34 37 40 40 41 37 33 31 31 33 39 41 39 38 34 31
17 17 21 18 18 18 18 18 17 17 16 19 20 15 8 6 10 14 21 23 23 23 25 27 29 32 33 31 29 28 29 31 31 30 28 28 28 30 31 34 36 36 35 39 39 36 35 36 38 41 39 36 34 31
25 22 19 18 18 19 22 23 22 21 21 20 20 20 23 22 20 21 21 22 22 24 26 29 32 34 32 30 30 31 29 29 29 28 28 26 25 26 28 30 32 31 31 38 40 39 36 33 34 39 40 37 35 34
23 20 19 18 19 19 21 19 16 16 17 19 20 22 22 19 18 20 21 21 22 25 28 31 33 30 29 31 29 27 28 27 26 25 25 24 23 23 25 27 28 28 28 33 35 35 34 37 43 46 43 40 37 36
24 23 23 21 21 18 17 18 19 21 22 21 21 22 21 20 19 19 20 19 21 25 28 28 27 29 28 27 26 25 22 25 27 24 23 21 20 20 23 24 26 26 27 28 29 31 35 40 44 44 41 39 36 27
20 19 19 18 17 15 17 19 20 21 19 20 20 20 20 22 22 21 13 15 18 21 22 22 24 24 25 24 25 25 23 21 22 21 20 18 17 18 20 21 24 25 27 26 26 29 36 40 42 41 39 35 31 27
16 17 17 19 18 16 14 15 16 17 17 17 17 19 21 23 22 16 11 13 15 18 17 19 20 20 21 22 21 21 20 18 16 15 14 13 15 16 19 20 23 24 25 25 26 32 38 39 38 37 36 34 30 26

GFSWCAN_700_spd_042.txt.gz
Wind_Speed
19 20 19 18 17 20 23 24 29 30 32 29 19 14 14 16 16 13 9 6 12 3 5 11 13 10 10 8 8 3 5 6 5 3 4 4 5 5 5 6 6 14 11 8 11 7 8 10 17 17 21 21 18 6
18 19 18 17 17 19 23 25 28 30 31 27 21 17 14 17 20 18 15 10 9 10 10 13 15 11 9 10 11 8 5 2 2 3 6 6 8 7 7 4 12 8 8 5 8 3 9 11 17 17 17 15 9 3
18 18 18 16 16 19 23 25 29 31 31 25 21 19 15 15 22 20 18 19 12 11 11 12 9 8 8 9 9 11 11 10 11 8 11 9 10 7 10 12 11 9 11 12 6 3 7 13 10 9 11 12 8 3
16 17 16 15 15 18 23 25 29 32 31 22 21 20 16 13 22 22 24 20 15 12 7 10 12 9 9 9 10 10 11 11 14 15 14 14 13 10 13 14 12 13 10 8 12 11 7 8 9 5 6 11 8 5
14 16 14 15 14 17 23 26 29 32 30 24 22 20 14 11 21 22 26 21 13 9 7 8 8 6 6 7 9 9 13 17 13 12 14 15 19 16 14 19 22 19 19 16 11 8 11 12 9 5 4 7 9 7
15 14 14 14 13 16 22 25 29 32 28 26 20 13 8 11 22 23 24 23 16 10 5 6 5 6 7 8 9 14 15 13 15 17 20 20 16 15 10 13 18 14 12 15 16 20 18 16 14 10 8 7 5 5
14 13 14 12 11 15 20 24 29 29 26 20 13 3 6 18 21 22 21 23 18 13 4 2 2 4 5 7 8 9 9 6 8 14 18 20 15 19 25 28 15 8 12 12 14 14 15 12 11 11 9 7 6 5
14 12 13 11 9 13 17 22 27 23 20 14 10 10 18 21 18 17 17 17 15 8 3 3 3 3 3 3 3 4 7 8 10 12 11 8 18 11 15 8 7 12 16 18 17 18 17 15 12 12 10 8 8 9
13 12 12 9 8 12 15 18 23 18 12 11 13 17 23 21 14 13 16 13 14 11 3 4 1 1 2 5 7 6 6 9 7 8 12 10 14 14 6 7 11 8 8 8 12 15 18 18 18 15 12 14 13 7
14 13 11 7 7 9 12 14 18 12 7 9 13 18 24 21 19 15 9 7 15 16 11 10 5 4 5 5 3 7 5 6 5 5 7 12 19 14 17 16 14 11 8 8 9 8 8 8 7 8 12 11 9 8
20 15 11 7 6 8 10 11 14 8 4 7 10 14 23 20 15 8 7 6 8 6 8 9 10 11 9 5 4 4 4 4 4 4 4 3 5 10 8 9 13 17 22 17 8 6 6 8 9 6 5 3 3 5
19 16 13 8 7 7 8 9 10 6 5 8 6 16 21 12 4 5 6 7 6 6 6 4 3 6 7 7 4 4 4 4 4 4 3 2 7 10 13 9 4 4 5 12 11 5 8 8 13 11 6 4 3 6
20 18 15 10 9 7 7 6 7 5 5 9 11 17 11 10 8 6 8 6 7 6 5 3 4 1 3 6 3 4 4 4 7 3 2 2 9 12 10 6 1 0 1 3 3 7 4 4 6 6 8 8 9 10
22 19 16 12 10 8 7 6 4 3 7 12 8 12 10 7 9 12 13 12 11 6 3 4 4 3 2 2 3 4 5 5 3 2 2 4 7 10 12 8 4 7 7 5 6 6 8 9 9 9 10 11 13 13
16 18 16 13 12 10 8 9 4 3 6 9 8 8 14 11 8 10 13 13 11 10 7 3 2 3 1 4 4 5 4 4 2 1 1 3 4 8 10 11 10 4 6 15 16 15 16 16 15 14 14 15 15 15
16 17 17 13 14 11 10 9 8 6 8 11 11 10 10 13 17 14 13 12 10 11 11 9 6 5 7 5 6 6 3 2 1 1 2 3 4 6 8 10 10 9 7 5 9 16 17 17 17 16 16 16 17 18
15 17 16 16 13 12 11 10 11 10 6 8 11 16 16 13 11 14 17 17 15 13 12 7 7 8 6 7 9 9 12 9 6 6 9 12 13 14 16 17 14 12 11 11 10 11 14 16 17 17 16 17 18 20
13 16 13 19 13 13 12 11 12 8 9 12 13 11 13 13 14 16 16 17 18 18 16 17 14 15 9 9 15 14 15 17 19 18 18 18 16 15 14 15 15 14 15 14 14 14 13 15 18 18 18 18 19 22
17 18 12 18 15 13 13 12 12 10 12 13 13 13 11 11 12 13 15 17 19 19 19 20 13 18 25 28 26 23 22 24 25 24 23 22 21 19 17 16 17 16 15 16 16 16 15 15 16 18 18 20 22 23
17 18 17 17 17 15 14 11 12 12 12 12 14 16 15 12 11 11 11 13 15 19 24 30 33 33 32 30 30 29 29 31 34 35 32 30 30 28 26 26 24 22 20 18 17 16 14 14 15 18 20 22 23 26
19 18 18 19 22 20 19 11 11 11 13 15 13 13 15 16 16 14 14 14 17 21 20 20 21 23 26 30 33 36 38 40 43 46 43 35 35 41 36 33 36 33 28 23 21 19 18 17 16 19 19 22 26 28
20 21 19 21 22 23 22 21 17 16 18 17 15 15 17 18 18 17 19 21 22 19 18 19 20 22 23 24 26 28 30 31 32 34 36 40 43 45 46 40 36 31 34 32 30 25 22 23 21 20 22 25 28 31
19 19 19 22 24 19 17 21 23 23 21 21 20 18 21 21 21 19 20 20 16 16 20 21 20 20 21 23 24 26 28 30 30 30 31 32 32 34 38 41 41 39 35 33 34 33 30 29 27 26 25 26 29 31
19 17 17 11 13 13 17 18 20 21 22 20 24 18 16 17 17 21 25 24 16 18 20 20 19 18 19 20 21 23 27 29 29 29 31 32 31 29 32 33 36 36 38 37 36 37 35 31 31 29 28 30 29 28
20 14 12 15 14 16 21 21 21 19 17 17 18 19 14 14 17 23 28 24 15 15 13 14 15 16 20 22 24 25 28 30 31 30 30 33 34 32 30 30 32 33 34 37 35 36 36 33 31 32 32 32 29 30
19 13 11 10 17 18 16 18 22 23 19 19 16 17 17 16 17 12 20 16 12 11 10 14 18 21 22 24 25 27 31 34 35 33 30 32 32 34 32 31 29 28 31 34 35 35 34 35 32 34 35 37 36 30
23 11 16 21 17 17 20 22 18 12 13 12 17 17 14 9 9 10 7 10 11 16 19 20 21 22 22 24 28 33 36 36 35 33 32 31 29 30 32 32 28 26 30 31 34 38 33 33 35 36 36 35 36 34
22 21 22 14 21 24 19 14 13 13 16 19 21 16 9 7 6 14 19 20 22 22 20 21 23 23 24 28 33 36 33 32 31 32 32 30 29 28 29 31 28 26 27 28 33 33 34 33 38 37 36 33 35 37
28 24 21 21 22 20 19 21 22 24 24 22 21 19 22 23 22 23 24 24 23 22 22 23 24 24 27 33 33 32 33 34 34 30 28 27 25 26 29 28 27 26 27 27 30 31 33 33 38 38 34 32 35 40
26 25 26 25 23 21 21 21 21 20 19 20 21 22 23 21 21 23 24 22 22 22 22 22 23 24 30 31 29 30 32 32 35 33 32 28 24 25 27 27 26 25 25 26 27 28 29 32 36 36 33 37 41 39
29 30 28 24 22 21 21 21 21 20 21 22 23 24 23 23 21 20 21 21 21 21 20 20 23 27 28 29 30 29 28 30 31 32 32 30 25 24 25 25 24 23 23 24 25 25 25 28 28 31 38 41 42 44
28 27 25 24 24 23 20 20 20 22 22 23 23 22 22 23 22 20 16 17 17 15 16 18 22 24 25 27 28 29 29 29 30 29 27 26 23 21 22 22 21 21 21 22 25 24 23 25 29 38 44 45 45 40
32 28 24 23 22 20 17 16 18 20 19 18 18 18 20 22 19 16 12 11 11 11 13 16 19 21 23 24 25 25 27 29 27 23 20 18 17 17 17 18 18 19 19 22 21 21 23 26 35 41 42 39 34 30

GFSWCAN_700_spd_045.txt.gz
Wind_Speed
30 22 15 18 19 20 19 19 20 23 24 24 26 22 13 14 19 18 15 14 13 9 10 16 11 13 13 13 10 5 5 5 5 5 4 4 4 4 4 7 8 12 11 10 13 7 9 4 12 12 17 19 19 8
27 22 15 16 19 19 20 19 21 24 26 26 26 23 16 12 18 19 16 12 12 11 10 15 17 13 14 12 10 7 4 2 3 3 2 3 5 5 5 4 12 9 11 4 9 3 5 8 11 10 12 14 14 8
21 25 18 14 19 19 19 19 22 25 27 28 25 21 17 13 14 22 23 16 13 12 13 14 16 12 11 10 11 10 8 9 9 7 6 7 8 8 8 10 12 11 10 11 8 0 5 8 8 10 9 9 13 11
23 28 18 13 18 18 18 19 23 26 29 29 24 22 19 14 12 24 26 21 17 13 9 14 12 12 9 10 10 12 11 11 12 10 13 13 13 9 11 14 14 8 14 12 17 10 11 7 7 8 7 8 12 10
29 28 19 12 17 17 16 19 23 27 30 28 25 20 14 11 14 25 27 22 15 13 10 10 10 9 7 6 8 9 11 12 14 14 15 12 17 18 17 16 20 18 18 17 17 15 14 12 10 10 9 10 9 9
22 23 17 11 15 15 15 18 22 27 30 27 21 14 9 11 21 27 25 20 19 10 6 8 7 7 8 7 8 8 11 17 14 14 16 18 15 13 10 11 12 7 10 14 14 16 17 18 17 14 12 10 10 8
20 22 13 11 13 13 14 16 21 26 25 19 13 3 7 17 27 29 26 25 17 13 6 4 3 5 6 6 8 9 9 8 8 10 14 17 14 13 20 26 17 10 12 18 17 15 15 14 11 9 10 11 9 7
22 22 12 11 12 13 11 13 18 23 16 12 9 14 20 23 23 20 22 20 16 13 4 3 4 4 3 3 4 3 4 6 9 10 11 7 6 16 7 4 4 8 15 21 23 23 19 15 13 13 11 10 11 9
21 21 14 8 10 11 8 11 15 16 7 7 14 24 25 21 19 16 16 17 16 12 3 4 3 3 2 2 2 3 5 7 7 7 10 9 9 7 4 10 10 13 11 9 10 9 11 15 16 16 14 11 12 14
26 22 16 8 9 10 6 8 11 10 2 7 16 24 20 21 16 15 13 12 12 13 11 7 6 4 4 2 2 4 4 4 5 3 5 11 14 4 12 19 19 15 12 10 9 9 8 7 8 8 7 9 13 13
24 22 17 11 8 9 6 6 7 6 6 8 14 15 22 21 17 9 6 7 8 6 7 11 11 13 10 7 5 4 3 3 3 3 3 1 1 4 6 8 12 15 17 20 21 10 6 7 8 8 8 9 6 5
24 22 18 13 9 10 5 5 5 4 7 10 13 18 18 14 6 5 8 7 6 8 6 7 8 7 8 10 5 4 3 3 3 3 1 0 6 11 13 7 6 4 4 7 12 15 9 9 13 13 12 10 7 5
16 16 17 15 11 9 6 5 3 3 7 11 10 20 11 8 6 6 8 7 9 7 7 8 6 5 5 6 4 4 3 3 3 3 3 2 7 12 9 4 3 4 4 2 10 10 4 4 8 9 7 4 7 4
12 16 16 14 14 10 8 6 3 1 7 10 8 12 8 7 8 11 13 11 11 10 6 5 7 4 4 4 5 3 4 4 3 4 5 2 2 6 10 10 6 5 3 2 1 8 5 1 1 3 2 1 2 7
11 16 18 16 16 13 10 8 7 5 7 8 8 8 13 11 6 7 9 12 14 11 10 8 8 7 7 5 4 5 4 4 4 5 5 1 1 4 8 10 11 9 3 10 10 9 10 11 11 11 11 12 12 12
10 12 15 16 19 13 11 10 9 8 9 11 10 9 10 12 15 14 11 13 14 13 13 11 7 6 9 6 7 6 4 5 7 8 5 3 4 6 9 11 12 12 10 7 5 10 15 15 14 15 14 13 13 13
7 9 15 13 19 16 13 12 10 9 7 8 10 16 18 13 9 14 17 16 14 13 16 8 7 8 6 6 8 8 10 7 9 10 9 7 8 10 12 14 14 14 14 13 11 9 9 12 15 16 15 14 14 15
6 8 14 12 17 21 15 12 10 7 10 14 14 11 9 9 12 15 14 17 16 15 15 16 14 13 9 8 13 11 12 12 13 15 16 15 14 14 14 12 11 10 11 13 14 13 12 11 12 14 16 17 17 18
9 9 10 12 12 20 19 16 12 9 12 14 13 12 12 11 10 10 12 17 18 18 19 21 14 19 24 27 25 23 23 22 22 21 22 24 24 24 23 22 20 19 16 14 14 15 14 14 14 13 15 17 18 18
10 11 11 13 11 15 16 13 15 11 9 11 13 12 13 13 11 10 11 13 16 19 23 27 29 27 27 24 24 26 27 28 30 32 33 34 35 36 34 32 31 29 29 27 23 19 17 16 15 14 15 16 18 19
12 11 12 12 13 14 17 11 12 12 12 13 14 15 13 12 14 13 13 15 17 19 17 18 19 22 25 26 27 28 29 30 32 32 33 33 35 40 41 43 42 39 40 37 34 30 26 22 18 16 16 16 18 21
15 14 14 14 14 16 19 22 18 18 17 17 14 12 13 13 15 17 18 22 24 17 19 19 20 22 23 22 22 23 23 24 25 25 27 27 26 27 30 33 35 39 43 40 37 34 31 31 28 23 17 19 21 20
18 16 14 15 16 12 14 19 22 25 23 22 18 19 20 20 20 20 23 25 22 15 18 20 22 21 21 21 22 22 22 22 23 24 26 28 27 28 26 25 29 31 31 33 39 38 35 32 29 28 26 21 26 26
19 16 16 10 11 11 13 16 19 21 24 24 23 23 21 20 21 20 21 22 18 18 20 21 23 21 21 21 20 22 24 25 26 26 28 30 30 30 31 29 28 28 31 30 32 34 36 36 34 30 28 29 26 30
18 15 13 14 14 15 18 20 20 19 19 19 20 18 14 13 16 21 24 24 23 20 19 18 15 14 16 17 20 25 26 26 26 25 28 33 33 32 31 31 30 29 30 31 30 31 32 35 35 32 29 29 27 27
20 14 12 11 14 17 17 17 19 21 23 22 16 15 16 16 19 12 23 21 19 13 11 11 11 16 19 22 22 24 24 26 27 29 31 33 34 35 34 32 29 25 31 32 30 29 31 32 33 30 30 29 28 28
25 16 18 22 17 15 17 20 20 18 16 17 16 16 12 8 9 13 12 9 10 14 16 19 21 20 20 22 23 23 24 27 31 32 32 31 32 34 36 34 30 28 29 30 30 29 29 30 31 31 29 29 30 31
30 33 30 20 15 20 24 21 18 17 15 16 15 10 7 7 9 10 12 20 24 24 23 21 21 21 22 22 22 23 27 32 33 33 32 28 29 31 34 32 29 29 27 26 27 28 29 29 30 32 31 28 32 31
37 33 28 26 26 25 24 22 24 23 19 16 17 17 19 20 18 21 25 26 26 25 23 22 23 24 23 21 22 26 30 33 34 32 31 29 27 28 33 32 30 28 27 25 26 27 27 28 28 31 32 29 29 25
35 29 28 28 27 26 24 23 20 18 19 20 21 23 24 22 21 23 25 26 26 25 24 23 24 23 20 20 23 28 32 34 34 34 33 32 32 31 30 30 28 26 25 25 25 26 26 27 29 30 31 29 27 26
32 31 28 26 28 27 26 25 23 21 21 22 23 23 22 24 24 24 25 25 26 25 23 23 22 18 18 23 27 29 28 30 32 32 33 34 33 30 28 26 25 23 23 24 24 24 25 26 26 26 26 25 28 37
28 27 26 28 29 26 24 22 22 24 25 25 23 23 24 24 24 22 17 20 22 21 21 17 15 17 20 24 26 27 27 28 28 31 33 33 30 27 23 21 21 20 20 21 21 22 24 23 24 24 24 27 35 41
33 32 29 26 24 22 20 20 21 22 21 21 21 20 21 22 22 21 16 15 13 10 9 10 13 17 20 23 24 24 25 26 29 31 31 28 24 22 19 16 16 16 16 17 18 19 19 20 22 24 26 31 41 43

GFSWCAN_700_spd_048.txt.gz
Wind_Speed
30 28 24 25 23 21 16 18 21 22 20 21 20 20 21 16 16 26 23 19 16 17 15 18 21 19 16 14 9 6 7 7 7 6 4 4 5 6 5 6 5 16 11 9 11 6 9 5 7 7 10 12 16 9
29 26 24 24 23 22 16 18 21 23 22 23 24 23 21 16 15 23 27 24 19 20 13 17 19 16 19 14 12 11 7 2 5 6 4 4 5 5 7 5 11 7 10 3 9 3 5 9 6 8 10 9 12 12
28 24 22 22 25 22 15 19 21 22 23 26 28 26 19 15 14 18 27 22 22 19 10 18 19 16 13 14 12 13 10 9 6 8 6 5 7 8 8 11 11 10 10 12 8 1 2 8 12 8 10 9 10 12
26 23 21 21 22 22 14 20 21 22 24 28 30 26 20 14 14 18 30 26 19 17 12 15 18 15 14 14 13 12 12 11 11 10 10 12 13 11 11 13 13 10 9 10 18 14 12 10 8 9 11 10 9 12
22 22 25 24 21 23 12 19 20 22 25 29 27 21 16 10 13 21 34 25 19 13 13 17 16 14 14 11 11 13 14 14 11 13 15 17 15 13 16 18 18 16 19 17 18 16 17 18 15 14 14 12 11 12
20 20 18 16 21 19 12 16 17 21 25 25 20 16 9 8 16 28 31 23 19 13 11 8 11 13 14 12 10 10 12 13 16 18 16 18 17 11 8 7 6 10 14 18 22 23 21 18 17 16 14 11 11 11
20 16 12 18 21 15 12 13 15 18 21 18 15 6 5 15 27 30 24 29 19 13 9 8 5 11 11 11 11 12 13 15 12 14 14 17 15 13 18 20 9 13 11 15 18 19 19 15 14 13 10 8 10 11
22 19 16 21 21 12 12 10 11 15 11 12 8 8 15 26 29 25 20 25 20 14 6 4 5 6 8 7 9 9 8 7 10 12 12 8 8 16 15 7 9 9 11 15 21 21 20 24 24 16 13 12 10 11
14 14 19 23 20 12 9 8 8 9 6 7 14 22 24 26 24 22 23 19 16 12 4 3 6 4 6 6 3 3 3 6 7 10 10 8 11 10 10 16 16 13 13 13 13 15 13 13 15 18 19 16 14 13
14 13 20 21 18 12 8 7 4 4 7 10 21 20 18 17 18 20 15 17 15 14 13 7 7 7 6 4 3 2 4 6 6 6 5 10 14 13 12 17 19 18 17 16 14 11 9 8 10 11 14 15 15 15
12 14 18 22 17 12 8 7 3 2 10 14 16 9 17 18 17 7 6 9 8 6 9 13 14 11 10 9 7 5 4 4 4 3 3 2 5 3 6 12 12 12 14 17 20 21 13 10 8 8 10 11 14 15
7 8 13 19 16 12 9 7 4 3 14 15 16 18 17 13 6 5 9 7 6 7 7 9 7 8 9 10 8 5 5 4 5 5 3 2 0 7 9 6 5 7 5 8 11 16 21 16 12 12 13 14 12 8
2 5 12 16 13 14 9 8 5 3 15 16 18 17 8 8 8 7 10 8 10 9 8 9 7 6 6 6 5 5 4 5 4 4 3 4 2 9 9 6 6 5 5 4 5 7 14 16 16 16 21 12 12 11
6 6 14 13 12 15 10 9 6 5 13 17 15 18 9 7 9 10 15 14 9 8 8 10 10 7 8 6 6 4 4 5 4 5 6 8 2 2 5 9 9 3 4 4 5 8 5 6 7 5 3 7 10 10
10 11 12 15 12 13 11 10 9 7 10 10 10 9 14 12 8 8 13 15 14 12 10 8 10 10 8 6 5 6 4 5 6 7 11 9 6 3 2 6 8 9 9 4 5 4 4 4 5 6 6 6 8 11
7 7 12 16 15 13 18 10 10 9 11 10 9 8 9 12 15 11 8 11 16 13 12 11 6 5 9 5 6 7 5 6 7 11 12 11 9 7 5 5 7 8 8 7 7 7 10 15 15 14 15 16 15 15
6 7 10 11 12 14 20 12 9 12 9 8 9 11 15 13 9 11 17 15 17 18 16 10 8 8 6 6 7 9 11 9 8 12 14 11 9 8 9 10 11 10 9 9 9 9 9 10 11 14 16 17 16 17
4 4 7 10 11 12 20 17 11 8 11 15 13 11 10 8 12 17 16 16 19 18 17 19 13 14 8 7 11 12 11 9 9 12 14 15 16 16 16 14 14 14 13 12 12 12 12 12 13 13 14 16 18 19
6 6 5 6 9 9 15 19 16 7 11 12 11 10 10 11 12 12 14 16 18 18 18 23 15 19 21 25 23 20 20 19 18 18 20 22 25 26 27 26 25 25 24 23 21 19 18 17 16 16 16 17 18 19
3 4 4 5 7 8 7 9 16 19 13 13 14 10 10 11 12 12 12 14 17 20 23 28 28 25 23 22 23 22 23 24 24 25 27 29 32 34 36 38 38 38 37 35 33 31 28 27 24 20 19 18 19 20
4 6 6 6 7 9 8 7 10 11 14 19 18 18 14 12 12 13 15 15 17 20 18 15 14 16 19 23 24 24 25 25 26 26 26 26 27 28 28 30 31 32 33 35 38 40 40 37 35 30 24 20 20 20
6 9 9 8 9 11 13 15 13 15 15 13 11 13 14 12 10 11 15 19 21 18 18 16 17 19 21 21 21 21 22 22 22 23 22 22 21 22 22 24 25 26 28 30 32 32 34 37 37 33 32 28 25 25
11 12 12 12 11 8 10 13 16 18 17 20 18 18 19 18 20 20 22 20 18 15 14 16 16 18 20 21 21 21 20 20 20 20 22 22 23 24 24 24 25 25 24 27 31 31 30 31 34 36 34 31 30 30
14 15 14 8 9 10 13 12 13 15 18 20 21 20 21 22 22 24 27 27 18 13 11 15 19 20 21 21 22 22 20 20 20 23 26 26 25 24 27 28 28 29 30 27 27 29 30 30 31 34 34 33 31 30
17 14 10 13 13 11 15 17 17 18 18 17 17 17 16 16 16 20 22 18 15 15 16 17 16 17 18 18 17 19 22 24 24 22 24 28 27 27 29 30 30 30 32 33 30 28 28 31 30 31 32 35 32 32
19 13 13 17 18 16 16 15 17 18 20 20 16 17 16 15 16 11 15 14 15 15 11 8 9 11 14 18 20 23 25 26 27 24 21 25 29 33 34 32 28 24 32 35 33 30 28 29 31 29 29 31 33 32
33 23 21 24 23 18 15 16 18 17 13 11 17 19 17 10 8 10 9 9 8 7 9 14 16 17 19 21 21 23 25 27 27 23 23 27 31 34 36 35 30 27 29 29 31 31 29 29 30 29 28 29 30 31
40 38 35 33 26 18 19 19 20 19 16 17 20 15 7 7 6 6 8 10 13 17 20 21 20 20 20 21 22 24 27 26 25 24 26 29 31 32 35 34 33 31 32 31 30 30 29 28 29 29 28 28 30 33
41 39 40 40 32 28 28 27 26 24 22 22 22 18 21 19 17 18 19 21 23 24 25 25 23 22 22 22 24 26 24 24 26 28 31 31 29 29 35 36 37 36 35 33 31 29 27 26 27 27 27 28 29 33
44 41 41 41 36 33 30 29 27 23 22 22 21 21 21 21 21 22 23 23 23 25 27 26 25 24 23 24 23 22 23 27 30 33 34 31 30 31 35 37 38 38 36 32 29 27 27 24 24 25 26 26 27 30
43 42 40 39 37 32 28 27 26 26 25 25 25 24 22 23 22 21 23 25 27 28 27 25 24 23 23 22 19 19 23 30 32 32 33 32 33 35 36 36 34 32 29 27 25 24 24 22 22 22 22 22 24 25
39 38 35 36 35 31 27 26 25 25 25 26 24 24 26 26 25 25 21 21 24 24 23 22 21 19 17 16 19 23 26 27 27 29 31 33 34 35 34 31 27 24 22 20 19 20 19 19 18 19 20 22 23 24
37 34 32 30 28 26 25 24 24 27 27 25 25 24 21 23 25 24 21 20 17 15 14 13 11 11 13 17 21 24 25 25 26 29 31 32 33 33 30 26 23 19 17 16 15 16 15 15 16 17 19 20 22 24

GFSWCAN_700_spd_051.txt.gz
Wind_Speed
30 30 32 33 31 29 30 25 22 18 17 19 19 20 21 22 25 21 22 25 22 21 17 22 22 19 16 10 7 7 7 8 7 6 2 3 4 7 5 6 6 13 11 8 12 6 8 7 3 2 5 8 8 10
31 33 34 33 31 29 30 23 22 21 18 21 20 21 23 25 28 28 24 26 26 22 19 22 24 24 21 16 14 12 6 3 7 6 7 5 5 5 8 4 11 7 11 3 10 2 3 4 6 6 6 7 7 9
33 36 33 30 29 28 26 21 21 20 21 22 23 25 26 28 27 26 22 24 25 24 21 21 23 25 24 23 18 13 11 9 7 9 8 6 6 7 8 11 12 11 12 13 7 1 6 5 9 13 9 7 8 7
33 33 27 28 27 27 22 20 23 20 20 25 26 29 29 24 22 23 22 26 28 21 19 14 24 22 18 17 18 13 11 12 11 10 10 11 10 9 11 13 14 12 13 12 17 12 14 8 5 8 9 10 10 9
30 27 27 25 25 26 24 20 21 18 22 25 28 29 24 17 13 16 18 28 29 20 13 16 20 23 17 13 13 12 14 15 16 14 14 16 16 17 17 20 22 19 19 19 21 17 16 14 15 16 16 15 14 11
26 24 25 23 21 19 18 17 20 16 21 24 26 23 15 8 8 13 20 30 23 11 10 9 17 17 15 13 11 11 11 14 16 17 19 20 20 16 9 10 9 14 20 22 24 22 22 20 18 18 16 15 13 12
23 23 23 20 19 14 13 18 12 18 18 21 20 10 4 9 15 17 20 20 17 12 11 6 11 15 14 14 13 13 14 15 15 20 24 22 19 18 22 22 14 13 15 18 18 19 19 19 19 18 15 13 12 11
23 21 19 19 18 14 14 16 11 13 15 14 7 3 11 17 22 21 13 16 17 12 9 5 4 9 13 12 12 12 16 18 22 21 20 18 13 17 15 18 19 18 21 20 20 22 20 19 20 21 23 20 16 13
22 19 17 17 17 14 16 11 12 9 8 3 9 17 20 20 21 14 14 16 14 7 3 5 7 7 8 8 7 4 4 5 8 12 14 13 15 12 13 16 20 18 14 16 18 17 17 18 19 19 18 17 19 18
19 16 15 13 13 14 16 9 10 6 5 8 18 19 13 14 16 13 17 13 12 11 11 5 11 7 7 6 4 2 4 6 5 8 7 12 18 16 13 16 16 16 18 19 16 17 17 16 15 14 14 15 16 17
18 19 16 10 12 15 16 10 9 5 11 18 15 11 14 13 14 8 10 11 10 7 10 14 14 9 9 8 5 4 4 4 4 4 5 4 7 10 9 11 14 16 15 19 19 18 19 16 15 13 11 11 11 13
15 14 13 11 15 16 17 10 10 8 16 18 14 10 14 18 5 6 7 7 7 7 8 10 9 14 12 9 8 5 6 5 5 5 4 3 5 3 6 6 5 7 8 7 10 13 18 22 22 15 14 14 15 17
15 13 14 15 16 16 20 11 12 9 17 19 16 20 12 9 9 8 10 9 8 9 8 9 10 10 9 7 6 5 4 6 6 5 4 7 7 4 7 8 7 7 5 3 6 6 8 14 19 21 17 17 19 19
14 12 15 16 16 12 21 11 11 9 18 19 15 14 10 8 10 12 16 15 13 6 10 12 11 9 8 7 6 4 5 5 5 5 6 10 11 5 1 3 7 11 8 7 6 3 7 9 6 7 14 18 17 16
13 11 15 17 15 12 18 12 11 11 17 13 11 9 14 13 12 11 15 16 12 11 11 10 10 11 8 7 6 6 4 6 7 7 9 16 11 8 5 3 0 2 5 7 8 9 8 3 2 4 7 7 12 12
10 11 13 17 20 15 13 17 11 12 15 13 11 8 10 14 17 11 10 12 15 15 12 12 8 5 10 6 7 8 5 7 5 7 11 16 12 9 6 4 3 4 4 4 3 3 4 6 10 14 12 12 15 17
8 8 9 14 17 16 13 23 15 14 10 8 11 14 13 10 8 12 16 11 17 19 17 12 8 8 6 6 8 9 12 12 7 7 11 14 12 11 10 8 8 8 8 7 8 8 8 8 9 11 13 15 16 17
7 5 6 9 7 9 12 20 21 12 13 17 14 10 8 8 10 14 14 13 18 21 22 20 15 15 9 8 13 11 10 9 8 8 11 15 15 16 16 17 17 16 15 15 15 15 14 13 13 13 14 15 17 20
6 4 3 4 6 5 8 14 25 15 20 19 13 11 11 11 11 12 12 14 19 23 23 24 17 24 28 28 25 22 20 21 20 19 18 19 20 22 25 27 29 29 30 30 29 27 25 24 23 21 18 17 17 19
5 3 1 1 1 3 4 7 11 21 17 21 22 20 14 11 12 13 14 14 16 21 26 30 32 28 19 14 14 15 17 20 22 22 22 24 25 27 29 30 31 32 32 32 33 33 33 33 34 32 29 25 22 21
4 2 2 3 4 3 3 4 5 6 10 17 18 17 18 18 14 14 16 17 19 24 24 20 18 19 19 21 21 22 22 22 22 22 23 24 25 25 26 27 28 29 29 29 28 28 28 28 29 34 36 35 33 29
1 1 2 4 6 6 5 7 6 8 10 11 10 10 14 16 18 16 15 18 21 18 16 14 15 18 20 20 21 21 21 21 20 20 21 21 22 23 24 24 24 25 26 28 29 28 28 30 29 28 29 32 35 32
3 5 7 8 6 4 5 6 8 10 11 11 12 13 16 16 17 17 22 24 22 14 12 15 21 24 23 20 19 20 20 20 20 20 20 19 19 21 22 24 24 23 22 24 27 26 25 26 29 30 28 28 30 33
6 8 9 5 4 5 10 10 11 11 12 13 15 16 16 17 18 21 25 22 16 18 20 16 16 17 18 19 19 19 19 20 19 18 18 20 21 23 23 24 24 26 28 26 25 26 27 27 28 28 29 28 27 30
11 10 7 9 9 7 9 14 14 14 16 15 15 13 11 12 16 22 20 13 11 13 14 15 18 20 18 17 17 16 14 14 17 19 22 23 23 23 23 25 25 28 33 34 30 29 28 29 30 31 31 30 29 28
12 10 11 13 13 15 16 15 16 14 13 13 10 13 15 15 15 11 17 14 10 10 12 14 15 13 11 11 12 15 17 19 20 20 21 24 26 26 26 27 26 27 33 34 34 32 31 30 30 30 31 32 31 30
25 20 17 19 18 17 18 17 17 16 14 10 14 14 12 7 7 9 9 7 5 5 6 7 8 10 12 13 15 17 19 20 21 22 24 24 23 26 30 33 32 32 32 31 31 32 33 33 31 29 29 29 31 31
30 34 32 30 30 29 27 25 23 22 19 15 13 13 8 5 5 6 5 5 7 10 14 17 17 17 17 17 18 20 21 22 23 25 23 20 23 27 33 36 36 36 35 34 33 32 34 35 33 32 30 29 28 30
42 42 40 38 35 32 33 30 29 29 27 27 27 25 24 21 19 20 21 19 20 23 23 24 23 20 20 21 21 21 22 23 25 22 21 21 24 29 34 35 37 37 37 37 37 37 37 36 35 33 31 28 28 28
43 38 35 36 38 40 37 32 30 28 28 28 28 27 25 21 19 21 22 24 25 25 24 23 23 24 25 24 22 22 24 23 22 23 25 26 29 30 30 32 35 37 40 40 39 36 34 33 32 30 28 26 25 25
33 37 39 39 39 36 34 32 29 29 31 30 29 31 30 29 24 23 24 23 26 26 26 26 27 25 25 23 23 22 21 21 22 26 29 30 29 30 32 35 37 39 39 37 35 31 27 27 26 24 22 22 22 23
32 34 36 38 38 37 33 31 31 32 33 32 30 29 29 28 28 24 21 21 22 23 23 22 22 21 21 20 18 16 17 21 26 28 28 29 31 33 35 37 37 38 37 33 29 25 22 20 19 18 19 21 21 20
28 31 31 33 32 29 27 26 26 28 28 28 27 26 27 27 27 26 22 21 23 22 20 17 15 14 13 12 12 15 19 21 23 25 27 30 32 34 35 35 35 32 28 24 20 18 17 17 17 17 17 18 18 18

GFSWCAN_700_spd_054.txt.gz
Wind_Speed
34 31 29 31 34 35 35 33 29 25 19 20 20 19 20 23 22 21 22 21 20 25 23 27 25 20 18 14 10 7 7 10 7 6 3 3 5 8 5 6 5 9 10 8 12 6 9 9 10 4 1 4 6 8
32 31 31 34 35 36 33 29 26 24 20 20 21 18 22 23 29 28 28 28 25 27 23 28 29 27 22 18 13 10 7 2 5 6 7 4 5 5 8 5 11 8 10 4 10 4 4 11 2 4 5 5 5 7
34 30 33 36 36 33 31 27 23 22 20 20 17 19 23 27 31 35 33 28 23 23 21 26 26 27 27 21 19 16 13 10 7 9 8 7 6 6 6 10 12 10 11 12 8 8 13 11 6 8 10 9 7 6
40 37 36 39 34 31 29 23 23 24 21 20 20 21 26 29 30 27 24 19 18 21 26 16 23 28 25 25 23 20 16 14 12 12 11 10 8 9 10 10 14 13 14 14 17 15 13 8 4 4 7 10 11 11
42 39 36 36 30 28 25 26 26 23 20 20 20 25 28 25 23 16 16 14 18 24 12 22 21 28 23 21 23 22 16 17 13 14 15 14 16 16 18 21 24 18 22 20 21 16 16 12 13 13 13 13 14 13
37 36 35 32 27 26 23 23 19 16 17 16 23 27 24 19 12 11 10 14 18 31 10 13 13 25 23 21 19 17 14 13 15 18 17 19 18 17 11 13 12 12 18 26 27 25 23 21 19 18 15 13 13 12
40 37 32 29 26 24 20 18 14 15 11 18 23 22 16 12 5 8 6 9 22 23 10 6 11 20 18 15 15 14 12 13 14 16 21 21 22 20 23 25 20 15 16 18 19 19 19 19 19 19 18 16 15 13
39 31 30 27 24 21 18 16 13 11 12 18 17 11 2 10 15 16 13 14 13 7 1 5 8 16 16 16 15 15 16 17 18 20 23 25 23 20 22 25 22 25 24 26 24 21 21 19 20 21 20 20 20 21
34 31 27 22 20 19 16 15 12 6 10 11 6 5 17 20 16 12 13 14 8 6 5 6 8 7 14 16 13 11 8 13 14 17 19 15 19 14 17 15 16 17 23 22 19 21 22 20 19 20 20 19 19 18
31 29 21 17 16 15 16 14 11 6 7 3 9 13 13 15 12 10 11 8 6 4 5 5 11 7 11 11 9 6 5 5 5 9 11 15 25 24 20 18 17 15 15 18 22 20 23 24 24 18 17 15 15 16
26 22 18 17 16 15 16 12 11 7 6 10 11 3 14 14 14 4 6 7 6 5 7 10 10 10 8 8 8 6 4 4 4 5 6 6 11 12 13 12 14 16 16 17 18 19 22 24 23 19 16 13 12 11
22 20 19 18 19 17 17 11 13 9 9 17 12 7 14 12 6 5 6 7 7 7 7 9 13 15 10 7 7 5 5 5 4 5 5 5 8 4 4 7 7 8 9 11 10 10 14 19 22 22 19 16 14 15
21 19 18 19 20 20 19 14 14 11 11 19 15 12 9 9 9 8 10 7 8 6 9 10 9 9 12 10 6 5 5 6 5 6 5 7 9 5 3 3 4 6 7 6 3 4 8 11 16 20 23 23 17 17
18 18 18 19 19 20 19 18 16 13 13 21 19 12 11 8 9 11 13 10 11 7 8 12 13 10 10 9 7 4 6 6 5 6 7 8 13 6 3 1 4 6 10 11 11 10 5 9 6 9 12 19 21 19
18 16 15 17 20 19 15 21 17 14 17 14 12 8 13 13 10 11 12 14 14 10 11 12 12 10 7 7 5 6 5 6 7 7 5 10 15 10 7 5 3 3 4 6 9 12 12 12 10 4 4 5 9 15
17 15 14 17 19 18 11 22 19 15 20 12 13 8 9 13 16 13 11 13 12 13 13 11 9 7 10 6 7 8 5 8 5 4 9 14 15 11 9 7 5 3 2 3 4 3 6 7 7 8 9 8 8 8
13 12 13 17 21 20 11 19 22 17 15 10 11 20 14 10 8 13 16 12 14 18 18 12 9 8 7 7 11 10 13 12 4 7 6 12 16 14 13 12 10 9 8 8 8 8 8 8 8 8 8 10 12 13
10 7 8 10 13 18 17 15 23 15 14 15 16 13 13 13 12 13 13 15 17 22 23 21 15 15 9 9 14 11 7 8 7 7 7 9 15 16 16 17 17 17 18 19 19 19 18 19 19 18 17 15 14 15
10 8 8 8 10 8 12 14 22 20 22 22 17 15 14 13 12 12 12 14 18 23 26 29 18 23 27 27 22 20 21 21 21 21 20 18 17 17 18 21 24 26 28 30 31 32 32 32 31 31 29 27 25 23
11 9 7 5 6 7 5 5 9 21 16 24 28 23 16 13 11 12 12 14 16 22 28 34 38 33 20 14 14 14 13 13 15 18 19 19 20 21 22 24 26 27 27 26 26 25 25 26 26 26 27 30 32 33
11 9 8 7 5 4 4 3 4 5 12 18 15 20 25 25 22 17 14 15 19 24 27 25 22 23 23 24 25 26 25 24 22 20 20 21 20 20 20 21 22 22 23 23 23 24 25 25 25 26 26 27 27 29
8 6 4 3 2 1 2 2 1 3 5 7 7 8 14 17 19 22 24 24 23 20 19 15 13 15 17 17 19 21 20 19 20 21 20 19 19 20 21 22 22 22 23 24 24 25 25 25 26 26 25 25 27 27
5 3 2 4 2 2 2 3 4 4 4 7 8 8 9 11 12 13 19 21 22 19 18 15 15 15 18 23 24 23 22 22 22 23 22 20 21 21 21 22 22 23 23 24 23 22 22 23 24 25 25 25 25 25
2 3 3 1 1 0 2 4 6 6 5 6 7 8 10 12 13 16 19 17 12 16 21 23 26 23 19 19 19 20 23 24 24 22 23 23 21 21 21 23 22 23 23 20 21 21 22 24 25 25 26 26 26 27
5 4 3 3 4 3 3 5 7 7 9 9 9 9 8 11 14 18 16 8 7 13 18 19 19 20 23 20 19 21 22 23 23 21 19 20 21 21 22 23 23 24 25 23 24 25 26 26 26 26 28 29 29 27
9 8 8 7 6 7 6 5 4 9 11 11 7 10 12 13 11 8 14 11 10 9 7 11 14 15 16 16 16 17 17 17 18 19 22 22 21 22 23 23 22 22 27 27 29 29 30 30 29 30 30 31 31 30
18 15 14 16 13 12 14 13 13 13 13 11 14 15 10 5 5 6 10 9 6 2 2 3 4 5 7 8 10 13 15 17 18 19 20 21 22 25 26 25 24 26 27 29 31 32 31 30 31 32 33 32 32 33
27 29 28 25 23 21 20 22 24 22 15 11 11 12 8 9 17 20 19 13 9 8 10 12 14 16 18 19 17 16 16 18 20 20 20 21 24 26 25 25 28 30 31 32 32 32 32 32 33 34 35 35 34 35
33 34 34 31 28 27 28 29 30 30 27 23 22 22 24 22 21 21 21 20 21 24 24 23 22 22 20 18 19 20 21 21 22 22 22 22 21 24 27 29 32 34 34 33 33 35 35 35 36 36 36 35 33 32
37 35 34 33 31 33 33 32 33 32 29 27 28 28 29 26 24 24 24 24 23 23 25 25 24 24 23 24 25 24 23 23 23 24 22 20 22 25 28 30 31 33 34 35 35 36 38 38 39 38 35 32 28 26
30 28 29 28 30 32 32 32 33 33 33 34 33 32 31 30 28 27 27 26 27 28 27 26 25 25 26 27 27 25 23 24 23 21 20 22 25 26 27 29 32 34 36 37 39 39 40 39 37 34 30 26 23 21
27 27 28 28 26 25 24 28 31 32 32 31 31 30 29 30 34 32 24 21 21 23 26 25 24 23 23 23 23 21 19 18 18 20 23 23 24 26 28 31 34 37 39 40 40 39 37 32 28 25 22 19 18 18
37 34 33 32 30 25 25 27 30 33 30 29 27 25 24 27 31 29 23 17 18 22 24 24 24 22 18 16 14 12 13 16 18 20 22 24 26 29 31 33 35 36 36 36 33 30 25 21 17 16 15 15 15 15

GFSWCAN_700_spd_057.txt.gz
Wind_Speed
28 32 31 31 29 34 34 33 35 34 28 26 23 19 20 21 24 23 25 19 20 22 15 24 26 25 23 19 15 10 9 11 10 10 6 5 6 8 6 7 4 7 9 8 9 7 8 8 13 7 5 3 1 4
29 31 32 32 31 34 38 34 35 32 28 25 23 20 21 19 20 21 21 28 29 30 24 20 31 32 29 22 18 14 9 6 8 9 10 6 6 5 9 5 11 7 9 3 9 2 4 11 9 9 5 3 5 5
28 33 34 38 34 38 41 37 36 31 27 25 23 21 21 23 23 26 28 30 33 38 38 33 30 31 31 27 21 18 14 11 8 10 9 9 8 8 7 11 11 10 10 11 7 5 12 13 13 5 5 6 8 10
36 29 33 41 39 39 43 37 36 29 27 26 24 22 23 22 25 30 32 30 29 26 28 20 22 30 31 29 25 20 17 15 15 10 11 11 10 7 10 11 11 11 13 13 19 17 16 9 13 8 4 5 7 9
38 35 36 37 35 39 38 34 33 28 27 22 19 20 20 24 27 30 28 21 15 15 11 11 18 30 35 30 26 23 21 17 16 15 15 14 15 14 19 18 20 16 20 22 21 13 15 12 11 13 10 10 10 9
41 36 34 44 34 35 40 32 28 25 21 15 17 18 23 24 25 19 12 7 7 13 11 4 16 17 31 26 28 24 22 22 18 18 17 18 18 15 12 17 12 13 13 12 18 23 24 20 19 19 18 16 14 11
35 41 39 37 40 40 38 29 24 21 16 16 17 21 22 19 11 4 3 4 6 12 6 8 6 22 25 18 19 20 19 18 17 17 19 20 18 19 24 28 21 20 17 16 13 14 18 19 18 18 17 16 16 15
41 40 38 34 36 41 32 24 21 18 14 14 17 18 11 5 10 9 11 11 10 10 7 5 6 20 22 20 18 18 17 15 17 18 21 22 21 22 25 27 25 20 22 25 23 20 19 18 18 19 19 19 19 19
42 37 37 39 43 38 27 21 18 14 11 10 11 2 12 15 10 10 10 9 7 5 2 2 6 12 17 16 18 17 16 15 17 22 24 17 21 18 23 20 17 14 14 17 20 23 27 26 25 21 18 19 17 17
37 39 42 44 41 31 23 19 16 13 9 5 6 12 9 8 10 11 9 7 4 3 3 5 10 7 16 14 13 11 11 10 6 9 10 16 27 28 26 24 19 16 17 15 18 19 18 18 21 22 21 19 15 13
35 40 46 40 38 26 21 18 16 14 10 9 13 8 11 12 12 5 5 6 4 4 6 8 13 9 8 15 13 12 4 4 4 6 7 7 14 12 12 13 13 13 14 17 16 16 21 23 24 24 22 18 17 14
29 38 35 30 24 22 20 16 18 16 12 13 11 10 13 14 5 6 6 6 6 5 6 10 12 12 8 9 7 4 4 4 5 6 5 6 8 5 3 2 5 7 10 11 10 11 12 13 17 20 21 19 18 17
39 36 32 23 23 22 19 19 18 19 14 18 17 10 10 9 9 8 9 7 6 4 6 9 11 15 13 9 5 4 4 6 5 6 6 9 6 5 4 3 1 3 3 3 3 3 6 8 8 11 14 18 21 21
38 33 29 25 24 21 19 21 19 22 15 19 16 11 11 8 9 11 14 14 9 5 5 12 10 9 10 10 7 4 6 6 4 6 7 6 12 9 6 4 2 5 9 13 11 11 11 8 5 7 7 9 13 17
32 31 25 24 22 19 18 22 21 25 17 15 11 9 13 11 8 9 12 11 11 9 6 13 8 12 10 6 6 7 5 6 7 8 5 7 15 11 8 5 4 3 3 5 7 11 11 13 13 12 6 3 5 8
27 23 23 21 18 17 19 20 23 26 20 13 13 9 11 12 13 12 9 11 12 8 11 13 11 6 9 6 8 8 6 8 4 4 7 7 15 13 10 9 7 5 3 2 2 3 4 5 5 7 10 10 9 9
24 19 17 15 16 19 16 15 24 26 15 12 11 17 13 9 7 10 15 11 12 14 17 14 8 8 7 7 9 9 11 9 6 8 6 6 13 15 13 13 13 12 11 11 10 10 10 11 11 10 9 9 10 10
15 14 12 14 17 19 16 12 22 19 18 19 16 15 23 20 14 11 11 15 17 18 22 20 16 14 9 8 11 7 6 4 4 6 7 7 7 15 18 18 18 18 18 19 20 20 21 22 22 23 23 23 22 20
13 12 11 12 14 16 18 16 16 11 20 25 21 17 15 14 14 15 14 15 18 21 24 27 15 22 29 26 21 17 15 17 19 20 18 15 14 14 15 18 20 21 23 25 27 29 30 30 27 25 24 24 26 28
17 16 13 11 11 11 11 8 13 20 14 20 26 25 19 16 15 14 14 15 16 20 27 31 36 31 21 16 16 15 15 15 14 13 12 16 18 19 19 21 21 23 23 23 23 22 22 21 20 19 19 19 20 21
16 14 11 9 9 9 6 4 7 5 8 16 13 15 28 27 20 16 15 16 17 21 24 24 21 23 26 28 30 33 30 25 23 25 24 21 19 19 20 20 20 20 19 19 19 19 19 20 20 21 21 22 21 21
13 12 10 8 5 5 4 4 2 2 3 3 2 4 10 14 20 26 28 28 28 22 19 14 14 18 22 21 21 22 22 22 21 21 19 20 21 20 20 21 21 21 21 20 20 21 22 22 22 21 20 20 21 21
9 8 6 4 6 5 4 4 4 3 3 5 5 2 0 3 6 9 13 18 19 18 21 23 19 15 19 20 19 18 19 21 22 22 21 21 22 23 22 22 23 23 23 23 23 23 23 23 22 22 22 22 22 21
5 3 3 3 4 5 5 4 5 6 6 5 4 4 5 7 6 7 8 6 8 13 18 21 23 25 23 21 19 18 18 21 22 22 22 24 25 25 25 24 22 23 24 24 25 25 24 23 22 23 23 23 23 23
2 1 1 1 3 4 3 4 6 6 7 7 7 7 7 8 8 8 5 4 6 8 10 14 19 19 21 24 27 26 23 18 18 21 23 25 25 24 23 24 24 25 26 25 25 24 23 22 22 23 24 25 25 25
3 4 5 6 5 2 3 2 1 4 7 7 5 7 9 8 5 4 11 14 13 12 9 8 8 11 13 15 16 18 19 21 22 22 21 20 22 24 25 25 25 27 28 26 24 23 23 25 26 27 27 29 30 29
13 10 10 10 9 6 5 6 8 9 10 10 10 8 5 4 1 5 15 16 14 11 6 4 2 2 4 5 7 9 11 13 16 19 21 23 24 25 25 25 25 27 26 24 24 25 26 27 29 30 30 30 32 34
19 22 21 18 16 15 16 17 17 16 11 10 8 7 5 4 10 14 15 16 16 15 16 16 15 14 14 15 17 18 17 17 17 19 21 22 23 25 27 26 26 25 24 26 27 29 30 30 30 31 32 33 32 35
28 29 27 26 23 23 24 24 25 24 22 22 23 22 25 23 20 18 18 19 19 20 21 21 21 22 22 21 19 17 18 19 21 23 23 23 22 25 28 27 26 26 28 29 30 31 31 32 33 34 34 34 34 34
31 29 28 27 27 27 28 28 29 28 28 29 30 32 31 31 30 27 27 24 23 22 24 26 25 23 23 23 23 23 23 25 25 25 24 24 24 23 24 25 27 29 30 30 30 31 34 36 36 37 37 37 36 34
28 26 25 25 27 25 23 22 25 27 31 34 35 38 39 39 38 34 31 28 27 28 28 28 29 28 26 25 25 26 27 27 25 25 25 24 22 22 24 26 28 30 32 33 34 35 37 38 38 38 38 35 31 28
25 24 24 26 24 21 22 24 25 26 29 32 35 37 38 39 43 40 33 25 24 23 24 28 28 26 26 24 24 25 25 25 24 22 19 19 22 24 25 27 30 32 34 36 38 39 40 39 37 33 28 23 19 16
33 32 31 31 30 31 30 30 32 33 32 30 30 31 31 33 37 32 24 20 22 23 23 26 27 26 25 26 25 21 18 16 15 16 18 19 22 25 27 29 31 34 36 38 39 39 35 29 23 19 15 12 11 10

GFSWCAN_700_spd_060.txt.gz
Wind_Speed
24 27 24 24 25 25 28 27 33 35 37 35 34 30 26 23 21 19 21 19 20 24 17 17 21 25 24 22 19 14 15 17 14 13 9 7 7 9 6 7 5 10 9 7 9 7 8 11 14 11 9 8 7 4
30 32 31 30 30 27 28 36 35 35 42 37 33 30 26 23 24 21 18 21 24 26 20 20 19 24 31 26 23 20 16 8 14 12 11 8 9 8 10 5 13 8 11 5 9 4 5 11 14 16 13 10 8 6
32 36 38 36 31 27 29 37 39 34 36 33 31 29 27 23 24 25 24 23 26 30 28 30 29 30 33 34 29 26 20 13 12 12 10 11 7 11 10 14 13 14 11 11 8 6 11 11 14 14 14 9 8 10
37 40 41 44 41 34 30 34 32 31 35 33 29 28 24 21 22 25 25 27 31 33 38 32 32 31 36 39 35 28 23 18 15 13 14 14 11 8 12 14 14 14 13 14 19 16 15 14 16 21 12 9 7 8
44 47 50 49 45 36 32 35 36 34 35 32 27 21 18 19 22 27 30 29 27 22 26 18 17 23 34 38 36 28 26 23 19 16 15 13 15 14 16 19 22 19 19 18 15 17 15 17 16 13 17 12 9 9
49 54 54 53 48 38 35 35 32 32 36 30 23 19 19 21 27 29 26 13 12 12 12 9 7 12 26 39 37 26 26 24 21 18 18 18 16 15 11 17 16 11 13 13 13 14 19 21 18 17 18 16 15 14
57 61 62 49 35 33 35 38 37 33 35 26 20 19 21 25 25 17 8 5 1 5 5 9 1 9 22 35 34 32 28 26 23 20 20 20 17 19 25 32 19 13 19 18 16 15 13 16 20 21 21 20 19 18
65 67 59 39 32 30 29 34 29 30 30 21 17 17 22 18 7 6 8 7 6 4 4 6 3 11 24 24 33 26 20 20 19 20 22 20 19 22 25 28 19 19 20 22 20 20 20 17 16 16 19 19 19 20
72 60 42 30 32 27 34 35 32 30 22 16 12 13 2 10 8 6 6 6 5 3 3 4 1 9 18 16 18 20 17 18 16 18 22 20 21 21 25 20 17 13 14 17 16 18 21 23 24 25 25 22 23 21
68 49 37 35 32 31 36 34 28 27 16 14 9 8 10 5 5 8 6 4 2 4 5 2 1 9 17 18 17 19 17 15 7 13 13 16 28 25 28 27 25 20 17 18 17 15 19 19 23 22 18 22 20 18
49 37 32 34 33 44 32 34 27 20 18 15 12 15 10 7 9 3 3 4 4 4 6 5 6 15 15 17 15 14 8 7 5 7 9 7 15 15 13 14 14 17 16 14 14 16 18 18 19 21 21 21 20 18
31 29 30 35 35 36 33 32 26 19 19 16 14 14 13 11 6 6 6 6 7 6 6 10 12 11 9 13 7 13 5 5 4 6 5 7 16 8 6 3 3 4 7 10 12 12 9 10 11 14 18 20 19 18
22 23 29 34 42 41 33 26 22 22 22 18 19 11 9 11 12 8 10 7 7 5 6 12 14 13 10 8 5 5 5 5 4 6 6 9 7 6 4 3 3 1 2 1 1 3 6 8 9 8 10 13 16 19
28 30 34 36 39 32 27 24 21 26 24 21 20 12 11 8 10 13 13 13 10 7 8 10 11 13 13 8 5 4 6 5 4 6 6 5 8 10 7 5 4 4 10 12 12 12 13 12 4 4 4 4 7 13
24 33 37 39 34 26 20 21 23 28 24 17 13 9 14 11 10 11 15 15 13 10 7 14 11 9 12 6 6 7 5 5 7 7 5 6 11 12 9 8 4 1 1 2 3 6 9 12 14 15 13 8 3 2
25 36 36 33 28 20 21 21 25 29 28 15 13 10 11 16 13 10 10 13 14 12 11 13 7 6 8 5 7 8 5 6 1 2 4 7 13 14 11 10 7 6 5 3 2 2 2 3 4 6 7 7 9 8
34 34 32 25 19 20 20 21 24 30 22 12 11 18 13 11 15 17 14 15 15 13 16 11 9 8 6 7 7 7 9 5 6 6 5 2 10 14 13 13 12 12 11 11 11 11 11 12 12 13 13 14 15 15
23 21 19 18 18 21 20 19 20 22 18 24 18 14 22 17 12 10 17 17 17 16 21 16 13 14 8 7 9 4 2 2 3 3 5 6 6 8 15 17 17 18 18 18 19 19 20 20 22 24 25 24 24 25
18 17 17 19 20 19 16 13 15 8 18 21 24 21 18 16 18 18 16 18 20 20 20 25 14 21 26 24 16 14 14 16 17 19 19 17 14 13 13 14 16 20 21 22 23 24 26 27 26 23 20 19 19 19
19 18 17 17 18 18 15 10 14 15 11 15 17 23 25 19 15 16 17 19 20 22 25 28 32 27 16 13 13 14 14 12 12 13 11 9 10 14 16 17 17 19 21 22 23 22 22 21 20 19 18 17 17 18
20 19 17 15 14 14 9 6 11 7 12 18 15 16 23 26 22 16 15 15 17 21 23 23 20 23 24 28 29 29 27 26 23 24 23 22 22 19 17 17 18 18 18 19 19 20 20 20 20 20 20 19 18 17
15 15 13 12 12 10 5 5 5 5 5 4 4 11 15 14 19 28 27 24 23 20 20 16 13 14 20 23 24 25 26 27 25 23 23 23 22 19 18 18 17 18 19 19 19 20 20 20 20 20 20 20 20 20
13 11 9 9 6 5 6 6 4 5 4 4 3 3 3 4 7 10 14 19 22 22 21 23 23 23 24 21 21 21 20 19 18 19 20 20 20 20 20 20 19 20 21 21 21 21 21 22 22 22 22 22 22 21
10 8 7 4 4 5 8 6 7 6 5 5 6 7 7 4 1 2 4 4 7 10 12 16 19 20 21 25 25 21 19 19 16 17 20 23 23 21 21 21 22 22 21 21 22 24 24 24 24 24 24 24 24 24
7 4 5 6 7 9 8 9 8 8 7 6 6 4 4 3 4 10 11 11 10 7 8 9 9 12 14 17 19 22 23 23 22 21 19 17 18 21 22 22 20 21 22 23 25 25 26 26 26 26 26 26 26 25
3 2 3 5 7 6 7 6 3 3 4 4 2 3 4 3 4 5 7 8 9 9 8 6 5 5 5 7 8 10 13 15 17 18 19 20 20 21 21 21 23 25 25 25 26 26 27 26 26 26 26 28 29 29
4 3 3 3 2 1 1 3 6 8 9 5 4 1 2 1 4 2 8 8 8 8 8 8 7 6 5 5 5 7 9 10 12 13 14 16 18 20 22 24 24 25 25 26 27 27 26 25 26 28 29 29 31 33
8 7 5 6 7 8 11 13 14 14 9 8 9 8 4 2 5 10 13 12 12 13 14 13 14 14 14 15 15 15 16 16 17 19 20 20 21 23 24 26 27 27 27 27 26 25 26 27 29 29 30 31 31 34
13 13 13 14 15 16 17 18 18 18 18 19 20 21 23 23 21 20 19 19 18 17 17 20 22 20 18 18 17 17 18 19 20 20 20 21 23 24 28 28 29 29 28 26 26 27 29 30 31 32 33 33 34 35
16 15 17 18 19 20 20 21 23 24 26 28 30 32 32 31 30 30 31 31 30 27 24 24 25 24 24 24 23 22 22 23 23 24 25 26 26 26 27 28 29 27 26 27 28 30 32 34 35 35 36 36 36 37
11 12 17 20 23 21 21 23 26 29 31 33 33 36 38 40 41 40 39 37 37 37 33 28 27 29 29 28 26 25 24 25 25 26 27 27 27 27 26 24 24 26 27 29 31 32 34 35 36 38 38 39 39 38
12 15 20 23 23 20 20 22 22 24 26 27 29 30 33 39 47 47 45 40 37 37 33 30 29 29 31 30 27 25 24 24 25 28 28 26 24 22 22 23 25 28 31 32 34 35 36 37 38 38 36 32 28 24
20 19 21 21 23 27 26 23 26 29 31 33 34 34 35 37 43 44 43 36 31 25 23 27 27 27 29 27 25 24 25 25 24 21 18 17 18 20 23 26 29 31 33 35 37 38 38 37 32 26 21 18 15 12

GFSWCAN_700_spd_063.txt.gz
Wind_Speed
11 15 18 22 24 27 30 31 34 33 31 33 36 30 32 33 28 26 24 23 22 26 21 25 18 23 24 23 22 17 18 20 17 14 8 8 7 8 7 7 9 11 9 8 11 6 8 7 14 10 10 9 11 10
17 19 23 26 26 29 31 33 34 38 34 33 29 30 32 34 32 28 23 23 23 27 23 20 32 26 27 26 29 26 21 13 15 11 12 7 7 9 8 5 13 9 11 7 11 5 11 7 17 21 17 14 13 12
23 26 28 31 34 35 38 38 39 37 35 36 33 30 33 31 34 30 24 23 26 30 30 31 27 33 32 31 31 32 29 22 17 20 13 10 8 8 8 12 10 13 12 11 8 6 13 9 14 16 16 18 14 12
29 29 31 34 39 41 44 44 43 40 36 34 30 31 34 31 30 26 25 26 26 31 39 34 29 29 37 38 42 35 28 29 19 17 18 16 11 10 10 14 12 14 14 14 16 14 13 11 13 16 18 15 18 14
35 37 39 40 44 49 51 52 42 32 33 28 29 32 33 29 27 26 27 27 30 26 31 33 24 22 28 43 45 43 38 30 24 20 19 18 18 16 16 18 20 21 20 15 9 9 12 15 17 18 19 19 18 14
39 40 42 45 50 52 55 50 30 29 34 38 30 29 30 26 27 28 33 27 16 15 21 17 10 10 12 25 39 41 37 31 31 25 21 22 21 14 10 13 17 16 16 21 22 20 16 20 20 18 19 14 22 17
44 44 46 49 54 59 62 40 30 28 35 29 28 29 28 25 27 30 28 17 12 8 13 13 8 3 6 13 31 41 42 32 31 28 26 23 18 20 25 23 18 16 17 16 19 17 17 19 19 23 25 22 20 19
48 46 48 52 59 67 50 24 21 33 28 29 29 28 24 24 29 23 11 13 11 9 8 7 4 2 4 15 26 33 36 27 29 28 28 23 21 23 25 27 19 23 22 22 25 23 24 23 21 17 18 20 22 22
49 50 55 61 67 48 32 26 28 25 33 30 29 25 17 18 8 5 5 6 7 6 5 5 5 2 9 17 13 21 26 23 22 27 27 21 25 21 22 22 18 18 15 18 21 21 22 23 25 25 24 24 25 25
51 56 61 66 66 46 30 28 31 29 36 31 26 19 10 9 5 6 6 7 6 8 8 6 3 2 13 19 13 32 17 14 9 16 15 21 31 30 31 26 27 28 25 21 21 18 17 17 20 22 24 28 30 28
61 65 69 64 49 35 29 30 29 31 32 31 26 15 12 8 8 8 6 6 5 5 6 3 1 7 6 15 12 19 7 8 5 8 10 8 23 13 12 15 17 19 23 22 20 16 17 18 20 21 21 21 20 22
63 59 50 37 32 27 27 35 30 38 28 26 23 15 15 10 9 8 7 7 7 5 6 6 7 10 10 14 10 10 5 7 4 7 7 7 17 13 12 11 7 7 7 9 11 14 14 13 12 12 14 17 20 21
41 33 28 24 23 15 32 30 27 36 26 22 20 14 10 11 13 9 11 8 8 6 5 8 12 8 9 9 5 6 5 4 4 6 7 12 11 8 8 3 2 1 1 2 3 5 7 9 10 10 11 12 13 16
25 26 24 19 21 25 27 29 32 31 23 26 15 15 11 9 11 15 14 13 11 7 6 8 15 8 8 8 4 4 5 5 4 5 6 6 6 9 9 6 4 8 10 11 11 12 11 11 8 1 6 9 7 8
25 27 29 23 21 23 25 37 35 28 26 19 13 10 16 15 12 13 16 16 13 11 7 10 8 11 9 5 5 5 4 5 6 6 6 6 6 11 11 8 8 5 3 4 4 5 5 6 8 11 13 14 12 6
28 25 27 19 23 32 34 31 26 26 31 16 14 11 11 15 15 14 14 18 15 14 11 11 8 5 7 5 6 7 5 6 2 1 5 6 6 14 12 12 9 8 6 6 5 4 3 3 4 5 6 7 7 8
17 15 21 33 32 33 27 20 23 27 26 14 14 20 13 10 16 17 10 15 15 18 18 9 8 8 6 6 7 7 6 4 2 5 5 6 4 13 12 12 12 11 11 12 12 12 13 13 14 15 15 16 18 19
15 21 29 32 30 26 19 22 22 18 17 21 22 17 22 20 13 15 19 17 17 21 18 15 11 13 7 6 7 4 2 3 3 2 4 6 7 6 8 13 16 16 17 18 19 20 21 21 22 22 24 26 26 25
17 22 26 25 22 22 23 22 23 9 17 21 23 24 20 20 28 21 13 19 20 19 19 22 13 14 19 13 6 5 7 10 13 15 14 14 13 12 12 12 13 14 16 20 22 24 24 24 25 25 23 21 19 18
21 21 20 20 20 20 14 6 16 16 9 15 18 19 22 25 20 17 15 18 18 22 22 24 27 21 10 10 10 12 15 15 12 11 12 13 12 10 11 14 16 17 17 18 19 19 19 19 20 20 19 18 18 19
21 21 20 19 17 16 10 6 11 9 11 16 15 15 19 19 24 25 17 18 21 24 24 25 23 22 22 25 26 23 21 23 23 23 22 23 22 23 23 21 18 17 17 17 17 17 17 18 18 18 18 18 18 18
16 17 17 16 15 13 6 6 5 7 7 7 6 10 17 16 16 22 27 24 22 20 21 19 15 14 18 21 22 23 23 24 24 24 25 25 23 22 22 21 18 17 17 18 19 19 19 19 19 19 20 20 20 19
17 17 16 14 7 5 4 4 4 4 2 2 3 4 5 7 11 12 15 22 28 28 28 27 24 22 23 24 23 22 20 19 21 22 21 20 19 20 20 19 20 20 20 21 21 21 21 20 21 21 21 21 21 22
14 13 10 5 4 5 7 6 5 4 2 2 3 3 2 0 2 3 4 6 6 9 14 16 18 19 22 23 24 25 25 24 20 18 17 17 17 19 21 22 22 21 21 22 22 21 21 22 22 23 23 23 24 24
9 6 6 6 8 9 8 8 7 5 4 3 2 1 3 2 6 8 10 11 9 8 7 4 4 6 8 12 15 17 18 20 22 21 21 21 21 21 19 18 20 22 22 22 22 23 24 24 24 25 25 25 25 25
3 4 5 8 10 9 9 9 5 3 2 0 1 3 2 2 2 3 4 4 2 1 2 4 6 8 8 6 6 7 10 13 14 15 16 18 19 21 22 22 22 22 22 23 24 25 25 25 26 27 27 27 27 28
4 7 10 11 10 9 7 5 2 3 3 2 2 3 3 2 4 5 1 4 4 5 5 6 6 7 8 9 9 9 9 10 10 11 12 13 15 17 18 19 20 22 23 24 25 26 27 28 29 28 28 28 29 31
6 6 5 5 5 5 6 8 9 9 6 4 5 4 4 3 5 11 12 14 13 12 11 11 13 12 11 12 12 14 16 17 17 17 17 17 18 19 21 23 24 25 26 28 28 28 28 29 28 28 29 30 30 32
5 6 7 7 8 9 10 12 12 14 14 15 17 17 20 20 18 21 23 26 25 22 20 19 21 23 21 19 18 18 19 20 21 21 21 20 21 22 25 26 27 29 29 29 30 30 28 28 29 30 31 32 32 34
8 9 12 14 15 17 17 17 19 20 22 24 27 29 30 30 29 31 33 33 33 31 29 29 28 28 27 27 26 25 24 24 24 25 25 25 25 26 28 29 30 31 31 31 30 29 30 30 31 33 34 35 36 37
10 11 13 15 17 18 21 23 26 29 31 33 34 37 39 40 41 40 40 39 39 38 38 37 37 35 33 32 32 31 27 25 26 26 26 26 27 27 29 31 31 31 29 28 29 30 32 33 34 35 36 38 39 40
1 4 7 9 11 12 14 17 21 26 30 33 36 37 38 40 43 42 41 41 40 39 37 37 39 37 35 33 32 33 29 27 27 26 25 25 27 29 30 27 25 25 27 29 31 33 35 36 36 38 39 40 39 38
9 12 16 18 19 23 26 27 30 33 35 36 36 34 36 39 44 40 35 32 34 34 33 32 33 36 35 34 31 30 28 27 24 23 24 25 24 22 21 22 24 27 29 31 33 35 36 38 38 37 34 30 26 22

GFSWCAN_700_spd_066.txt.gz
Wind_Speed
10 7 9 11 14 17 21 24 29 34 34 37 38 31 30 30 29 30 31 31 28 31 27 25 24 24 18 22 20 20 13 20 18 16 11 9 10 9 8 8 8 13 9 8 12 7 9 8 6 11 9 8 11 12
11 10 12 15 18 20 24 29 33 36 38 43 41 36 30 27 29 32 31 31 28 29 30 24 22 21 26 25 29 27 20 15 17 12 13 8 10 10 9 6 14 11 12 8 10 6 7 6 10 14 15 10 10 11
16 18 20 22 25 28 32 35 39 41 43 43 33 32 33 28 29 33 32 29 30 35 35 21 18 28 31 32 31 37 30 18 23 24 17 14 11 11 11 15 12 10 14 17 8 8 14 14 11 12 15 15 15 16
18 21 23 26 29 32 35 38 41 44 43 41 35 32 31 33 31 32 30 26 27 34 45 12 15 17 29 31 40 38 36 28 27 23 23 15 15 12 13 16 14 17 13 15 18 14 11 11 9 10 13 15 16 17
22 25 28 29 33 35 39 43 45 48 42 40 36 32 36 31 32 33 31 24 26 29 39 41 22 16 26 32 37 42 40 42 32 28 24 25 21 19 16 18 22 21 21 19 10 9 11 13 11 12 14 16 15 16
29 30 31 32 36 39 43 47 48 49 49 40 27 30 35 32 35 33 32 24 21 25 28 32 20 13 14 15 29 36 42 40 36 20 29 25 21 16 11 17 19 13 17 20 23 22 20 18 18 18 20 19 18 15
33 33 34 35 37 42 45 48 53 52 39 27 28 30 34 32 33 32 30 30 26 18 20 21 11 9 11 12 15 25 34 42 41 29 26 28 24 22 26 28 24 13 11 15 15 18 23 23 22 19 17 21 21 19
34 35 36 38 42 43 45 52 53 36 27 26 28 34 31 31 32 29 26 20 12 9 15 10 11 12 6 5 7 11 26 37 39 23 26 26 25 24 23 25 20 19 23 20 16 19 22 26 25 24 22 20 20 23
35 37 40 43 44 46 51 55 39 29 23 26 29 30 32 31 31 17 12 9 7 8 7 9 14 9 4 5 5 13 21 26 35 24 23 25 29 22 15 22 18 17 17 16 19 21 24 25 27 27 26 25 23 21
38 40 42 45 51 53 54 42 30 24 25 31 36 28 32 28 16 10 10 9 9 12 19 18 12 13 5 10 7 14 13 17 15 21 21 33 33 30 29 29 26 28 30 26 25 25 24 22 20 21 22 25 27 27
39 42 47 53 58 53 42 35 25 25 32 30 33 26 27 16 9 8 6 6 6 6 8 9 6 5 6 8 10 16 6 8 4 7 16 10 30 27 22 21 19 18 21 23 22 23 23 21 21 21 20 21 23 24
42 48 56 53 47 37 29 26 17 25 37 24 26 25 24 13 7 7 7 7 8 5 7 7 6 4 3 7 3 11 3 8 5 8 8 7 17 9 13 13 13 17 16 17 17 17 16 14 15 15 15 16 18 20
52 51 46 38 26 21 22 18 25 28 31 16 20 19 9 10 12 10 8 8 6 7 8 7 9 8 5 5 5 6 5 4 3 6 6 10 9 7 6 8 10 5 6 7 7 9 11 11 10 10 12 12 12 14
44 35 29 22 17 16 16 20 23 26 35 31 22 11 11 9 9 14 16 12 13 12 9 6 8 6 7 7 4 4 5 4 4 5 5 4 5 6 8 5 2 4 5 7 8 10 11 8 5 2 1 4 6 8
32 25 22 18 16 18 19 17 13 17 24 29 15 10 16 17 13 9 14 18 16 12 11 7 7 11 6 4 5 4 4 4 5 6 6 6 5 5 10 8 8 6 5 6 7 7 7 6 5 5 7 9 10 10
24 25 20 19 18 15 25 16 16 21 32 29 17 13 12 14 19 17 13 15 12 12 11 10 9 4 6 5 5 5 4 5 2 2 5 6 4 8 11 10 9 7 5 5 5 4 4 4 5 6 8 9 10 11
28 31 22 22 20 23 17 19 29 32 22 20 20 22 19 9 9 15 21 13 14 18 15 9 6 6 5 5 6 7 3 3 4 3 4 8 6 7 10 9 10 9 9 10 10 11 12 13 14 15 16 17 18 19
15 15 15 13 15 15 20 31 32 24 23 25 18 21 23 22 16 14 15 19 12 15 18 20 7 10 4 4 1 3 2 4 3 2 3 6 7 5 2 8 10 13 14 16 17 18 19 20 21 21 22 22 23 25
11 6 8 12 17 23 32 27 25 15 17 18 19 21 19 17 17 22 22 15 16 14 15 19 12 11 13 9 3 4 5 4 5 10 12 9 7 7 8 9 9 10 12 14 15 17 19 20 21 21 21 19 18 16
9 13 19 24 25 27 22 15 17 22 12 14 15 16 18 20 21 21 20 20 20 18 16 18 21 17 9 8 9 11 14 16 14 11 9 10 12 13 12 12 14 17 17 17 16 17 18 18 17 17 16 16 16 15
19 23 24 22 20 20 13 6 9 7 13 17 13 10 13 16 18 20 23 22 20 23 22 23 20 22 20 20 21 22 22 20 18 18 19 20 20 20 21 22 22 21 19 17 16 15 16 16 17 17 17 17 17 16
20 21 20 18 17 15 9 6 7 9 9 8 7 8 13 17 18 17 19 22 26 24 22 21 20 18 20 22 22 19 18 18 19 20 22 22 22 22 22 21 18 17 18 17 18 18 18 18 19 19 19 19 19 19
18 18 17 15 10 9 6 7 6 4 3 3 4 4 4 6 8 10 13 14 16 18 23 26 20 16 19 21 22 22 21 19 17 17 18 18 19 18 16 16 18 18 18 19 20 21 21 22 22 21 20 20 21 21
18 19 16 7 7 6 9 8 7 5 3 3 4 3 3 3 3 3 4 6 5 6 9 13 16 18 21 23 24 24 25 24 23 23 22 20 18 17 15 15 16 18 20 21 21 21 22 21 20 21 22 22 22 22
11 9 5 6 7 9 8 9 8 6 5 4 3 3 4 4 6 8 10 13 15 14 12 8 3 3 5 7 10 11 13 16 17 18 20 21 20 20 20 21 21 21 20 20 22 22 22 23 24 24 24 24 24 24
4 4 5 7 11 10 10 9 8 6 4 2 2 3 3 2 1 1 1 2 2 3 3 3 3 4 6 8 8 8 6 6 8 11 14 15 15 17 18 19 20 21 21 21 20 21 22 23 24 25 25 26 27 27
4 5 10 12 10 11 10 7 5 2 1 1 1 3 2 2 2 5 3 1 4 7 8 8 8 8 8 9 10 11 11 11 11 11 11 12 14 15 16 17 17 19 20 20 22 23 24 25 26 27 28 28 29 29
8 11 11 10 8 7 5 4 4 4 4 4 5 4 3 2 3 7 10 13 16 16 15 15 16 16 14 13 14 15 15 15 14 15 15 16 18 18 19 19 19 20 21 22 24 26 27 28 28 29 29 28 27 29
7 6 6 5 4 5 6 7 7 8 9 12 14 15 18 18 17 18 20 23 25 25 24 23 23 25 25 24 24 23 22 22 21 20 19 19 19 20 23 24 24 23 24 27 28 29 30 31 31 30 28 28 29 30
7 7 6 6 7 9 11 11 14 17 19 21 24 27 29 28 28 29 32 33 34 35 35 35 33 33 32 32 30 29 28 28 28 27 26 24 22 23 25 26 27 28 28 29 31 33 33 32 29 29 30 31 33 34
7 7 7 9 9 10 12 14 16 19 22 25 28 31 34 35 36 36 35 34 34 33 33 33 33 34 36 38 37 36 34 32 30 29 28 28 26 26 26 27 27 28 30 33 33 31 29 29 30 32 33 35 36 38
5 3 3 5 7 11 15 18 21 24 27 29 30 31 33 37 40 38 38 37 32 30 31 33 37 38 38 38 38 38 38 39 34 31 30 28 27 28 27 27 29 30 30 27 26 27 30 32 33 35 37 38 39 39
6 5 10 15 17 19 21 25 29 34 36 36 36 38 40 42 41 37 31 27 28 32 33 34 35 37 39 40 38 37 36 35 32 31 28 25 26 25 26 27 25 24 24 26 28 30 32 34 36 37 36 33 30 27

GFSWCAN_700_spd_069.txt.gz
Wind_Speed
23 19 14 11 10 8 9 14 19 26 30 32 32 32 33 35 33 34 33 34 34 30 27 14 18 20 21 21 22 17 19 26 20 23 16 10 10 13 12 10 10 16 13 14 16 7 9 10 9 11 8 5 6 7
23 18 14 11 11 11 12 16 21 25 31 34 34 35 34 30 31 35 35 35 35 32 30 29 28 30 27 18 24 28 26 12 19 15 21 12 13 11 18 7 16 12 15 9 11 7 5 5 4 7 10 6 7 8
20 16 13 13 14 14 15 19 24 29 32 36 36 37 36 33 33 38 36 34 36 37 39 30 26 17 17 26 30 33 34 27 18 17 18 17 13 13 16 18 13 15 12 14 10 10 14 10 8 7 10 12 14 11
21 16 16 17 17 18 20 24 28 34 33 37 37 38 40 41 35 35 35 34 36 32 41 27 35 28 26 27 30 32 33 38 39 19 17 23 17 15 17 17 15 19 16 16 23 19 10 9 8 8 9 10 12 13
18 17 17 19 21 22 25 28 32 38 38 40 37 41 44 37 33 32 34 33 35 28 37 44 25 14 16 11 24 30 32 38 41 46 17 22 27 16 14 17 21 21 22 22 21 12 16 13 11 6 9 11 14 14
20 20 22 24 25 27 29 31 35 39 42 42 42 41 35 32 32 31 34 31 30 32 34 39 19 5 9 10 13 16 29 36 45 40 36 11 23 22 13 23 24 20 22 25 26 22 15 13 15 15 15 15 16 17
24 24 24 26 28 30 31 35 38 40 41 46 42 32 32 30 30 27 28 31 35 29 24 19 10 8 11 11 10 12 20 34 35 45 44 25 24 24 27 27 23 16 13 12 16 20 24 25 25 24 23 20 18 18
25 24 26 27 29 32 35 38 38 40 43 45 38 33 24 28 31 28 26 31 23 18 16 11 10 10 8 7 10 8 10 20 30 35 46 38 19 26 31 30 21 18 19 18 18 19 21 22 21 21 22 22 22 22
23 25 26 30 31 34 37 39 39 41 46 37 32 33 26 31 30 26 27 22 17 15 10 12 15 9 7 5 9 3 3 9 16 21 42 37 23 25 26 23 20 16 12 15 13 16 20 22 22 23 26 27 26 26
26 29 29 31 32 34 37 39 44 42 40 36 33 24 29 26 22 23 19 17 16 18 26 27 22 17 10 7 6 4 7 11 10 16 20 29 27 30 30 25 27 26 24 23 24 25 25 25 23 22 22 24 25 25
28 28 31 31 33 36 39 40 38 41 36 29 28 25 31 31 19 19 9 7 6 7 11 9 9 7 8 9 12 6 5 3 3 5 19 7 18 23 25 27 31 32 31 30 28 28 23 23 22 23 24 24 22 22
27 30 31 33 35 39 40 40 36 27 23 15 16 28 30 21 12 8 7 7 9 6 7 8 6 7 7 1 3 5 2 5 2 7 8 8 21 18 19 21 18 16 18 20 26 25 21 22 21 19 16 17 18 19
29 32 30 33 35 36 35 26 23 20 10 7 18 11 6 9 13 8 8 8 6 8 10 11 9 7 4 5 3 4 3 3 3 6 4 5 4 7 7 7 10 14 13 12 10 11 11 11 11 11 10 10 13 14
30 30 32 34 31 28 18 14 14 9 10 14 17 11 9 8 8 17 19 15 16 18 17 13 13 6 5 5 4 3 4 3 3 4 3 4 4 3 6 9 4 4 3 2 4 5 6 7 6 4 3 3 4 2
30 30 33 26 25 18 16 9 10 9 12 15 8 7 12 13 18 11 11 18 21 22 19 15 11 7 5 4 4 4 4 4 3 3 6 7 7 5 7 9 4 3 5 7 9 9 8 7 6 5 4 5 6 6
28 29 27 20 18 17 14 7 8 9 12 20 13 12 11 11 13 19 22 20 13 13 13 12 8 5 5 4 4 4 3 3 3 2 4 6 2 3 8 8 7 7 3 3 3 2 3 3 4 6 8 10 11 12
23 25 15 20 23 21 12 9 10 13 12 15 25 30 30 30 24 18 16 17 20 14 14 8 5 5 3 4 4 5 3 3 5 2 5 10 8 6 8 7 8 8 6 7 9 10 11 12 14 15 16 17 18 19
19 17 18 25 24 19 15 16 19 17 20 27 23 22 28 28 23 21 13 11 11 16 14 16 10 8 4 3 2 2 5 6 4 6 3 6 4 3 2 5 7 9 11 13 15 17 18 19 20 21 21 21 21 21
16 13 16 17 18 21 25 27 31 29 28 27 26 27 25 21 18 20 20 19 16 12 10 11 9 11 14 12 7 7 5 5 6 3 8 8 3 1 2 4 7 9 9 10 13 14 15 16 17 18 18 17 16 16
15 17 17 21 21 22 28 21 27 39 21 25 24 20 19 19 17 19 19 17 15 14 16 15 15 12 7 7 12 16 11 10 10 11 9 8 8 9 10 10 10 13 16 18 17 15 15 15 15 15 15 15 16 16
12 15 20 19 21 32 27 11 16 15 19 23 23 16 13 15 16 19 22 22 22 23 19 18 19 17 15 16 18 20 18 16 17 17 17 16 16 17 17 17 19 20 19 20 18 16 14 14 15 15 16 16 17 17
17 18 20 21 29 28 26 13 11 14 12 10 8 9 12 16 18 17 17 19 21 19 19 19 18 18 18 19 20 19 17 17 15 15 17 18 19 20 20 21 20 20 19 17 15 14 15 17 18 18 19 19 19 19
21 23 25 23 18 15 10 14 12 10 6 5 8 9 8 7 6 7 8 11 12 13 13 16 20 20 17 17 19 20 20 20 19 18 19 18 17 16 17 18 18 17 16 17 17 18 19 19 19 20 20 18 18 19
21 22 18 14 10 9 10 11 10 8 6 6 4 3 1 1 1 1 2 4 6 7 9 9 10 14 20 22 24 22 22 22 22 23 23 24 23 23 22 20 18 17 16 17 17 17 18 19 20 21 21 21 22 22
15 13 6 9 8 10 10 12 11 8 8 6 4 3 4 6 7 7 11 13 15 16 16 15 9 2 8 8 7 8 9 10 13 16 19 19 20 21 21 22 22 22 22 22 22 21 21 22 21 21 22 22 22 22
6 6 8 10 11 12 10 12 10 9 6 4 4 4 5 3 1 2 2 4 7 7 6 6 6 7 7 10 10 10 9 7 6 6 7 9 11 13 14 15 17 18 18 19 19 18 19 20 20 22 24 25 26 26
6 5 11 14 13 13 13 11 10 6 4 2 2 1 1 1 2 3 3 1 2 4 5 6 6 6 7 8 9 9 10 10 10 10 11 12 13 14 15 15 16 18 18 18 19 20 20 21 22 24 25 27 28 28
6 11 13 14 15 13 11 8 5 3 3 3 4 3 2 3 3 5 7 11 14 16 16 14 13 14 14 15 16 17 18 17 16 14 13 14 15 17 18 19 19 20 20 20 20 21 23 25 26 28 28 29 30 30
13 14 13 11 9 7 6 6 6 7 7 9 10 12 14 14 16 18 19 20 23 25 25 24 25 27 26 26 26 26 25 25 24 22 21 19 18 19 23 22 22 23 24 25 25 26 27 28 29 31 32 32 30 29
9 8 7 6 6 6 7 8 10 12 14 17 19 21 23 22 23 25 26 27 28 29 29 31 31 32 32 32 32 32 32 31 31 30 29 28 26 24 24 24 25 26 26 27 28 28 29 31 33 33 30 28 29 30
6 5 5 5 6 7 9 10 12 14 17 19 22 26 29 31 30 27 26 25 26 27 29 30 31 32 35 36 37 38 37 35 34 33 33 33 32 29 29 29 27 28 29 29 29 30 32 33 30 29 29 31 33 36
3 4 3 4 5 7 11 15 19 22 26 28 29 30 32 34 36 37 36 33 33 35 33 34 36 37 38 40 41 41 43 42 41 39 38 36 34 31 30 31 29 29 28 27 28 28 27 26 28 30 32 34 36 37
7 4 5 8 13 17 20 24 28 34 36 38 39 38 33 32 34 28 27 28 30 33 34 35 36 36 35 35 35 36 37 38 38 38 38 37 34 31 29 27 27 26 25 24 23 24 26 28 29 31 33 30 26 23

GFSWCAN_700_spd_072.txt.gz
Wind_Speed
30 29 31 28 26 21 18 13 11 14 15 18 23 26 26 27 28 29 34 34 31 32 26 30 26 26 27 25 23 17 18 21 19 23 25 15 14 19 18 13 12 16 14 17 18 11 12 8 12 13 6 6 4 2
31 32 33 28 25 21 16 13 13 15 17 20 24 28 30 32 34 35 35 30 33 33 38 36 11 21 17 18 24 24 28 18 10 13 15 16 15 15 21 10 18 14 18 16 14 8 7 4 10 6 9 4 4 3
35 35 29 26 22 20 14 13 15 17 21 25 28 31 32 33 37 40 33 32 33 38 43 31 18 15 31 27 24 25 28 32 38 21 12 14 13 21 20 22 16 18 14 17 11 13 15 13 9 6 5 9 10 8
35 31 29 23 22 18 15 17 18 21 24 27 31 33 34 36 39 35 33 31 31 37 43 42 38 34 22 14 20 28 32 32 37 40 35 22 12 20 21 19 16 19 18 18 23 21 16 12 10 7 8 10 11 13
36 30 24 25 20 16 16 19 22 24 25 28 33 34 35 39 42 36 30 28 29 29 41 43 30 11 11 13 14 17 24 31 33 37 39 37 19 12 22 21 22 20 20 23 24 17 15 14 17 15 10 10 10 12
30 27 27 22 17 16 24 22 23 25 27 32 35 36 36 40 38 32 28 26 29 31 36 43 23 3 7 13 11 14 13 29 28 32 36 40 33 24 12 26 24 18 18 17 19 20 20 15 12 12 12 11 11 13
30 29 19 17 16 20 23 25 27 28 30 34 35 37 40 41 29 30 26 28 32 31 32 26 10 4 11 11 10 6 8 18 23 31 36 38 44 31 12 26 23 14 10 10 9 13 22 23 22 21 19 19 20 19
26 20 18 15 17 22 27 28 28 30 33 33 32 36 36 35 33 25 22 31 32 29 24 11 9 10 14 11 12 11 10 13 19 24 30 28 30 42 18 27 21 19 18 18 18 17 16 15 17 20 22 24 24 23
19 16 12 14 21 26 28 28 30 32 32 30 32 31 29 29 22 26 20 27 28 25 15 15 19 19 8 13 15 14 8 7 11 18 23 20 25 19 14 13 19 19 20 21 15 13 15 17 18 20 23 25 25 26
16 13 16 22 26 28 28 29 30 30 28 30 30 28 26 25 16 15 25 23 17 16 22 19 15 19 17 17 13 11 8 7 8 10 11 19 27 30 23 9 13 14 19 19 21 19 19 21 22 22 23 24 24 24
15 20 21 25 31 29 29 27 27 26 27 26 25 23 19 16 11 11 10 8 8 8 8 12 12 13 11 12 11 8 7 6 5 7 15 6 20 23 30 24 24 25 26 28 26 28 29 28 24 23 23 25 26 26
22 22 25 31 29 28 25 25 24 22 21 23 19 14 6 7 8 7 7 6 7 5 7 13 16 17 14 8 6 6 6 2 4 9 5 3 9 11 11 12 18 22 23 25 24 21 19 21 22 21 22 24 20 18
21 24 29 28 26 23 23 25 17 14 14 13 12 7 3 8 12 8 8 8 6 12 15 15 18 24 12 7 7 5 3 2 2 5 3 3 3 2 6 7 8 10 13 15 18 17 14 14 17 16 15 14 12 12
22 28 29 24 22 22 24 22 10 10 10 9 7 10 8 8 9 12 13 14 15 19 18 15 19 17 17 7 4 4 3 3 2 2 2 4 6 6 4 5 5 6 6 7 7 8 9 9 8 7 7 7 8 9
27 28 26 18 22 23 19 13 11 11 12 11 7 8 15 12 12 13 11 14 17 19 21 18 17 14 12 6 3 4 3 3 2 1 4 8 8 7 3 6 2 3 4 6 7 7 8 8 8 5 4 4 5 6
24 26 17 20 23 19 18 15 13 13 15 14 15 12 10 9 8 9 15 21 20 19 17 11 10 6 5 4 3 3 2 2 2 0 5 7 4 4 7 9 7 6 6 5 3 2 1 2 3 5 7 8 11 12
22 17 12 18 21 23 17 18 18 20 13 15 19 20 18 17 17 19 19 22 18 12 13 9 5 5 4 4 4 4 3 4 6 2 3 8 5 5 7 8 6 7 6 5 5 7 8 10 12 14 15 17 18 19
16 13 16 21 27 26 23 25 22 22 26 28 20 13 12 13 14 15 21 19 15 8 9 13 11 13 7 4 6 5 6 7 8 7 1 4 3 2 4 4 5 6 6 7 10 12 14 16 17 18 18 18 19 19
12 14 18 20 20 25 29 29 27 31 22 24 20 17 16 16 16 21 18 16 19 18 14 9 8 11 14 16 11 7 8 8 9 10 4 6 3 1 1 1 4 7 8 8 10 12 14 15 15 16 16 16 16 16
15 15 17 17 20 28 30 25 27 39 27 21 21 17 17 17 20 22 20 18 17 16 17 18 16 15 12 11 13 13 13 12 10 8 9 8 7 8 8 9 10 11 12 15 17 18 19 17 15 14 14 15 15 16
15 16 19 19 22 25 27 16 17 16 21 28 26 24 25 22 20 18 19 20 22 25 24 21 18 17 19 16 17 17 13 13 14 14 13 15 15 16 17 17 17 17 17 19 19 19 17 17 15 14 15 16 17 17
16 16 24 26 33 35 26 13 10 10 10 11 12 10 13 14 16 20 19 20 23 22 22 20 19 21 22 23 24 24 20 18 18 18 17 17 17 18 19 20 19 20 20 20 18 17 16 16 16 17 18 18 18 19
16 23 25 40 28 29 14 20 15 13 9 8 10 12 14 13 12 12 12 14 16 20 21 19 18 19 21 24 23 22 21 19 19 19 19 20 20 19 19 19 18 18 19 19 17 16 17 18 19 19 19 19 20 19
17 27 31 22 18 11 14 13 15 15 11 9 7 5 4 5 6 8 10 11 9 7 8 9 11 12 16 20 22 22 21 19 20 20 21 21 23 23 23 23 23 22 22 20 18 18 19 20 19 19 20 22 22 22
23 19 10 14 14 13 13 13 13 13 10 9 7 5 4 4 4 4 7 9 12 13 15 16 11 1 3 7 7 11 13 13 13 13 14 15 17 18 19 20 20 21 21 21 22 23 24 23 23 23 22 22 21 22
11 10 10 12 14 13 12 14 13 11 11 9 6 7 9 6 5 4 6 3 4 6 8 8 7 6 6 5 5 5 7 8 8 6 5 4 6 7 9 10 11 14 14 15 16 17 18 18 19 20 21 23 23 24
7 6 11 14 14 14 14 14 14 13 9 6 7 6 6 4 4 5 6 4 1 3 4 5 6 6 7 8 9 10 11 11 10 10 11 11 12 12 12 14 15 16 17 18 18 18 19 19 20 22 23 25 26 27
8 9 14 13 14 16 15 16 12 9 6 5 5 4 3 3 4 5 5 8 11 13 14 14 14 16 18 18 19 19 20 20 19 17 15 14 15 17 17 18 18 18 19 20 21 22 23 24 24 25 26 27 29 31
13 16 17 17 16 15 13 10 7 6 6 7 8 9 11 12 14 16 17 18 20 22 23 23 23 24 26 25 25 25 26 26 26 25 23 22 20 21 24 23 22 22 23 24 24 24 25 27 28 28 29 30 31 34
18 17 15 13 11 8 7 6 7 8 10 12 14 16 18 18 18 19 20 21 23 24 25 27 28 29 30 31 31 31 32 32 31 30 30 29 28 28 27 26 26 27 27 27 27 28 29 29 30 30 30 32 33 32
14 12 10 8 7 6 6 7 9 9 11 13 17 21 24 26 24 23 23 25 28 30 32 33 34 35 36 37 38 38 37 36 35 34 33 33 34 34 34 33 32 29 29 31 30 29 30 30 30 30 30 29 30 31
11 9 7 7 6 5 6 9 13 16 19 21 23 27 28 28 27 26 23 23 27 31 33 35 35 33 34 35 36 38 39 38 37 36 35 36 36 37 37 36 34 33 30 30 30 28 28 28 28 27 28 29 31 33
9 8 5 3 6 10 14 17 21 25 27 28 27 22 20 24 28 27 28 28 29 31 32 33 34 34 34 35 35 36 37 38 38 37 35 35 36 37 38 37 34 32 29 28 26 25 25 24 25 27 28 29 28 24

GFSWCAN_700_spd_075.txt.gz
Wind_Speed
45 38 34 36 34 34 33 29 23 20 17 14 14 18 21 24 27 28 30 35 32 27 25 27 32 26 23 19 19 16 17 14 18 18 25 13 15 23 21 15 17 18 16 17 21 12 13 6 8 11 5 7 6 7
44 39 37 36 36 34 32 28 21 19 18 15 15 20 24 27 30 29 31 36 35 30 28 37 18 28 22 21 23 26 18 13 9 14 9 8 11 15 26 17 22 16 19 21 15 11 9 7 6 5 8 10 5 5
44 38 37 37 38 34 32 24 19 19 18 18 18 22 25 29 32 32 32 37 36 39 37 36 33 32 31 24 29 33 22 16 28 28 24 14 10 11 22 29 18 22 15 19 16 16 16 12 9 7 5 5 7 6
41 38 38 39 37 34 27 21 19 17 20 19 21 24 27 30 34 36 37 35 33 35 38 44 38 35 15 12 10 14 13 19 24 28 31 34 25 5 10 19 24 24 19 23 23 20 14 9 7 9 12 8 9 11
44 42 40 41 35 31 24 20 15 18 19 19 22 25 27 31 35 35 35 30 28 27 39 42 26 21 21 10 12 11 12 16 25 30 30 32 34 33 23 18 27 25 24 21 19 12 12 10 11 13 12 10 11 9
46 42 41 38 35 28 21 20 19 18 18 23 24 25 28 33 34 34 32 28 27 26 36 41 30 7 7 11 10 11 13 14 19 22 25 27 29 27 13 7 25 24 20 15 14 13 15 16 13 9 11 11 10 10
44 42 41 36 30 21 23 20 20 18 24 23 26 26 29 32 32 33 28 30 29 22 33 30 18 8 12 15 12 11 13 13 13 19 27 28 21 9 15 23 12 20 16 16 11 11 14 17 17 16 14 13 15 16
46 43 39 31 24 24 20 20 17 21 25 27 26 27 29 30 32 34 24 26 21 23 26 12 17 17 18 15 15 16 16 16 18 19 25 24 18 25 26 37 25 12 12 15 13 13 15 14 12 14 17 20 21 20
44 40 32 28 22 22 22 15 18 25 27 26 25 25 27 29 29 22 25 24 19 22 20 27 26 21 10 17 20 21 18 18 17 19 19 17 20 17 18 18 26 15 18 19 13 15 15 16 16 15 15 17 19 21
35 30 25 23 22 16 15 16 23 28 26 25 24 25 26 22 23 16 17 13 13 15 17 11 12 17 15 17 16 12 11 8 10 11 6 15 23 16 20 10 11 15 17 16 14 10 13 15 15 17 18 20 21 23
26 24 24 18 15 19 24 25 26 26 25 22 24 22 20 20 13 7 5 5 6 6 7 11 16 19 20 19 16 8 8 7 5 4 7 5 3 5 18 20 18 14 16 16 17 19 22 22 21 25 26 24 23 24
28 23 19 19 22 20 24 27 27 24 22 22 21 19 15 6 4 6 5 5 4 3 7 15 20 23 24 17 6 6 8 5 4 3 3 6 5 1 8 16 26 31 29 26 26 26 26 27 23 21 21 21 22 23
24 22 23 21 20 21 25 24 22 22 20 17 15 8 4 6 8 6 6 6 4 9 13 16 19 22 12 9 8 6 4 3 5 3 4 5 5 4 3 9 11 14 16 18 18 19 18 18 18 17 15 19 20 17
26 27 29 27 24 20 22 20 21 19 16 14 8 5 6 7 7 7 7 10 11 15 17 19 20 15 16 11 6 5 5 5 2 3 3 5 6 5 3 5 7 5 6 7 9 11 11 11 9 9 9 8 9 8
24 26 26 24 17 22 22 20 18 17 17 10 6 6 9 9 11 11 11 9 10 15 17 17 15 9 10 6 5 5 3 3 2 2 6 10 10 6 4 4 2 5 6 7 8 9 8 6 6 5 4 3 2 3
29 26 21 15 22 22 21 20 16 17 17 11 11 9 6 8 11 13 11 9 14 17 15 9 7 5 5 4 4 3 3 2 3 3 6 10 7 3 4 6 5 7 7 6 4 4 3 2 1 3 5 6 9 11
21 17 14 21 21 20 21 19 17 19 12 11 13 11 17 17 11 13 13 15 16 16 10 5 4 5 5 5 3 3 5 7 6 3 3 8 7 1 5 7 5 5 6 6 4 4 6 8 9 11 13 15 16 16
17 15 18 24 24 24 24 18 19 16 19 24 22 14 14 14 16 18 17 16 17 15 12 10 9 13 8 6 5 9 11 10 10 9 2 4 5 4 1 3 4 3 4 5 7 8 8 9 11 12 13 14 15 16
16 17 20 24 22 19 22 25 31 19 20 23 22 18 18 19 18 17 16 18 18 15 17 18 9 11 10 13 15 14 12 10 11 11 9 2 3 3 2 1 3 5 7 7 9 12 15 16 17 16 15 14 14 14
14 16 17 16 16 18 26 19 23 33 24 25 25 23 20 21 20 17 18 21 19 19 21 25 25 21 17 15 11 11 14 13 12 12 13 8 6 7 8 9 10 11 12 13 15 17 19 20 19 16 15 14 13 14
15 15 18 19 23 29 28 13 16 18 20 23 26 28 27 26 23 24 26 24 23 24 25 25 21 19 20 20 19 15 15 15 14 13 14 15 14 13 16 18 19 18 18 18 19 20 21 21 19 16 15 15 16 17
8 9 13 22 29 37 32 23 14 17 16 16 13 12 15 17 19 20 21 25 27 22 22 19 20 22 22 22 23 23 24 23 21 21 20 18 16 16 17 19 19 20 19 18 19 20 20 19 18 18 17 18 19 19
13 16 23 30 32 31 22 25 17 12 12 12 12 15 17 18 18 17 17 16 14 14 16 17 20 20 20 19 20 22 24 24 23 24 23 22 21 21 21 21 21 20 19 20 20 19 19 18 16 16 16 17 18 18
16 24 34 25 22 10 17 19 19 24 24 19 17 15 14 12 10 9 11 11 10 11 10 10 10 11 13 15 16 17 19 19 20 20 20 20 20 22 23 23 23 23 23 23 22 21 21 21 21 21 22 21 22 23
11 16 15 17 13 17 21 14 17 18 22 18 14 10 6 5 3 1 3 7 9 9 10 8 5 4 1 2 1 5 7 9 10 13 15 16 16 15 16 18 18 19 20 20 20 20 21 22 22 22 21 21 21 21
11 10 11 9 15 16 15 18 21 20 17 12 10 8 7 6 3 4 6 4 4 4 5 6 6 6 6 6 5 5 6 8 9 9 9 9 9 9 9 9 10 13 12 13 14 15 16 17 18 19 19 21 22 22
9 7 14 14 15 17 19 20 18 17 13 10 10 10 9 4 5 6 8 7 6 4 3 5 5 5 7 8 10 11 14 15 15 14 13 13 14 13 13 13 13 15 15 15 17 18 18 20 20 21 22 23 25 26
10 12 11 14 17 17 17 17 14 13 11 8 10 7 4 4 3 4 5 8 10 12 14 14 14 15 16 18 21 21 20 21 21 21 19 17 18 19 19 19 19 19 19 19 20 20 21 22 23 24 25 26 28 30
11 12 13 13 14 13 11 13 9 10 8 7 7 6 7 8 10 13 15 17 19 21 22 23 23 25 26 26 27 27 28 28 28 27 26 23 21 21 23 24 24 23 23 23 24 24 24 26 26 27 28 28 30 31
12 15 16 14 13 11 11 10 8 7 7 8 9 10 12 13 14 17 20 22 23 24 26 28 30 32 34 35 35 35 35 35 35 34 33 31 30 28 27 26 26 27 27 27 27 27 26 26 27 28 29 30 31 31
18 16 15 14 11 8 7 7 7 8 9 10 12 15 17 19 18 22 24 26 28 31 33 34 36 38 39 40 41 41 40 40 40 39 38 37 35 34 32 32 32 32 32 31 30 30 30 29 29 28 28 29 30 31
15 12 10 9 8 7 7 7 10 11 13 15 17 20 22 21 19 20 20 23 25 27 30 32 33 35 37 39 40 41 41 39 39 39 38 37 36 35 35 34 35 35 35 35 34 33 32 30 30 28 27 27 27 28
12 12 10 7 5 6 9 12 16 18 18 19 19 13 12 17 21 24 26 27 28 29 29 29 32 35 38 37 37 38 39 39 38 37 37 37 37 36 34 34 35 36 37 36 35 33 32 30 28 26 25 24 25 26

GFSWCAN_700_spd_078.txt.gz
Wind_Speed
44 45 46 49 36 38 36 32 33 30 28 21 16 13 16 19 22 25 27 29 26 28 27 28 29 26 30 31 23 22 15 10 7 13 10 18 21 20 18 15 18 20 18 19 26 15 13 16 13 15 9 7 7 9
44 42 54 48 40 38 34 31 33 31 26 20 14 14 17 20 23 27 29 32 33 30 28 23 25 31 31 27 23 26 19 17 9 8 8 4 8 6 16 15 21 19 23 15 16 13 16 9 7 7 5 7 8 6
44 41 52 49 43 35 33 33 33 29 24 18 15 14 17 22 24 27 32 34 37 41 36 25 30 28 18 12 17 14 11 14 17 19 24 22 14 10 5 17 14 25 17 22 16 16 17 9 9 5 7 6 5 5
49 42 55 56 43 36 33 33 34 27 22 18 15 14 15 23 25 30 34 34 37 37 31 40 31 24 22 15 11 10 12 13 14 16 21 20 24 21 17 12 13 17 16 22 21 19 15 11 10 9 10 13 10 10
44 49 59 53 42 36 35 34 33 27 21 17 14 12 16 21 27 32 38 36 34 33 39 39 23 19 9 11 12 12 9 11 14 19 25 27 28 26 30 32 25 17 24 23 21 14 11 9 11 13 12 10 9 9
53 55 50 50 37 37 37 37 32 25 19 14 12 13 18 24 30 33 37 32 34 31 35 35 24 9 14 13 16 14 13 14 15 18 21 22 20 18 15 19 25 15 21 22 19 14 15 13 14 12 9 13 11 9
53 51 53 42 38 37 39 35 30 22 14 16 16 17 23 28 31 29 31 32 32 27 31 23 11 17 17 15 21 13 16 16 19 19 22 19 13 15 24 30 20 8 18 20 21 16 15 14 16 16 13 10 12 15
68 60 47 40 40 43 38 31 22 18 18 15 16 25 27 28 27 30 31 29 22 24 21 9 14 16 14 14 17 21 22 22 22 22 23 21 15 24 32 35 27 21 17 20 17 12 8 11 13 13 14 17 19 19
61 55 44 43 44 39 32 27 21 18 15 17 22 22 26 25 25 26 27 27 21 19 12 10 13 12 19 18 17 19 18 18 15 20 22 16 20 20 28 18 17 18 18 19 18 14 11 11 11 14 14 14 14 16
59 48 44 46 38 34 28 23 16 16 17 18 23 24 26 24 24 26 22 20 10 7 8 4 11 15 18 20 17 16 10 8 10 11 11 12 25 19 15 15 19 19 18 19 20 17 15 12 9 11 14 16 17 19
48 49 43 40 38 30 24 19 22 18 19 22 21 24 24 23 23 18 8 4 4 3 3 5 12 18 21 21 16 7 7 7 5 7 6 6 11 7 19 20 20 12 12 16 19 18 17 17 16 16 18 21 24 25
47 45 40 33 30 27 23 22 17 21 24 22 22 23 22 18 10 7 5 4 4 3 4 11 16 18 19 15 7 6 7 4 5 9 6 6 15 9 1 18 21 15 13 15 17 18 21 23 24 24 26 25 22 21
42 39 36 30 25 21 18 16 18 22 22 21 20 17 10 9 10 6 5 4 3 3 9 16 14 16 9 8 8 5 5 5 12 5 6 8 12 11 6 4 11 14 16 22 23 24 24 25 25 22 20 20 19 19
39 34 29 25 27 32 31 27 23 17 17 16 13 10 8 7 7 5 7 5 5 5 12 15 14 11 12 8 5 5 6 6 4 3 4 12 14 12 8 3 5 8 7 9 11 13 15 16 14 12 10 10 9 7
34 32 28 32 32 28 27 27 17 16 16 12 8 7 9 9 9 10 10 4 5 9 13 17 13 9 8 7 5 6 4 3 3 5 12 13 16 10 5 2 4 6 5 4 4 4 6 6 5 5 5 3 2 1
32 28 24 25 26 25 20 12 15 15 16 15 11 11 7 9 10 13 12 9 9 12 13 12 5 4 6 5 5 5 4 3 5 10 10 10 13 7 2 2 4 9 10 9 8 7 5 4 2 1 3 6 8 10
30 23 24 24 19 16 12 13 18 18 11 11 12 13 15 13 8 9 10 11 13 14 12 7 5 6 5 6 6 5 3 11 12 12 11 9 8 8 4 3 4 4 4 4 3 1 3 5 7 9 11 12 13 14
26 24 22 17 17 15 17 18 16 13 17 22 17 14 10 8 9 13 14 16 17 17 15 13 12 14 9 7 8 9 14 12 10 10 11 8 6 5 4 0 0 1 1 1 4 6 6 8 11 13 14 14 14 14
16 15 15 17 15 15 17 19 21 13 19 20 16 15 15 12 12 13 13 15 19 20 20 18 12 16 16 19 18 16 15 13 12 12 11 12 9 5 4 2 2 3 4 6 7 9 12 13 14 14 16 15 14 13
17 17 18 14 14 17 19 16 20 21 19 17 17 15 16 16 14 14 17 19 21 23 25 28 26 23 23 22 21 18 14 12 12 12 11 10 12 11 9 9 8 9 11 13 14 15 16 17 18 18 17 15 13 13
16 16 16 18 18 22 19 11 13 12 14 18 17 19 22 20 20 19 19 20 27 31 32 26 20 20 21 22 23 22 21 18 17 17 16 14 14 14 14 15 16 16 17 17 17 18 18 18 18 17 17 16 15 15
18 20 22 26 33 34 31 24 15 14 13 14 14 13 11 11 13 15 18 23 31 27 23 20 21 22 22 24 26 26 26 25 24 25 24 22 20 19 19 19 17 17 18 17 16 17 16 17 17 16 16 16 16 16
18 19 24 33 36 34 23 34 28 22 14 12 10 9 11 16 18 19 21 23 22 17 17 15 16 19 21 22 22 22 22 23 23 23 24 25 25 25 24 23 22 22 22 22 23 21 21 23 22 20 19 18 19 20
23 27 31 26 28 17 24 26 20 26 27 21 19 19 20 21 20 19 19 16 13 13 12 12 11 10 11 12 15 16 16 15 14 15 16 18 20 21 20 20 21 22 22 22 22 23 22 22 21 20 21 22 23 23
17 21 23 22 18 18 15 14 17 20 23 16 17 16 13 12 11 12 7 3 8 9 8 7 5 3 1 2 2 1 2 1 3 5 7 8 10 12 16 18 19 18 16 16 17 17 18 18 18 18 18 18 19 20
13 11 11 10 17 20 19 17 19 22 21 17 14 12 11 11 9 4 8 6 4 3 5 7 6 5 6 5 3 2 3 5 6 8 8 11 11 11 11 10 11 12 10 11 13 14 15 16 16 17 18 19 20 20
10 9 17 17 16 16 19 21 19 16 15 14 14 12 9 7 6 8 12 9 7 6 2 4 5 6 7 10 12 13 14 15 15 15 15 15 15 16 16 16 15 16 15 14 14 14 15 17 17 18 18 20 21 23
12 13 10 10 15 15 15 15 15 15 14 12 13 11 6 5 4 5 7 9 11 12 12 13 15 17 18 20 22 23 24 24 24 23 22 21 21 21 21 21 21 21 20 20 21 20 20 20 20 21 22 23 24 25
13 12 12 13 12 13 14 13 13 12 11 10 13 12 8 7 7 8 10 12 14 16 19 21 23 25 25 26 27 28 29 30 31 30 29 28 25 23 26 24 25 25 25 25 24 23 23 22 22 22 23 24 25 26
13 11 10 10 10 10 10 15 9 9 9 9 9 10 11 12 13 15 15 16 18 20 22 25 27 30 32 34 36 36 38 40 41 41 41 39 37 35 34 31 28 27 27 27 27 28 27 26 25 25 25 25 26 27
11 10 8 8 10 9 10 11 10 8 9 10 11 11 12 12 13 17 20 23 24 26 28 30 33 35 36 37 39 40 39 39 40 41 42 42 42 41 40 39 38 35 33 32 32 31 30 29 29 28 27 27 28 28
15 14 13 12 10 9 9 8 9 9 9 11 12 15 17 20 20 20 20 22 24 26 28 30 32 33 36 38 39 41 41 40 40 42 43 42 40 39 39 37 36 36 36 35 34 33 33 31 30 29 29 28 28 28
14 11 9 9 9 7 7 8 10 11 13 15 17 17 14 12 17 20 22 23 25 26 27 29 32 35 37 38 37 38 39 40 41 41 40 38 37 36 36 36 36 34 34 33 33 32 32 32 31 30 28 27 25 23

GFSWCAN_700_spd_081.txt.gz
Wind_Speed
54 48 47 44 48 38 34 31 36 32 32 34 29 24 19 15 13 14 16 19 24 30 25 26 23 29 30 26 23 20 11 2 6 3 5 1 6 7 13 13 17 19 18 19 24 13 13 20 16 18 12 12 11 9
52 53 50 43 47 43 40 31 33 32 32 34 30 24 19 16 13 15 17 20 26 30 28 16 31 30 25 24 15 16 10 6 4 5 5 4 7 8 7 14 22 17 18 18 14 9 9 7 7 5 9 8 10 9
53 53 49 46 43 50 46 33 31 31 31 33 29 23 18 14 13 14 21 27 30 31 27 21 29 23 22 16 11 10 10 8 7 9 11 12 12 14 11 6 8 20 18 17 16 14 13 13 9 10 5 7 5 6
54 56 47 40 46 47 45 36 32 30 31 32 27 22 17 13 11 15 25 31 36 35 17 30 24 18 9 9 9 10 10 9 10 11 13 15 17 15 21 20 18 13 16 20 23 18 14 12 7 11 13 12 12 11
53 54 48 48 41 46 42 35 33 30 33 31 25 19 15 11 13 20 28 33 36 31 32 29 17 7 8 10 9 12 13 11 12 15 17 20 24 23 27 30 33 23 19 20 19 14 11 5 9 12 14 12 10 7
52 47 42 46 50 50 42 37 36 33 34 29 23 18 12 9 17 25 28 31 33 35 33 27 12 5 14 13 11 13 16 12 16 19 21 24 21 19 14 18 27 22 22 17 23 14 14 13 10 10 10 10 14 12
51 48 40 51 55 47 47 42 36 35 33 27 22 16 7 10 19 25 27 31 32 32 29 17 5 12 13 13 13 11 13 16 18 22 26 24 23 22 26 30 11 18 13 15 22 17 15 14 13 11 11 10 8 10
50 47 42 48 55 53 46 39 35 36 31 26 21 12 8 13 23 24 25 28 29 28 22 6 6 7 11 13 17 15 16 17 19 17 21 21 21 21 28 29 16 23 14 13 18 18 15 15 13 10 10 10 17 16
49 44 49 56 57 41 38 36 36 34 31 24 18 10 5 18 23 24 24 26 28 25 11 4 3 5 13 19 19 16 16 15 14 16 19 15 20 17 23 13 6 14 22 22 17 21 15 14 13 10 11 11 10 13
44 49 59 55 48 43 41 40 37 33 26 18 13 8 15 19 21 23 24 25 17 6 3 2 2 9 14 18 18 14 8 8 9 10 14 10 13 23 17 10 13 16 17 19 11 16 18 15 14 14 12 11 11 13
47 55 58 51 50 44 42 40 35 27 21 21 21 14 17 20 21 20 13 7 4 1 1 1 8 13 14 15 15 6 6 6 5 6 8 6 12 22 10 8 14 22 21 16 15 20 22 17 16 16 14 14 16 17
60 64 57 51 46 44 41 36 28 28 27 20 18 15 15 17 14 8 6 4 3 3 3 6 12 13 13 11 6 5 5 4 5 11 6 6 17 18 7 6 15 17 13 13 12 12 14 15 16 18 20 22 23 25
70 65 58 52 45 42 37 33 31 27 24 24 16 11 8 9 10 7 6 4 4 5 5 7 13 13 7 5 7 4 4 5 12 5 5 6 21 19 11 2 13 16 11 12 14 16 18 21 25 27 26 25 23 20
56 51 45 42 37 35 37 34 26 29 19 14 12 9 8 8 8 8 8 6 6 6 5 8 10 10 9 5 5 5 4 6 4 3 4 18 19 20 10 6 5 11 11 9 12 15 17 17 16 15 14 12 11 9
47 43 40 41 42 37 29 26 31 21 16 13 8 9 14 12 10 7 9 10 7 7 6 9 12 9 5 7 6 5 4 4 4 4 15 18 18 17 10 5 4 6 7 9 6 4 4 4 4 4 4 4 2 2
50 48 40 36 33 32 27 23 21 18 18 15 11 11 8 9 10 10 13 13 8 9 9 10 7 4 6 5 6 6 3 3 8 12 14 15 17 15 11 6 2 5 9 9 9 8 7 5 3 1 2 4 6 9
38 39 31 28 25 28 24 18 16 20 12 11 14 17 16 13 10 13 15 16 14 13 11 9 4 5 5 6 7 7 6 4 10 13 12 12 14 14 10 4 1 2 4 6 6 4 1 2 3 5 7 8 10 11
30 26 27 19 16 16 18 20 17 12 13 13 11 10 9 9 13 16 14 15 15 16 15 16 13 13 9 11 12 11 13 18 19 15 13 13 12 13 10 5 3 2 2 2 1 1 1 4 7 9 10 11 12 12
20 22 19 14 16 19 21 17 16 10 13 10 11 12 14 14 15 15 16 18 20 19 20 21 13 15 14 16 21 22 21 17 14 14 14 13 11 12 12 8 3 2 2 3 5 5 7 9 10 11 12 12 11 10
17 19 19 19 17 15 14 10 14 14 9 7 8 10 11 11 13 15 16 20 21 23 26 32 29 22 20 20 22 23 22 21 20 16 13 12 11 11 11 12 13 12 11 11 12 13 13 13 14 13 14 12 11 11
21 19 16 16 18 17 11 8 7 5 1 3 4 6 10 12 14 16 18 21 25 31 34 26 22 22 25 22 24 24 22 21 20 21 19 18 18 17 17 16 15 16 17 17 16 16 16 15 15 12 13 13 12 12
18 19 20 17 17 13 11 10 6 6 5 7 8 9 10 11 11 13 17 21 25 24 22 21 20 23 25 26 25 24 25 25 23 23 23 23 23 25 24 23 22 20 18 18 19 18 17 18 17 17 17 17 16 15
18 18 20 23 25 16 12 17 17 16 13 14 13 12 10 8 11 15 18 21 23 18 20 21 19 19 19 20 23 23 22 20 19 19 19 18 18 19 21 22 22 22 22 23 22 22 21 22 22 21 20 19 19 19
19 24 20 14 17 15 20 23 18 18 24 24 21 21 19 21 21 21 23 19 14 16 16 15 14 14 13 12 12 15 16 15 13 11 10 12 14 15 17 18 19 18 19 20 20 21 22 21 20 20 20 20 20 19
17 19 11 16 14 21 20 11 15 19 22 21 19 17 18 15 16 18 15 6 0 2 1 2 4 4 3 3 3 5 5 5 4 3 1 3 6 8 9 11 12 12 14 15 16 16 16 15 15 14 14 14 15 15
15 13 12 10 16 18 15 15 20 23 17 17 17 17 15 13 12 7 4 8 5 4 7 7 7 7 6 4 4 2 2 4 5 7 8 10 12 14 15 15 14 16 12 11 12 14 15 15 15 15 16 16 16 17
10 8 13 13 10 11 16 20 21 18 18 17 18 18 13 7 6 7 8 11 6 6 6 3 3 4 6 7 8 10 12 14 16 16 16 17 19 21 22 21 20 20 19 19 17 16 16 16 17 17 17 17 18 19
16 17 13 11 15 17 14 14 14 15 16 16 14 12 6 7 5 6 8 11 13 11 12 14 14 15 16 18 20 21 22 22 23 24 23 22 22 25 26 26 26 26 24 23 23 22 21 19 19 18 19 19 20 21
16 13 14 14 13 13 14 16 14 13 13 13 12 13 9 10 8 5 4 5 8 11 15 18 21 23 25 26 26 27 29 31 33 34 35 34 32 33 35 33 31 31 30 29 28 27 26 24 23 23 22 21 22 22
12 12 12 13 13 13 14 12 11 11 11 12 11 12 10 8 8 9 11 13 14 16 19 21 25 27 29 30 31 31 33 35 37 39 41 40 39 39 39 40 39 38 35 33 32 32 32 29 27 26 24 24 23 23
15 12 12 11 11 10 9 12 11 11 11 10 9 8 9 11 12 13 16 18 19 21 22 25 28 30 32 33 34 34 32 34 36 39 42 43 43 43 41 40 38 37 36 34 33 32 33 32 31 29 27 26 25 24
14 14 12 9 12 12 12 11 9 7 7 7 9 10 12 13 15 17 16 17 20 22 25 28 29 28 28 29 32 35 36 35 33 34 35 38 40 41 41 42 41 39 37 35 33 30 29 29 28 27 25 24 24 23
16 13 12 11 11 10 7 4 4 6 8 10 12 14 15 15 14 15 20 22 23 24 25 27 28 28 29 32 34 33 32 33 34 36 36 36 37 37 37 35 32 31 32 31 30 29 27 26 25 24 24 23 23 22

GFSWCAN_700_spd_084.txt.gz
Wind_Speed
60 58 53 50 45 47 35 36 29 28 33 36 35 34 30 26 21 16 12 10 11 16 21 24 21 26 23 20 12 10 6 7 4 2 0 1 3 3 4 7 4 13 11 13 16 9 13 15 18 19 11 12 11 11
61 55 58 54 48 46 40 45 38 28 37 35 34 33 32 27 23 16 12 10 13 19 24 26 21 26 21 16 9 4 5 5 3 3 4 4 5 6 6 4 13 11 15 8 10 9 10 5 4 6 6 10 9 9
53 55 51 50 44 41 46 40 38 35 35 35 32 34 33 27 20 16 12 9 15 21 26 14 26 21 17 10 6 5 5 5 5 7 6 4 4 9 7 8 9 10 21 23 17 16 14 14 11 9 11 7 5 5
58 57 49 52 43 48 39 44 42 34 28 36 33 35 32 25 20 17 12 12 18 23 14 22 24 15 9 8 6 6 6 7 8 10 12 12 11 12 12 15 21 20 12 21 26 18 11 8 9 9 13 14 13 10
59 60 56 46 43 48 44 51 46 35 29 33 32 33 29 23 20 16 14 13 17 20 20 22 17 9 7 11 9 10 10 11 10 13 15 17 18 18 21 21 25 23 28 20 14 19 15 9 6 10 12 13 14 12
61 63 44 47 44 43 52 46 43 33 32 34 34 32 28 22 19 16 21 21 26 26 21 20 13 4 8 8 7 8 10 9 13 16 18 17 14 16 13 22 28 21 17 26 25 19 18 12 8 8 10 11 11 12
61 56 53 42 41 42 51 47 44 38 36 35 34 30 24 20 13 14 15 17 22 20 19 10 2 4 5 8 9 11 12 13 14 16 15 15 14 15 24 29 20 11 15 22 24 19 21 14 12 11 12 11 9 11
58 50 52 38 32 43 51 52 45 40 40 36 34 29 24 16 11 16 20 19 21 20 15 2 2 4 4 9 13 13 12 13 13 10 14 16 18 16 10 17 14 15 26 22 16 16 21 16 14 11 11 12 13 14
58 45 45 45 41 56 55 48 44 42 38 36 31 27 22 13 17 16 20 21 23 17 9 3 3 2 4 11 14 14 12 9 9 9 10 14 13 8 25 21 12 9 25 19 14 14 20 19 16 13 12 12 12 12
57 40 42 42 49 61 54 48 45 41 38 35 30 25 19 14 13 13 17 22 19 5 2 1 1 3 8 10 12 12 6 7 6 6 11 10 8 23 23 20 4 11 25 20 16 10 20 20 18 14 12 13 13 14
46 40 47 41 47 57 53 51 49 46 40 36 31 26 23 19 12 15 12 8 5 3 2 3 1 7 8 8 10 4 5 5 4 5 9 5 10 27 23 16 8 10 19 17 16 9 15 20 19 15 13 14 14 15
43 41 43 55 56 56 54 50 44 42 38 32 26 23 19 12 9 9 9 7 6 5 5 2 4 8 9 6 3 4 3 3 2 8 6 5 13 25 24 13 7 9 15 15 12 12 11 16 20 19 15 16 18 19
46 45 48 56 62 49 47 44 42 35 36 33 25 18 10 11 13 8 9 7 6 4 4 2 3 7 4 4 3 2 3 3 9 4 4 7 21 23 22 11 8 10 14 15 11 9 13 14 15 15 18 21 24 26
43 59 47 60 54 52 48 43 42 41 37 26 21 16 10 8 10 13 11 7 4 6 5 3 4 4 5 2 2 4 3 3 3 4 4 15 18 20 20 14 7 9 12 13 13 14 16 20 21 23 22 20 18 15
65 69 59 58 52 47 45 44 42 35 26 27 11 9 17 14 11 9 8 7 7 7 7 4 4 4 3 3 3 4 4 4 4 4 13 14 14 16 18 14 10 8 11 14 13 11 10 10 11 11 9 8 6 6
64 63 52 48 47 46 45 42 31 29 20 15 11 11 14 18 14 11 10 11 11 9 8 5 4 3 4 3 5 6 4 4 1 6 10 13 13 15 17 13 11 7 4 6 10 10 8 7 5 4 4 4 6 7
69 63 55 52 48 44 38 32 33 24 17 11 16 17 11 12 12 11 12 15 15 12 10 6 3 2 3 6 8 8 10 11 10 10 15 14 14 12 13 12 9 3 1 3 4 5 6 4 1 2 4 7 9 10
59 55 48 44 39 36 32 24 20 12 14 18 17 16 16 14 12 12 14 17 18 17 14 13 10 13 8 10 11 14 15 16 17 20 18 15 14 13 10 9 7 4 2 3 3 0 1 2 4 5 7 8 10 11
41 40 33 28 23 21 25 21 17 12 17 19 16 13 12 11 11 12 15 18 18 18 20 19 13 15 12 8 10 14 19 24 25 17 13 13 13 13 12 10 9 6 6 6 6 5 5 7 9 9 10 11 11 11
23 23 26 20 19 18 18 11 21 13 17 17 16 15 14 13 14 16 18 18 18 22 25 28 29 24 19 19 21 19 21 23 23 22 21 19 16 14 13 12 12 12 11 11 11 12 11 11 14 12 12 12 11 11
26 25 23 18 18 19 12 12 14 13 15 13 14 13 12 13 14 15 16 18 22 26 28 25 23 22 22 24 26 27 26 25 24 23 20 18 19 20 21 20 18 16 15 17 17 16 14 11 14 14 14 14 13 14
19 22 23 21 19 16 9 11 12 14 11 11 8 6 5 7 10 12 15 19 21 18 17 15 18 22 25 28 28 27 26 25 23 22 23 21 20 20 21 21 21 21 22 22 21 20 18 19 18 18 17 19 19 19
22 20 17 16 12 8 7 11 13 11 7 9 7 3 3 4 6 9 12 13 16 17 21 23 24 24 23 23 22 22 22 22 21 18 17 16 17 17 16 16 17 17 18 20 19 20 21 21 20 19 20 21 21 20
19 20 18 10 9 8 10 11 11 11 8 10 9 9 8 10 13 14 16 16 15 17 17 18 17 16 16 16 16 16 15 15 15 13 12 11 10 8 8 9 10 11 13 17 19 19 21 21 21 20 19 19 19 19
23 16 7 11 10 12 12 12 10 10 9 10 11 8 6 8 11 15 18 12 9 9 9 8 7 7 5 4 2 3 4 4 5 6 5 3 5 8 10 11 12 12 10 10 11 11 12 13 14 15 14 14 15 15
15 12 10 10 14 12 10 9 12 15 14 12 10 9 13 13 11 9 13 7 7 4 4 6 8 8 6 5 5 4 5 7 8 7 7 9 12 14 16 17 16 14 19 18 16 17 17 16 16 16 16 16 17 17
10 8 14 11 7 6 8 11 12 11 11 10 11 12 10 5 5 8 7 10 11 8 8 5 2 1 2 4 5 7 9 11 13 15 17 18 21 24 25 24 23 22 23 22 23 22 21 19 19 19 19 19 19 18
10 10 7 7 6 7 8 7 7 8 10 12 12 10 5 5 8 11 10 13 16 14 11 12 13 13 13 15 16 18 19 20 21 22 23 23 25 28 29 29 29 28 28 28 28 28 26 25 24 24 23 22 21 20
11 10 11 11 10 8 8 9 10 10 10 9 10 12 15 16 14 9 8 8 9 10 11 13 15 17 19 21 22 24 26 28 29 31 32 32 30 31 34 35 36 37 36 34 33 33 33 32 31 29 28 27 25 23
12 9 9 8 9 10 12 12 13 13 14 14 14 12 12 12 11 11 10 11 12 14 15 18 20 22 24 25 26 27 29 30 32 33 35 34 34 35 35 37 38 39 40 40 38 37 35 36 35 32 33 30 28 26
14 12 11 11 11 10 11 13 13 12 11 12 13 13 13 14 14 13 13 13 16 18 20 22 22 24 26 29 30 31 29 31 32 34 35 36 36 35 35 35 35 35 35 36 37 38 38 35 33 33 33 32 31 28
12 16 13 10 11 10 9 10 10 9 10 10 10 11 12 13 14 15 16 17 18 18 20 23 27 30 31 32 32 31 30 31 34 34 34 34 34 36 37 38 39 38 37 36 35 35 37 37 33 31 29 28 28 27
15 14 13 11 13 14 13 10 8 7 8 9 10 10 12 14 18 17 16 17 19 23 26 28 29 29 30 30 30 30 34 35 34 33 34 35 37 38 38 37 37 36 35 35 33 32 32 33 32 29 26 24 23 23

GFSWCAN_700_spd_087.txt.gz
Wind_Speed
33 51 52 43 51 47 43 49 47 38 41 41 37 40 40 35 32 27 22 16 13 11 10 12 15 14 18 15 13 8 4 4 3 2 1 3 4 5 4 4 2 6 8 12 17 5 10 12 14 14 8 10 12 14
34 60 45 40 52 51 39 52 42 39 45 44 37 40 39 35 32 26 21 17 13 10 10 14 13 18 17 12 10 4 4 2 2 1 2 3 4 6 5 3 9 4 10 5 7 5 10 6 6 3 7 10 10 7
39 47 45 52 55 51 45 53 43 32 32 38 37 38 37 35 30 26 21 16 13 11 15 14 16 17 13 8 7 4 4 4 4 5 6 5 6 7 5 7 13 12 16 20 15 15 16 10 9 9 9 11 9 5
42 47 57 53 53 47 42 58 46 36 34 30 39 37 36 34 29 25 20 17 14 11 14 14 18 14 9 7 7 5 6 5 8 10 10 10 9 12 11 13 19 13 18 17 21 23 14 10 11 11 11 13 12 11
49 50 25 55 56 47 41 55 41 45 40 33 39 36 37 33 29 24 21 17 12 10 16 17 17 10 7 8 7 6 8 9 12 12 12 13 16 13 16 18 20 14 15 16 14 17 22 15 11 12 9 11 14 14
58 44 30 53 50 47 50 49 48 45 42 40 33 41 35 32 27 23 20 18 17 15 18 13 10 7 7 6 5 5 6 9 12 13 15 11 8 11 9 14 22 17 13 18 25 25 20 20 17 13 10 10 10 11
48 39 38 56 53 35 44 38 55 44 40 34 31 33 33 30 26 22 18 17 12 16 16 8 6 7 5 4 5 9 10 10 14 14 9 9 10 12 16 19 15 18 18 17 25 32 22 19 22 17 14 12 11 10
42 32 52 52 51 34 32 43 48 42 45 35 35 36 32 29 24 20 18 15 15 17 14 5 5 6 5 4 7 9 10 11 10 9 9 11 11 10 8 24 25 21 20 20 18 22 25 19 25 19 16 12 10 12
41 48 53 48 43 38 31 42 52 47 42 37 36 33 29 26 22 19 20 19 19 16 9 7 6 4 5 6 7 9 8 6 6 7 7 9 6 5 25 29 23 17 17 15 18 19 21 16 23 18 15 13 10 12
47 55 56 50 46 35 42 54 54 49 42 40 39 34 30 27 23 20 15 20 19 17 12 10 6 4 4 6 6 8 4 3 4 4 8 7 4 14 26 29 23 15 11 9 16 14 14 17 20 19 17 16 13 12
57 56 57 52 40 39 50 58 54 49 46 42 40 37 29 26 22 18 12 9 7 6 10 11 6 3 3 5 6 4 3 4 2 3 6 4 7 19 26 26 17 12 5 7 12 14 9 15 20 21 20 16 13 13
60 60 61 46 37 45 51 56 53 50 45 41 37 29 26 21 16 8 8 9 8 8 12 10 6 3 3 4 4 4 3 3 4 5 4 4 10 21 23 22 16 10 7 9 12 14 12 11 16 21 18 18 19 18
60 61 52 37 51 53 54 55 54 45 45 41 33 26 15 14 14 10 10 8 9 11 11 10 8 5 3 3 3 3 3 3 7 4 4 5 15 20 20 20 16 11 9 10 13 14 10 8 8 10 13 14 16 19
59 51 52 52 56 55 58 52 48 47 40 35 26 19 14 8 10 16 15 12 9 9 11 11 8 5 3 3 4 2 3 3 4 4 4 10 17 17 18 19 15 12 10 13 15 14 10 12 14 17 19 21 23 25
49 44 40 55 57 58 56 59 48 43 42 28 14 12 17 15 12 14 17 15 11 11 12 11 7 5 4 4 4 4 3 5 6 5 6 9 13 15 17 18 15 11 9 10 13 13 13 13 13 13 13 13 13 12
38 43 59 65 59 57 52 51 50 44 33 22 12 10 14 21 17 14 17 15 13 13 13 10 6 4 6 5 6 6 4 6 6 6 6 10 14 16 17 16 15 10 9 6 7 10 11 6 5 4 5 6 6 7
47 67 70 63 62 57 52 48 43 37 25 13 18 18 13 15 19 17 16 14 14 15 14 8 6 6 5 5 6 8 10 12 12 14 16 15 16 17 16 14 13 11 6 4 3 4 7 6 3 2 3 5 7 9
67 70 63 64 59 53 47 44 38 23 20 16 17 18 16 13 18 18 17 17 18 17 16 14 9 10 7 7 10 10 11 12 14 17 20 22 22 18 17 14 11 10 7 6 5 8 8 5 4 7 7 8 9 10
76 70 59 51 47 44 40 41 38 13 16 20 18 18 20 19 17 16 17 18 18 18 19 17 11 14 13 12 8 14 17 16 17 19 19 17 15 14 13 12 11 11 11 9 9 10 10 10 9 10 11 12 13 12
53 45 43 38 40 44 24 16 29 15 15 18 19 18 18 18 17 16 17 17 18 20 23 23 21 20 18 17 17 20 25 22 22 21 21 22 21 21 19 17 15 14 13 14 14 15 15 15 16 13 12 13 14 13
30 37 37 31 32 32 17 13 19 14 15 19 18 16 16 16 17 17 18 18 22 27 21 15 14 15 18 22 24 27 28 27 27 26 23 21 19 18 19 19 20 21 21 20 19 17 17 17 18 18 16 15 16 15
36 31 31 30 28 21 10 14 15 17 15 18 20 18 16 15 15 16 15 19 21 14 12 11 13 17 20 23 25 26 27 27 26 24 21 19 18 19 20 20 20 20 20 20 20 20 21 22 21 21 20 20 21 20
27 27 26 23 15 10 13 18 19 17 12 16 16 13 10 9 10 12 14 14 12 12 17 18 19 22 25 25 25 25 24 22 21 20 18 16 15 14 14 14 15 16 17 18 17 17 17 18 19 20 21 23 23 22
21 23 19 13 10 8 22 21 21 15 12 16 15 10 9 8 8 12 16 14 12 16 18 20 19 18 18 17 17 17 16 16 16 14 13 12 11 10 8 6 6 7 9 10 11 12 13 15 17 18 19 20 21 22
18 13 6 9 10 13 17 19 19 17 14 14 13 11 8 8 8 11 13 11 11 11 10 11 10 8 6 6 6 6 6 6 5 7 8 9 8 7 7 9 11 13 14 13 13 15 16 15 14 14 14 15 15 16
10 7 9 11 13 12 13 15 16 16 13 13 12 10 10 11 10 7 11 9 7 5 1 3 6 8 7 6 5 5 4 3 2 2 4 6 9 12 15 17 18 19 22 24 24 23 22 21 19 18 18 19 19 18
9 6 13 11 12 12 12 13 12 14 15 12 13 12 12 7 7 9 7 7 8 9 7 6 3 2 1 2 4 4 5 7 9 11 14 17 20 22 23 25 25 25 26 27 27 28 27 26 25 24 23 22 22 22
10 10 7 12 13 10 10 11 12 12 12 12 14 13 7 9 8 7 7 7 9 12 10 9 10 12 12 13 14 14 15 17 19 21 23 25 26 29 30 31 31 31 31 31 31 31 32 31 30 30 29 28 28 28
11 9 12 12 13 12 11 11 11 11 10 9 10 12 12 12 11 10 7 8 9 11 13 14 14 14 15 17 18 20 22 24 26 28 29 29 29 31 33 34 35 36 37 37 37 37 36 36 35 35 33 33 34 33
13 13 12 14 14 13 11 9 9 9 10 11 11 11 11 12 12 11 10 8 8 8 11 13 16 17 19 21 23 25 27 29 30 31 32 31 31 31 33 35 37 39 41 41 40 38 39 39 38 37 34 34 36 35
18 14 13 12 12 11 10 10 11 11 11 11 12 12 11 10 10 9 9 11 13 14 16 17 20 22 25 26 27 29 30 31 31 33 34 34 35 36 38 38 38 38 37 37 38 38 37 37 37 36 36 35 34 35
17 16 13 12 11 10 10 10 10 10 9 9 10 10 9 9 10 10 11 13 15 19 21 22 24 25 28 30 30 30 30 32 33 33 35 37 39 38 38 37 38 39 38 38 38 37 37 36 35 35 36 36 35 33
14 13 14 14 12 10 9 10 9 8 8 7 7 7 8 9 12 13 15 18 20 22 24 26 28 29 29 29 31 32 32 32 34 34 34 34 35 37 37 38 38 39 39 39 37 36 34 33 32 32 32 32 32 31

GFSWCAN_700_spd_090.txt.gz
Wind_Speed
23 21 26 30 32 42 31 40 42 35 46 44 47 51 50 47 38 35 26 25 22 16 12 11 10 13 15 16 15 12 7 4 3 2 1 1 2 3 4 3 3 4 5 7 10 6 4 7 8 5 4 6 8 9
24 23 30 29 50 32 29 42 39 40 49 52 50 50 43 40 36 34 27 26 21 16 10 10 12 13 15 15 12 11 8 5 3 2 1 1 3 3 3 3 5 5 9 4 8 8 4 2 6 4 9 8 10 8
28 25 27 31 44 47 33 43 38 48 50 41 37 42 42 41 37 32 28 28 20 15 13 13 9 13 16 13 12 9 6 8 7 6 6 4 3 6 3 5 13 13 11 14 14 4 9 8 8 15 11 11 9 7
33 27 27 25 31 36 44 39 45 50 43 48 42 42 43 40 36 31 29 23 24 16 14 13 12 18 16 10 11 8 8 8 7 8 9 8 8 10 9 14 19 17 18 20 20 18 16 15 18 14 12 12 14 12
36 32 25 26 40 43 51 47 47 50 41 47 44 43 42 39 35 30 28 26 21 16 8 12 17 18 11 10 9 6 6 8 9 10 8 9 12 11 12 14 12 12 11 14 15 14 17 19 18 16 11 11 11 13
36 32 26 33 48 39 55 51 50 47 39 45 49 43 40 37 33 32 28 29 20 16 14 14 14 14 10 9 7 5 6 6 9 10 10 8 7 8 7 11 14 16 21 20 23 27 29 19 24 15 11 13 12 11
38 32 34 36 45 44 49 55 54 51 39 44 50 46 40 37 34 33 28 24 22 18 15 9 12 12 11 9 6 6 7 9 10 11 8 5 7 9 11 13 21 23 25 24 25 26 29 26 20 21 16 15 11 10
38 34 48 32 28 39 47 51 56 54 45 46 41 46 44 38 34 32 26 20 16 14 13 9 10 10 10 9 7 6 8 9 8 9 6 6 9 7 4 21 24 27 25 24 17 16 15 19 27 14 16 16 13 11
38 44 48 41 36 47 45 47 52 56 51 41 36 34 39 36 32 28 23 22 19 16 11 12 13 9 10 9 7 8 8 6 5 5 5 6 5 4 16 24 26 23 22 15 9 8 11 12 19 15 20 16 15 12
49 51 41 36 47 49 44 42 51 56 49 41 37 38 32 33 28 24 21 18 20 23 26 21 17 12 9 7 6 5 4 3 2 2 4 6 2 7 19 23 23 19 15 8 1 5 9 7 14 14 21 20 16 13
51 48 40 39 51 50 39 43 56 57 50 45 44 34 30 31 25 21 12 9 10 8 12 21 19 12 10 8 7 4 3 2 2 3 3 4 1 11 19 21 21 16 10 5 1 1 4 3 8 14 18 18 19 17
52 45 41 59 50 44 46 54 56 54 48 44 40 31 35 27 13 12 9 9 8 10 10 19 18 12 10 8 6 5 4 3 3 3 4 4 2 15 19 19 20 15 10 5 5 7 8 8 8 12 16 21 24 22
45 43 53 53 46 42 46 49 54 50 47 44 33 28 20 16 13 11 12 10 10 9 17 20 17 13 10 8 6 5 4 4 3 4 4 5 6 15 16 18 19 16 11 7 7 9 9 10 9 12 14 16 16 14
47 52 53 47 43 45 52 56 55 51 49 39 22 21 12 10 13 15 18 13 11 11 18 17 14 11 9 8 5 4 4 5 3 5 5 3 8 11 15 18 19 17 14 9 7 9 10 12 12 11 12 14 15 17
49 55 50 43 45 49 55 56 53 50 47 24 13 11 16 15 13 15 18 13 14 15 16 16 14 10 9 5 5 5 4 5 7 8 7 4 6 12 15 17 18 18 16 11 7 7 10 11 12 13 13 12 13 12
52 55 49 48 49 51 58 55 51 46 42 21 12 13 20 19 17 15 16 18 17 16 16 16 9 6 8 5 7 7 6 7 6 7 8 8 10 14 15 17 16 15 14 12 8 5 5 7 8 4 3 3 4 5
55 54 51 51 53 60 54 50 47 43 20 11 17 18 18 16 19 13 14 20 19 17 18 10 7 7 5 5 7 8 7 5 6 8 12 14 16 16 17 18 16 14 12 10 8 7 7 7 7 4 2 4 5 6
51 57 49 54 61 59 54 52 43 11 14 17 21 17 13 13 17 18 17 18 18 17 17 14 8 9 5 5 8 7 7 10 11 13 15 17 18 18 16 14 13 11 10 9 8 7 8 8 9 8 6 7 10 9
45 54 53 60 62 60 53 40 29 12 19 20 16 16 17 12 14 19 19 19 17 16 17 16 9 9 10 14 16 13 12 14 14 17 19 18 17 16 15 13 11 12 11 11 11 12 12 12 11 10 10 11 12 12
43 61 63 62 59 53 28 27 22 12 21 20 16 13 13 14 14 17 17 17 18 19 19 21 17 14 15 14 13 15 17 21 24 22 21 20 20 19 17 17 18 17 17 15 14 14 13 13 14 14 15 14 14 14
65 64 63 61 55 48 13 29 24 15 12 14 17 18 17 18 19 18 18 18 18 20 18 13 11 14 18 20 23 25 27 26 27 26 25 23 22 21 18 17 17 16 16 18 17 18 19 19 20 19 17 16 16 16
62 52 45 42 36 25 12 21 26 13 14 14 18 19 18 17 16 16 16 17 19 14 11 12 15 17 19 20 23 24 24 24 24 24 23 23 22 21 19 17 17 17 15 14 15 15 17 18 19 20 21 21 20 20
38 37 37 32 24 16 11 14 17 18 12 16 21 18 17 15 15 14 15 17 12 9 12 13 14 17 20 22 24 25 26 25 23 21 20 18 18 17 16 13 13 14 13 11 10 10 12 14 16 16 17 18 19 20
30 33 32 23 12 14 16 17 18 19 15 20 20 15 14 14 12 12 15 12 10 13 12 14 17 19 21 21 20 18 16 15 15 15 15 14 12 12 12 11 10 7 8 9 10 11 11 12 12 12 12 13 14 16
22 18 11 12 12 15 18 23 24 20 20 22 20 14 11 12 12 12 12 11 11 12 12 13 13 13 13 10 8 7 7 7 7 6 6 7 8 8 8 8 9 12 13 15 16 16 16 17 18 17 17 18 18 18
10 7 10 13 17 20 18 25 26 20 15 19 16 14 13 11 10 6 7 8 8 10 8 6 3 5 6 6 5 5 5 4 3 3 1 1 4 8 11 15 17 20 22 23 23 23 23 24 24 23 23 22 21 21
6 6 13 18 19 20 22 24 20 21 18 13 16 14 9 6 6 8 6 7 8 9 9 7 7 6 4 2 1 3 4 5 7 8 10 13 15 18 20 22 24 25 26 27 28 28 28 28 29 29 28 27 28 27
9 10 15 15 16 18 15 18 16 15 16 14 15 12 6 7 7 8 7 6 8 10 12 11 11 10 9 11 11 11 12 13 14 16 18 20 22 24 26 28 29 30 30 32 32 32 33 33 32 32 33 32 31 33
11 12 13 16 16 15 13 14 13 13 11 11 11 14 14 12 10 9 9 9 9 11 13 15 15 14 14 14 14 16 17 19 21 22 23 24 26 28 31 33 34 35 36 36 36 37 38 38 38 38 37 36 34 35
14 13 14 16 17 13 12 10 9 9 10 11 11 10 9 10 11 12 12 12 9 8 7 8 11 12 14 16 18 21 23 25 26 29 31 32 32 32 33 34 35 37 38 40 41 41 41 41 40 39 38 36 34 34
14 16 16 15 15 13 12 10 10 10 10 11 11 12 13 12 12 11 11 11 11 10 11 13 14 16 19 21 23 24 26 29 31 33 33 34 34 35 36 38 40 42 42 42 42 41 41 40 39 39 38 37 36 35
20 17 14 13 14 13 11 10 9 10 10 11 12 12 11 10 10 10 10 10 11 13 15 17 19 21 22 24 27 30 31 32 33 34 35 36 37 39 39 39 39 40 41 41 40 40 40 40 39 38 37 36 35 34
17 19 17 15 14 12 10 9 8 9 9 8 8 8 8 7 8 8 9 11 14 16 18 19 20 23 27 29 30 32 33 34 35 35 36 36 36 37 37 37 38 38 39 39 37 35 33 31 30 30 31 31 32 32

GFSWCAN_700_spd_093.txt.gz
Wind_Speed
22 23 25 19 18 22 25 33 48 41 43 45 43 54 49 48 46 46 34 29 24 19 18 12 10 10 11 13 14 13 10 5 4 1 1 1 1 1 1 2 1 3 4 6 7 7 5 4 4 5 6 9 8 8
26 26 26 27 21 20 27 34 45 39 43 40 39 57 50 46 47 42 38 32 25 21 13 14 12 11 11 13 15 12 10 7 4 3 1 1 3 2 2 2 7 5 7 5 5 4 9 13 11 10 11 13 11 9
30 30 27 26 22 21 31 28 47 39 49 41 42 59 51 52 53 43 38 29 25 20 18 15 14 11 11 15 15 10 10 7 6 6 4 3 4 5 4 7 8 10 13 13 14 9 12 12 7 11 12 11 12 10
34 32 30 23 22 21 29 31 46 39 40 38 48 58 63 60 53 43 37 28 24 18 17 14 12 11 14 17 12 11 8 7 6 6 6 7 7 7 7 9 12 11 14 16 21 19 21 24 21 15 15 15 16 15
38 37 34 24 22 18 36 30 27 35 37 47 50 55 63 49 46 36 31 28 25 21 7 15 14 15 15 13 12 10 6 7 8 8 8 8 8 10 7 8 6 10 12 16 19 20 20 21 22 21 19 18 15 14
42 39 37 27 25 26 27 40 34 36 39 45 48 44 50 43 35 34 33 30 26 21 20 16 15 13 17 14 12 9 5 6 7 8 8 9 8 6 5 5 10 16 18 21 24 25 26 24 27 26 23 17 15 9
47 42 39 32 36 34 29 26 40 40 47 40 46 49 44 39 38 38 32 30 24 19 18 14 17 17 16 13 12 8 7 8 9 8 8 7 6 7 8 7 15 19 21 23 26 31 30 25 23 28 22 15 14 10
48 45 40 36 39 39 34 34 42 42 46 48 55 48 45 39 37 37 28 25 21 26 24 12 11 12 11 12 11 10 9 8 8 8 5 7 6 6 4 12 17 18 21 22 21 16 13 12 15 21 21 14 15 11
46 47 40 38 40 43 38 32 45 44 43 49 51 52 43 39 38 34 27 25 21 23 18 17 15 9 9 16 13 11 10 7 6 6 6 5 5 3 7 14 18 21 22 18 10 4 2 5 11 15 18 9 12 14
50 46 39 41 38 35 38 36 52 50 43 40 52 48 42 40 34 30 24 22 22 24 26 24 20 16 12 10 11 7 6 5 3 5 4 7 6 3 10 15 19 20 16 10 8 6 4 4 4 10 11 9 11 14
50 42 47 46 36 34 38 45 53 53 46 48 51 44 41 42 32 25 16 16 13 13 20 31 30 22 17 12 10 6 4 4 3 4 4 4 7 2 11 14 17 18 15 8 4 5 4 2 1 9 10 12 16 20
46 46 50 45 41 33 43 51 55 53 49 44 44 31 35 31 16 14 14 13 11 15 12 18 24 23 18 13 8 6 5 4 3 4 4 3 7 5 10 14 16 17 15 11 7 4 2 3 4 5 8 11 15 15
42 50 48 45 43 35 46 44 46 46 47 48 40 32 27 16 15 13 16 14 14 13 16 19 25 22 15 13 7 6 6 4 4 4 5 5 4 4 8 13 16 17 15 12 8 8 8 6 6 7 9 13 14 14
52 50 46 44 38 44 47 46 47 53 51 43 30 23 14 11 14 14 18 15 12 12 15 24 23 16 13 13 6 4 6 5 4 5 3 6 2 2 8 12 14 16 16 15 10 9 10 10 8 8 9 12 12 14
47 46 46 41 45 47 46 45 50 52 53 33 20 11 15 13 14 19 21 17 14 13 22 24 19 12 14 6 7 6 6 6 6 5 3 5 4 5 10 13 14 15 16 16 13 9 8 10 11 11 12 14 16 15
42 47 45 42 45 46 47 53 56 53 42 19 12 12 21 20 18 19 21 19 16 19 22 19 14 7 9 6 8 8 6 7 3 4 7 7 9 12 15 15 15 16 15 13 11 8 6 4 4 7 8 6 5 5
49 47 44 41 42 44 53 55 53 47 23 11 17 16 20 19 16 17 20 19 19 21 23 12 10 9 6 6 6 7 4 5 5 5 6 9 12 14 15 16 16 14 13 11 8 6 5 6 6 6 6 4 2 5
66 50 46 45 47 52 57 54 43 18 15 18 20 19 20 17 18 18 17 20 22 22 20 14 7 10 5 4 5 5 6 6 7 8 8 10 13 13 13 14 14 12 12 10 9 8 8 7 7 7 6 6 7 7
54 50 45 43 45 56 54 41 34 14 21 23 22 19 13 15 21 18 15 19 20 20 18 15 8 8 11 12 11 10 11 11 12 11 12 15 15 14 15 17 16 16 16 14 12 11 11 12 12 12 13 13 12 14
49 45 42 46 55 54 25 21 27 16 26 23 19 15 14 15 15 19 19 19 20 20 18 17 16 10 10 12 12 12 13 14 17 20 21 20 19 18 19 20 18 17 17 18 19 19 17 17 17 15 14 14 13 13
56 60 54 58 61 42 20 21 18 18 21 21 19 17 18 19 17 17 20 21 21 20 17 14 12 13 16 18 19 19 18 19 21 22 21 20 20 20 22 22 19 18 18 18 18 19 17 17 18 20 21 20 20 19
61 63 63 64 56 22 16 23 18 17 16 19 21 19 18 19 19 18 18 19 18 15 12 12 16 19 19 19 18 17 18 19 19 21 22 23 23 23 23 21 18 16 16 16 16 17 17 17 17 17 16 17 17 17
61 65 64 47 23 11 16 22 24 21 12 15 16 17 17 17 18 17 15 17 16 12 14 16 15 15 15 16 18 20 21 21 21 21 22 22 21 20 18 17 15 14 14 13 11 9 10 9 10 10 11 12 13 14
57 48 38 30 14 8 18 18 20 20 15 15 18 16 16 17 16 17 17 15 10 11 12 13 14 15 17 18 18 18 18 17 16 16 16 17 17 16 14 12 12 12 10 10 11 11 12 12 13 13 13 14 14 14
33 22 16 14 15 16 15 21 20 20 17 20 19 17 13 15 14 14 13 10 10 10 12 13 13 14 13 13 12 11 11 10 9 9 9 8 6 7 7 9 9 10 12 15 16 17 19 19 19 19 19 18 18 17
15 7 11 16 19 18 16 20 20 21 18 20 21 16 14 14 10 6 9 9 10 10 10 9 8 7 7 6 4 3 2 2 2 1 1 2 3 4 7 10 14 18 20 21 23 23 24 25 25 25 25 25 25 24
8 6 13 16 18 17 17 19 17 21 18 17 20 19 13 7 8 10 9 9 10 8 7 6 6 8 8 7 5 3 2 4 6 7 9 11 13 14 17 19 22 24 25 27 28 29 29 29 29 30 30 30 31 31
8 8 14 16 17 18 19 22 22 22 18 13 16 13 7 9 8 8 7 7 7 6 8 10 11 11 10 9 8 10 11 11 12 14 15 17 20 21 23 25 27 29 30 31 32 34 36 36 35 35 35 35 33 35
14 15 16 15 16 19 18 21 15 16 16 19 15 16 14 13 10 7 7 7 6 7 8 11 13 13 13 13 14 15 15 16 17 20 21 22 24 26 28 31 34 35 37 37 37 37 37 38 38 39 39 38 37 36
15 17 18 18 17 15 15 14 15 12 13 12 13 12 12 12 12 11 11 10 8 7 8 9 10 11 12 13 14 16 18 21 22 24 26 28 30 31 32 33 34 35 37 38 38 38 40 40 40 40 39 38 37 35
19 21 16 17 18 13 12 13 12 12 11 12 11 11 10 10 9 9 9 10 10 10 10 9 10 11 13 16 18 20 22 24 27 29 31 32 33 33 33 34 35 37 38 38 39 40 40 40 40 40 40 40 39 38
19 18 17 17 17 16 14 13 13 13 12 12 12 11 11 11 11 11 10 9 9 9 9 11 13 15 17 20 22 24 27 29 30 31 32 32 32 33 34 35 37 38 38 39 40 40 41 42 40 39 38 37 37 37
21 18 16 15 16 17 16 15 13 12 13 13 12 11 11 11 11 9 9 8 7 8 10 13 16 18 22 24 26 27 29 29 29 30 30 32 33 34 34 34 35 36 37 35 32 28 26 25 24 24 24 23 23 22

GFSWCAN_700_spd_096.txt.gz
Wind_Speed
28 27 25 26 22 22 16 15 20 28 34 30 23 24 44 44 40 40 40 37 29 24 18 15 12 9 9 9 10 14 11 5 4 5 4 3 4 4 4 6 4 3 3 4 4 5 7 8 10 10 6 5 6 5
30 30 29 29 28 25 19 17 21 31 32 31 24 30 44 42 44 41 41 38 34 30 19 15 12 9 10 10 12 14 10 8 4 6 5 4 4 4 4 3 9 5 9 4 6 4 7 11 14 15 12 11 10 10
33 35 33 33 34 30 25 22 21 28 29 32 28 39 37 42 42 42 43 37 30 25 19 12 11 11 11 11 14 14 9 8 6 8 7 6 5 5 5 7 10 11 13 14 14 12 17 16 16 17 18 12 13 14
36 39 36 37 38 32 27 24 21 29 31 37 28 42 37 54 48 45 48 40 30 20 19 12 15 13 11 12 15 12 8 8 6 8 8 7 6 6 7 8 10 11 12 14 18 18 23 25 24 25 21 16 17 17
39 43 40 42 39 32 30 30 23 26 35 40 33 42 44 57 50 46 43 35 32 24 7 20 18 15 13 14 14 12 9 7 7 8 8 8 8 9 10 11 10 10 12 16 21 22 23 22 18 22 21 20 20 18
41 47 45 46 38 30 27 29 25 20 34 36 37 44 55 51 48 47 47 44 37 28 20 10 10 11 12 13 17 13 9 6 6 8 9 10 10 9 5 7 11 12 19 21 24 28 29 30 27 26 26 24 21 16
46 51 50 48 39 34 28 25 24 20 29 40 46 47 56 56 49 52 41 40 32 28 22 13 15 19 20 19 15 12 9 7 8 9 11 12 10 10 11 11 11 16 20 22 26 31 31 29 30 25 25 25 22 18
47 56 54 49 42 43 31 35 30 28 37 39 36 43 54 61 55 54 31 29 30 27 21 13 14 12 11 11 12 11 10 8 9 11 10 10 10 10 6 6 10 15 19 17 18 22 15 11 10 11 17 20 22 20
52 59 57 50 47 45 41 33 29 30 34 36 42 46 43 49 50 40 24 21 28 28 23 19 19 12 9 14 13 12 10 9 10 9 10 8 12 8 6 7 10 14 17 16 14 14 9 5 3 3 6 12 14 13
59 60 57 49 54 46 37 37 30 37 41 45 42 54 53 46 40 34 18 19 26 29 29 25 21 23 18 10 9 9 6 7 5 6 6 11 15 11 7 8 10 13 16 14 9 9 7 1 0 2 5 8 14 13
60 57 56 50 48 45 41 35 33 43 45 47 56 57 47 43 32 29 18 18 14 20 22 31 31 25 21 14 11 7 4 5 4 4 5 5 8 11 5 6 10 13 15 13 10 6 3 2 2 2 5 6 8 9
53 54 52 47 49 51 40 34 43 47 49 56 57 44 46 31 17 15 16 15 14 19 15 23 31 33 29 21 13 8 7 5 3 4 4 4 9 9 3 5 9 12 14 14 11 8 7 6 3 2 5 9 10 11
51 46 43 53 55 52 42 35 42 48 47 51 44 41 28 21 18 16 21 19 19 17 22 22 24 28 25 22 12 7 7 5 4 5 5 6 12 7 2 4 9 12 13 14 12 8 9 11 10 7 6 7 10 11
50 41 45 51 48 40 41 42 48 51 48 37 31 26 17 12 17 18 23 25 21 18 12 18 24 23 20 20 8 6 8 6 5 6 5 10 10 8 4 5 10 12 11 12 13 11 8 10 12 11 10 10 10 11
54 39 48 50 43 35 41 48 53 51 51 34 15 11 16 16 15 20 21 17 21 16 17 25 28 15 19 8 9 7 8 7 8 5 7 9 8 7 6 10 13 12 12 12 12 10 9 8 9 12 14 14 14 14
33 34 60 54 43 38 38 50 53 51 44 22 11 12 19 14 17 22 23 21 19 17 24 27 20 8 10 7 9 9 7 7 6 8 6 6 7 7 10 12 12 12 12 12 11 10 7 8 6 5 8 11 10 7
29 46 55 46 48 42 38 49 54 46 23 13 18 13 21 18 17 19 20 19 20 24 33 15 13 11 8 8 9 8 7 7 6 5 5 6 7 9 11 12 12 11 10 10 10 10 8 8 7 6 6 8 9 8
46 54 47 47 49 45 36 42 38 20 15 17 22 18 13 17 16 17 21 19 22 29 28 13 8 11 7 6 8 7 7 6 7 7 8 8 9 10 11 12 12 12 13 12 12 11 11 11 10 11 11 11 11 11
52 50 44 47 45 43 44 45 25 13 19 22 20 20 21 20 18 17 19 20 22 28 26 15 6 11 13 7 8 8 8 8 9 10 11 11 12 15 15 15 16 15 14 15 16 16 15 14 14 14 16 17 17 18
46 45 41 50 46 43 22 22 27 15 25 25 22 20 17 14 17 19 18 20 25 28 23 18 15 8 7 7 10 11 11 11 12 13 14 16 18 19 18 18 19 19 18 18 19 18 17 18 19 19 21 21 20 20
50 51 50 44 47 37 12 20 24 15 27 28 27 22 18 17 20 22 22 23 27 29 24 21 15 9 11 14 15 15 14 15 16 16 17 19 20 20 20 20 21 21 20 19 19 18 17 16 16 16 17 19 19 20
58 56 45 47 48 22 10 18 19 22 23 25 23 21 18 17 18 19 21 25 26 23 21 17 13 14 17 18 17 17 17 17 17 17 17 19 21 22 23 22 21 20 18 17 16 15 14 13 14 14 13 15 16 17
51 53 50 46 22 8 15 23 27 24 15 26 22 20 19 18 19 19 18 21 21 18 16 16 17 18 18 17 17 17 17 18 19 20 20 20 20 20 19 18 17 16 14 13 13 11 9 10 11 12 13 13 13 13
47 49 31 29 15 9 30 23 25 21 17 22 23 21 20 21 19 21 22 21 16 16 15 15 15 15 16 16 17 18 18 18 17 17 16 15 14 14 13 12 11 11 11 12 11 10 12 14 15 16 17 16 17 17
37 26 12 15 15 19 25 26 26 25 20 23 22 18 13 15 16 16 17 16 16 14 13 13 14 14 15 15 15 14 13 11 10 8 7 6 5 4 5 6 7 8 9 10 13 16 19 21 22 23 23 23 23 23
20 9 15 15 20 25 17 23 21 22 19 20 19 15 15 15 13 7 16 13 12 13 14 13 12 11 12 12 9 6 4 2 1 1 2 4 5 7 8 9 11 13 15 18 21 23 24 26 27 28 28 29 30 30
14 7 18 23 19 22 24 17 14 19 19 14 17 18 15 8 10 10 11 12 12 12 12 11 10 9 9 8 8 6 5 4 5 6 8 9 11 13 15 17 20 22 24 25 27 29 30 32 33 34 34 34 34 35
13 9 15 19 18 19 20 23 22 17 17 13 16 16 9 9 8 8 10 10 10 9 9 9 9 10 11 11 10 9 9 10 12 12 13 15 17 19 22 23 25 27 30 32 34 36 37 38 38 38 37 37 35 36
12 12 11 12 14 15 16 19 20 19 18 16 20 19 15 13 9 9 9 8 9 8 8 9 11 13 14 14 14 15 15 16 16 17 18 21 23 24 27 29 32 34 36 36 37 38 39 39 40 40 41 41 41 41
14 13 15 17 17 16 17 16 16 14 15 19 18 15 14 13 12 11 9 10 10 9 9 10 12 13 14 14 14 14 15 17 19 21 23 25 28 30 32 34 34 35 37 37 38 38 39 41 41 42 43 43 43 42
16 18 19 19 20 16 15 15 16 14 15 15 15 13 12 12 13 12 11 11 11 11 11 11 10 9 8 9 12 14 17 19 22 25 28 30 31 32 32 32 33 34 35 36 37 38 38 38 39 40 40 40 39 40
17 18 20 20 18 14 16 16 16 15 14 13 13 13 13 13 13 12 12 12 11 10 10 11 10 10 11 13 16 19 22 24 26 27 28 28 28 29 31 34 35 35 35 35 36 35 33 29 27 27 27 27 27 27
19 22 21 16 18 19 17 15 14 13 13 13 14 14 14 13 14 12 12 11 11 10 9 8 9 11 14 17 19 21 22 23 24 25 26 27 30 31 31 31 31 32 31 29 25 21 21 22 21 22 23 22 21 20

GFSWCAN_700_spd_099.txt.gz
Wind_Speed
52 46 34 30 24 27 25 17 10 10 13 15 18 20 20 44 42 38 41 33 25 21 20 16 13 11 8 5 6 9 11 5 6 6 5 4 5 6 5 6 3 3 3 5 4 5 7 6 8 7 5 6 6 3
56 48 34 29 27 29 31 21 13 12 13 19 23 24 31 32 42 43 41 39 26 22 22 16 12 11 9 6 6 9 11 9 4 5 6 5 6 5 7 4 10 5 8 4 6 5 10 11 13 14 13 15 16 12
56 45 33 28 31 33 35 25 17 12 16 22 27 29 38 43 46 45 43 42 28 23 17 20 17 13 11 8 6 10 13 9 9 8 9 8 7 7 6 9 10 9 12 13 12 10 15 15 18 21 20 18 22 22
50 37 30 29 34 36 38 29 21 14 15 32 30 22 35 37 43 48 43 39 32 24 20 20 15 14 13 10 8 11 11 10 9 8 9 11 9 8 9 10 10 11 11 12 17 17 20 23 23 23 25 26 23 20
45 39 34 35 40 41 42 32 26 17 19 26 26 19 38 38 45 46 42 37 33 25 16 24 14 15 14 12 10 11 12 10 9 7 9 9 10 10 12 14 14 12 12 14 21 23 25 25 26 25 25 25 23 26
40 37 43 41 45 45 44 37 31 21 20 28 27 23 34 40 42 42 41 42 38 33 13 6 15 15 16 14 12 13 14 11 9 8 9 12 11 10 7 8 10 10 12 18 22 26 27 28 28 28 30 25 28 21
42 40 42 41 44 46 44 40 34 23 28 30 27 24 36 36 45 45 43 47 44 35 23 17 9 12 13 15 16 16 14 10 10 9 12 12 10 12 16 17 14 12 16 19 24 25 23 20 18 16 17 19 22 22
38 40 40 44 46 45 43 38 34 29 28 33 33 28 38 43 47 46 28 36 35 32 24 16 13 8 8 7 9 11 11 10 12 12 10 10 12 13 9 11 8 12 16 19 22 20 22 17 14 12 7 7 12 16
41 40 41 45 48 45 40 39 33 38 40 38 33 32 42 48 51 42 28 35 43 32 28 17 15 13 13 13 11 11 11 11 13 13 12 10 13 10 9 8 9 12 15 17 18 16 17 13 10 6 5 3 7 14
43 41 44 50 52 53 50 51 43 46 39 37 35 37 46 51 50 42 28 22 32 35 32 24 18 20 19 17 11 6 7 8 6 8 8 13 19 14 11 10 10 11 12 14 14 12 11 10 7 7 1 2 4 9
39 43 49 59 61 57 54 54 49 40 43 41 44 46 37 45 45 44 19 21 20 21 27 38 27 20 20 14 10 6 4 5 5 5 6 5 6 14 14 11 9 9 11 13 13 10 8 7 6 5 4 4 4 7
39 49 60 61 59 51 53 52 46 45 49 47 45 35 35 39 18 10 17 17 13 22 14 26 32 31 28 22 15 8 8 6 4 5 6 5 8 11 12 9 8 8 10 12 13 11 8 8 6 6 6 9 11 11
48 57 57 55 57 50 54 42 41 42 45 44 39 45 36 20 17 18 24 21 24 18 28 27 23 31 29 27 15 7 6 6 4 6 6 7 10 12 11 9 8 9 10 10 12 13 11 9 10 11 11 11 11 13
53 54 56 47 46 52 45 41 43 48 47 42 33 31 19 14 16 16 26 33 30 31 13 24 23 22 25 19 10 7 9 6 6 7 6 9 11 12 10 9 9 11 11 10 11 12 12 11 10 11 13 13 12 13
46 47 40 46 58 45 36 40 45 48 50 32 19 14 14 19 15 30 26 32 33 20 21 20 25 17 23 9 11 8 7 7 9 5 8 10 11 10 10 10 11 11 12 12 12 12 12 12 11 10 12 14 16 16
39 42 41 58 58 48 37 40 48 49 38 25 10 16 21 26 18 24 23 26 30 27 20 24 19 11 13 7 10 10 6 7 5 9 8 9 9 10 10 10 11 11 11 11 11 11 11 11 11 11 11 10 10 12
29 38 52 63 61 53 39 38 48 42 24 15 13 17 22 20 15 22 23 23 28 26 30 17 14 12 9 10 10 9 9 6 7 8 7 7 9 9 9 10 11 11 11 11 11 11 11 11 11 11 11 10 9 10
24 38 46 54 56 54 46 36 40 17 14 20 17 15 22 17 18 23 24 24 26 27 30 16 13 15 7 8 10 12 11 8 8 7 6 7 8 9 10 11 13 13 13 13 13 14 13 13 14 15 15 15 15 16
25 46 53 39 42 55 41 45 20 12 15 20 22 17 18 18 18 18 21 23 26 31 30 18 8 13 13 6 6 7 6 6 6 7 8 8 10 12 13 16 16 16 17 15 15 16 16 16 17 19 20 20 18 19
32 39 55 48 41 48 19 25 16 16 23 24 25 18 13 14 15 18 21 23 28 34 28 18 14 7 8 12 12 10 6 6 7 8 10 12 13 15 18 18 17 17 17 17 18 18 18 17 18 18 18 19 20 21
51 43 47 53 45 40 9 20 19 14 25 27 26 22 20 17 15 16 19 25 28 35 32 26 21 14 10 10 10 9 8 9 11 13 14 15 16 17 19 19 20 20 19 19 19 17 15 15 15 15 16 16 17 19
54 49 45 51 44 20 8 16 21 20 25 28 23 19 19 16 15 17 17 21 26 26 27 25 20 14 13 13 13 12 13 15 15 15 16 16 17 19 20 22 22 20 18 18 16 14 13 12 11 10 11 11 12 13
50 51 50 41 23 9 13 22 22 21 17 29 27 23 20 18 18 15 17 21 20 17 20 23 20 17 16 15 15 16 17 18 17 17 18 18 19 19 19 18 17 15 15 15 13 13 13 12 12 13 14 16 17 18
42 48 33 26 12 12 25 23 26 24 20 27 23 18 17 18 17 19 21 16 12 16 20 19 19 18 16 16 18 19 18 18 17 17 17 16 15 14 13 13 13 12 11 11 12 13 13 13 15 18 20 21 22 22
33 23 19 12 20 20 27 23 27 28 21 25 23 20 15 16 16 17 18 15 16 18 19 19 18 17 18 18 18 17 16 15 14 12 10 8 6 4 5 5 5 6 7 8 10 13 16 20 23 25 27 29 29 29
19 10 18 17 26 26 22 29 30 26 20 22 19 17 16 14 13 7 14 14 15 17 16 17 17 18 17 16 14 13 11 9 7 5 4 5 5 7 8 10 11 12 13 16 19 22 25 28 30 31 31 33 34 35
15 8 20 19 22 29 25 25 20 23 24 16 18 17 15 8 8 10 12 13 17 16 16 16 16 15 13 12 11 10 9 7 7 6 7 8 10 12 14 16 17 20 22 25 27 29 32 34 36 38 39 40 40 40
11 7 16 22 20 23 25 24 21 20 17 12 12 12 8 9 10 10 13 14 15 15 15 14 12 11 10 10 10 10 10 9 9 10 12 14 15 17 19 21 24 26 29 31 34 37 39 41 42 42 42 42 40 40
12 14 12 18 22 24 24 27 29 29 28 22 18 18 17 16 12 12 12 13 13 12 11 10 10 10 11 11 11 12 13 14 15 16 16 17 19 22 24 28 31 33 35 37 38 39 40 40 41 42 42 42 42 42
15 14 18 18 16 15 16 16 17 16 17 17 16 15 16 15 13 12 12 11 11 11 11 11 11 11 12 13 13 14 14 14 13 15 18 21 25 28 31 32 34 35 35 36 36 37 38 39 39 40 40 41 41 41
18 19 18 17 18 15 13 13 13 14 15 18 19 15 14 15 15 14 13 13 12 12 11 11 11 11 11 10 9 9 11 14 17 20 24 27 28 29 29 30 31 33 34 35 35 35 35 34 34 32 30 29 29 30
17 20 19 19 17 16 15 16 18 17 17 18 19 18 17 16 16 15 15 15 14 13 11 11 11 11 10 9 10 12 16 19 22 23 24 25 26 27 29 31 31 32 32 32 30 28 26 23 23 22 22 23 23 22
18 17 16 16 17 19 19 18 18 18 18 18 17 16 16 16 17 17 15 15 13 12 11 11 10 9 9 11 14 17 18 19 19 21 23 25 26 28 27 27 28 28 26 23 21 19 17 17 19 20 21 21 21 21

GFSWCAN_700_spd_102.txt.gz
Wind_Speed
49 48 48 44 44 35 20 20 19 11 8 8 9 24 20 16 23 35 39 29 24 26 23 24 16 15 14 11 5 3 6 5 5 3 3 4 4 6 5 5 3 3 3 5 4 4 4 2 4 3 6 8 6 7
48 49 48 46 44 35 20 22 23 14 11 10 20 27 25 17 31 40 39 32 24 14 21 21 20 16 15 11 5 4 6 8 4 4 5 5 5 5 6 3 7 5 6 3 5 5 11 15 18 17 16 14 13 13
50 50 48 47 40 32 21 25 28 19 17 15 22 27 19 17 28 40 43 30 27 22 19 20 16 13 12 10 7 6 8 9 7 8 7 8 7 7 6 9 9 9 11 12 11 7 12 16 19 20 23 22 20 18
54 52 49 41 32 30 25 28 34 25 22 19 22 28 22 26 36 41 42 38 31 25 15 19 20 15 14 12 9 8 8 10 9 9 8 9 9 8 9 10 10 11 11 12 15 15 18 19 21 22 23 23 25 23
58 53 44 36 35 36 31 33 39 31 25 26 25 26 24 40 43 41 40 41 33 29 15 19 17 18 14 13 12 10 12 11 10 9 8 8 10 11 13 14 14 11 12 13 14 19 22 24 25 26 29 29 27 27
53 47 40 38 39 39 39 40 44 36 30 32 35 27 25 47 41 42 42 41 37 36 19 14 22 16 15 14 13 13 13 14 11 9 8 9 11 11 8 7 6 8 10 12 16 20 22 22 24 23 21 25 24 25
50 46 41 41 37 38 36 45 49 41 34 36 38 34 22 41 37 47 42 43 41 33 27 8 8 21 19 14 12 15 17 15 11 11 11 11 11 13 18 19 13 12 12 14 19 22 21 20 19 16 15 16 12 12
44 39 35 38 38 39 36 48 51 43 38 38 34 33 25 37 35 41 47 42 39 35 31 16 9 9 12 11 9 8 11 11 12 12 12 11 14 15 11 8 10 9 10 15 19 21 19 18 15 13 12 11 7 3
46 43 38 39 38 41 38 49 53 41 46 44 39 36 34 41 44 50 45 40 41 37 21 18 17 15 13 13 10 6 9 11 13 15 15 12 16 11 9 7 8 8 10 14 16 18 17 15 14 10 9 9 5 1
42 39 38 40 41 42 44 53 50 53 43 48 42 38 38 41 43 48 38 31 38 43 36 24 20 21 13 9 6 8 6 7 7 9 9 13 23 17 13 12 11 9 10 12 14 16 15 12 12 9 3 3 2 3
22 29 37 39 44 45 53 57 60 41 50 53 52 48 41 46 48 36 20 30 26 24 33 41 27 20 19 14 8 4 4 5 5 6 6 6 8 10 17 14 12 10 10 11 13 13 13 11 10 11 6 4 5 9
13 27 34 43 47 55 57 60 50 55 54 58 57 43 42 41 19 20 22 20 14 27 16 34 41 30 22 17 10 6 7 6 5 6 6 6 11 10 13 14 11 9 10 11 13 12 11 11 11 11 10 8 9 10
14 32 38 51 57 58 59 52 55 56 56 52 40 38 27 24 21 17 24 23 25 17 29 26 34 39 33 26 11 6 7 7 6 7 7 9 10 12 12 12 10 10 11 13 14 13 12 11 10 11 13 13 13 13
31 40 53 60 56 61 65 68 52 54 55 46 29 29 17 15 17 18 29 33 31 26 19 24 22 26 32 20 11 7 10 7 7 8 8 9 13 13 12 11 10 10 12 13 13 13 13 12 12 11 11 12 14 15
44 52 59 44 54 62 68 50 42 52 53 34 14 13 19 19 14 23 21 27 33 28 23 21 30 20 20 10 11 11 8 8 9 7 9 12 12 12 11 10 10 11 13 13 13 12 12 12 12 11 11 11 12 14
47 52 47 46 54 59 60 41 34 50 25 20 11 13 21 20 15 20 25 27 31 31 25 20 26 11 13 9 11 12 7 7 5 6 10 10 10 11 10 10 10 12 13 13 12 12 12 11 11 12 12 12 13 13
41 51 51 46 54 53 53 41 34 45 15 10 10 15 23 23 18 9 24 23 29 33 30 21 15 13 10 10 11 12 12 6 4 7 8 8 9 10 10 10 10 12 13 14 14 14 13 12 13 13 14 14 14 14
37 32 44 45 51 53 52 43 40 16 11 16 13 13 17 21 22 16 25 25 30 34 30 23 13 15 8 8 12 16 12 9 8 8 8 8 8 9 10 10 10 13 15 16 16 16 15 15 16 18 18 18 18 19
36 37 47 48 49 55 43 49 26 10 11 21 18 13 18 20 22 22 25 27 30 35 32 24 9 15 13 6 6 6 7 8 8 8 8 8 9 10 11 12 14 16 16 15 16 17 17 19 19 20 20 20 19 21
26 35 54 51 51 42 23 24 18 9 15 21 22 12 20 19 23 27 27 28 32 34 30 22 16 10 14 12 8 7 6 7 7 8 8 9 10 11 13 15 17 18 17 18 19 20 20 21 20 18 17 17 18 19
41 36 49 50 47 29 7 18 18 13 17 19 20 16 20 20 21 23 27 28 31 36 34 27 19 13 9 8 8 7 7 8 8 9 9 11 12 13 15 16 18 19 20 21 21 20 20 19 17 15 15 15 14 14
40 37 45 49 47 15 9 17 19 15 20 23 23 21 17 18 19 22 23 26 28 32 32 28 23 19 14 11 11 11 10 10 11 11 12 13 13 14 16 18 19 20 21 20 19 19 18 16 14 14 14 14 14 16
36 39 49 43 27 12 13 20 22 16 14 26 25 19 19 21 20 18 16 19 23 22 27 28 26 21 17 16 14 14 13 13 14 14 13 14 15 17 18 19 18 18 17 16 16 17 16 15 15 16 16 17 18 21
31 45 34 26 15 8 22 21 19 23 13 25 25 18 17 18 17 17 18 15 11 18 21 24 25 23 20 17 15 15 16 16 15 15 16 16 16 16 15 14 13 13 12 12 12 13 14 15 16 18 20 23 26 28
30 25 13 11 16 19 20 23 24 28 23 26 24 20 14 17 16 17 18 13 14 15 18 20 21 20 19 18 16 17 16 16 16 16 15 13 11 9 7 7 8 9 10 11 12 14 16 19 22 25 28 30 33 34
21 9 20 15 24 20 18 20 20 22 21 22 20 19 16 16 14 7 12 15 15 16 14 14 15 16 17 16 16 16 15 15 13 11 9 7 6 7 8 10 12 14 15 16 19 22 25 28 30 33 35 37 39 41
16 9 23 22 21 24 20 20 21 19 19 13 19 19 15 9 8 9 9 10 14 14 15 16 16 16 16 15 15 14 13 11 10 9 7 7 8 10 13 15 17 18 20 23 26 29 32 35 37 40 42 43 44 45
13 10 19 23 22 22 23 25 22 20 20 14 13 13 7 6 5 4 9 11 14 15 15 16 16 16 15 14 13 12 12 11 10 9 9 10 13 15 17 18 21 24 27 30 34 36 37 38 38 39 40 41 42 42
15 16 16 20 20 21 20 21 23 28 24 21 18 14 9 10 8 9 11 13 14 15 15 14 14 13 13 12 13 12 12 11 11 12 14 14 15 17 20 23 27 30 32 33 34 35 36 37 38 39 38 38 38 38
13 8 10 14 19 19 22 22 23 23 23 19 17 17 16 13 13 13 14 15 16 16 15 15 14 13 13 13 12 12 11 11 12 12 12 14 18 22 26 29 30 30 31 32 34 34 34 35 35 34 32 30 29 28
16 17 15 16 18 18 15 17 18 17 19 20 18 18 17 16 16 16 16 16 15 14 13 13 12 12 12 12 10 10 9 9 10 13 16 20 24 26 27 27 28 30 31 31 32 31 29 28 27 24 23 24 25 26
23 21 19 19 20 19 17 17 17 18 19 20 21 20 18 18 19 18 18 17 15 14 14 13 13 12 11 10 9 9 10 11 14 18 21 22 23 24 26 27 28 28 29 28 26 25 22 16 18 20 20 21 22 22
21 23 23 20 18 18 18 18 19 19 20 21 22 22 21 20 21 20 19 18 17 17 16 14 13 12 12 11 11 11 12 15 18 19 19 21 22 24 24 24 25 25 23 22 20 13 13 15 17 19 21 21 21 20

GFSWCAN_700_spd_105.txt.gz
Wind_Speed
38 37 38 40 40 41 35 23 13 15 11 11 7 14 15 12 18 23 27 29 19 17 17 19 23 22 20 15 11 6 4 4 4 3 2 3 4 5 4 5 3 3 2 2 2 4 3 2 1 3 8 11 12 11
37 37 40 40 38 40 37 22 14 22 15 15 10 24 22 18 21 25 27 32 19 14 12 18 21 15 17 13 11 6 4 4 2 3 3 4 6 5 6 3 7 4 5 3 4 4 9 11 12 12 13 13 15 15
38 38 41 39 38 38 40 18 15 28 23 21 17 29 30 21 18 18 29 29 20 19 14 22 21 14 13 14 11 8 6 5 5 4 6 6 8 8 6 9 9 8 10 9 8 4 11 14 17 19 19 20 21 21
39 41 42 38 38 38 36 18 13 30 30 28 26 30 31 23 23 22 37 28 24 20 9 19 18 16 17 13 12 11 9 7 8 7 7 8 9 8 10 10 11 10 9 9 11 12 13 15 19 22 23 24 25 24
42 44 42 40 39 34 34 28 19 33 37 34 32 36 32 25 27 34 35 34 30 23 17 16 20 19 16 14 15 13 12 10 10 10 9 9 10 11 13 16 17 12 11 10 9 11 14 18 21 21 22 25 26 25
46 45 44 43 38 34 36 40 28 38 42 40 37 40 35 30 28 42 40 40 34 36 12 16 23 19 21 18 15 16 14 14 13 14 12 11 10 10 8 7 5 4 6 7 8 13 17 20 20 22 18 20 22 19
47 48 47 43 38 36 39 44 32 45 48 44 41 43 40 34 39 42 45 46 36 35 34 14 10 17 22 17 15 16 17 16 17 16 15 13 12 13 18 21 14 12 10 8 9 13 15 19 19 19 14 11 9 7
49 49 47 43 34 36 41 38 31 48 52 46 46 44 44 29 41 45 42 37 42 37 36 21 15 10 17 22 19 16 14 14 15 14 14 13 14 14 10 7 8 10 8 7 10 12 14 17 16 15 12 8 8 7
49 49 45 38 35 38 37 35 36 49 54 46 49 43 41 39 43 48 43 38 41 39 31 31 26 18 10 16 16 12 9 11 12 14 16 13 17 11 8 7 7 8 7 8 10 12 13 14 14 14 12 9 6 5
47 43 41 40 39 37 38 37 40 50 53 50 45 44 45 50 42 42 43 38 37 40 38 34 28 29 17 12 15 7 8 8 7 9 10 15 22 16 16 13 10 9 8 9 10 11 11 12 13 12 10 8 3 1
38 37 38 43 39 40 45 46 48 54 50 61 41 40 41 47 41 41 34 29 29 28 37 40 33 25 27 18 13 7 5 6 6 7 7 7 11 9 12 15 13 11 10 9 10 11 11 11 12 11 10 9 8 8
29 29 34 32 39 44 49 53 54 60 65 59 49 38 42 43 21 22 19 21 17 32 20 39 47 38 28 20 17 8 9 7 6 7 6 6 10 11 10 13 12 11 10 10 11 12 11 11 11 10 11 11 9 10
14 10 9 24 38 46 54 54 61 60 70 49 39 40 32 24 21 21 27 25 33 22 41 40 30 41 38 27 15 7 7 8 7 8 7 10 10 9 12 12 12 10 9 9 11 12 12 12 12 12 11 11 11 12
12 9 18 29 39 49 54 60 57 54 56 39 28 30 17 16 18 22 41 39 44 43 19 24 31 33 34 25 12 7 10 8 7 9 11 7 8 12 14 13 11 9 9 10 11 12 13 13 13 12 12 11 11 11
14 20 29 37 43 53 57 59 51 54 39 27 27 22 24 23 13 20 20 36 41 34 28 21 28 26 28 14 11 12 9 9 10 8 7 9 11 13 13 12 10 8 9 10 12 12 12 12 12 12 12 12 12 12
21 26 34 42 50 56 50 51 54 52 34 31 21 19 26 18 20 23 24 20 32 35 30 29 26 13 14 11 13 14 8 9 8 7 5 9 12 13 12 11 9 8 9 11 12 12 12 13 13 13 14 13 14 14
36 45 46 40 47 52 51 47 41 38 25 27 18 12 24 23 16 22 25 24 30 35 39 30 18 14 12 13 16 17 18 8 8 7 9 10 10 10 10 10 9 9 9 12 13 14 14 14 15 16 16 17 17 18
43 41 50 51 60 54 56 60 37 17 13 29 20 14 26 27 22 20 27 31 35 38 40 29 17 20 10 12 19 25 11 18 11 9 10 9 8 8 9 10 10 10 11 13 13 13 14 15 16 18 19 19 20 20
47 37 43 49 56 49 52 42 9 10 14 21 22 17 23 24 25 21 25 30 33 36 40 26 11 20 19 9 7 10 13 13 11 11 10 9 8 8 9 10 11 12 14 15 15 15 16 17 19 20 20 20 19 19
27 39 46 57 64 50 33 16 9 14 14 20 19 16 18 22 26 26 29 32 35 41 38 26 21 10 17 15 11 10 10 11 10 10 9 9 8 8 9 11 13 14 16 17 17 18 19 20 20 20 19 18 17 17
46 40 41 47 49 30 21 14 24 12 19 22 22 16 19 22 28 30 31 31 37 43 37 32 24 18 11 15 14 11 10 10 10 9 9 8 8 10 11 12 14 16 17 18 19 20 20 20 19 19 18 17 17 16
28 30 36 44 40 18 19 13 29 12 18 19 22 19 22 24 25 27 28 33 36 41 39 24 21 17 14 13 12 10 10 9 9 9 8 9 10 12 13 14 16 17 18 19 19 18 18 18 18 18 18 18 19 19
32 31 37 42 28 16 10 22 24 22 14 23 22 19 19 20 19 20 21 29 32 33 36 32 23 21 20 16 13 12 10 10 10 10 10 12 12 13 14 15 16 16 16 16 16 16 16 16 17 17 19 20 22 23
35 43 36 27 13 19 18 21 22 23 13 25 22 15 18 17 15 18 21 17 17 24 27 30 29 28 23 18 15 14 13 13 13 13 13 13 13 13 14 13 13 11 11 12 12 13 14 16 18 19 21 23 26 28
30 18 13 17 22 24 20 17 19 24 13 23 20 16 14 14 17 19 18 13 12 15 22 27 29 28 25 21 19 17 16 14 14 14 13 12 12 11 10 8 7 9 10 12 14 16 18 20 23 26 29 31 33 36
16 8 11 20 36 20 25 23 19 22 24 20 14 14 14 15 13 7 14 15 15 19 20 20 20 21 23 23 23 20 17 16 14 13 11 10 8 7 7 7 9 11 14 16 19 21 24 27 30 33 35 37 39 41
18 9 24 23 27 27 20 20 13 13 18 17 23 18 15 9 8 11 12 12 21 22 21 20 22 23 22 21 20 18 15 14 12 10 8 8 7 8 9 11 13 16 18 20 24 27 31 34 35 35 36 37 39 40
17 11 28 23 25 26 24 19 15 14 12 11 13 14 8 9 9 9 16 15 17 17 18 19 20 20 19 18 16 14 13 12 11 10 9 8 8 10 13 15 16 18 22 27 30 31 32 33 34 35 35 35 34 34
20 15 23 25 23 23 23 23 22 22 13 10 13 7 10 13 9 7 10 13 15 18 20 19 19 18 16 15 13 13 13 12 11 9 9 10 12 13 13 16 20 25 27 28 29 31 32 31 31 31 29 27 24 23
25 22 15 21 24 21 20 21 21 19 19 20 17 13 15 12 7 10 13 14 16 18 19 18 16 14 13 12 12 13 12 11 10 10 11 10 11 14 18 22 24 25 27 28 29 29 28 28 27 24 19 20 21 23
18 16 15 14 15 18 13 15 15 17 20 17 15 17 12 11 13 15 15 16 16 16 16 15 14 14 13 13 13 12 11 11 11 9 9 11 14 19 21 23 24 25 26 25 25 25 24 20 14 16 18 21 22 23
19 15 15 15 16 18 18 17 16 18 19 20 19 17 15 17 18 17 17 17 18 17 17 16 15 14 13 13 13 12 11 10 9 10 12 15 18 19 21 22 24 23 23 22 22 21 15 13 15 19 22 23 23 23
19 21 16 13 13 16 17 15 15 14 14 14 15 16 17 19 19 19 19 19 19 18 17 16 15 14 14 13 13 12 11 10 10 12 14 16 18 20 21 22 21 20 20 20 19 14 13 15 19 22 21 20 19 18

GFSWCAN_700_spd_111.txt.gz
Wind_Speed
27 21 19 20 22 25 22 24 20 18 10 13 13 12 9 15 18 15 15 14 12 13 13 12 13 8 7 8 3 5 8 8 8 6 3 3 2 5 6 8 6 4 3 3 4 4 4 5 6 4 9 15 17 18
28 25 19 20 21 25 22 23 20 17 15 11 17 14 14 17 20 20 20 18 20 18 14 19 14 9 9 13 10 8 7 8 6 6 7 6 11 11 9 5 7 5 9 4 7 6 9 10 9 12 14 17 19 20
29 29 21 21 22 25 25 22 22 17 15 14 21 17 18 21 21 26 26 22 23 19 19 20 18 15 15 18 14 10 9 9 9 10 12 10 9 12 7 8 14 14 15 13 9 7 9 10 11 13 15 18 21 21
30 31 25 23 24 25 27 25 23 20 15 16 19 23 20 22 23 24 27 25 23 21 22 17 24 19 18 19 16 14 11 12 12 13 14 16 16 16 16 18 20 17 15 13 14 15 13 12 11 13 16 18 18 21
32 31 28 25 27 28 28 29 25 23 19 17 20 27 25 23 25 29 30 32 27 28 13 23 21 21 22 18 18 16 13 14 15 17 18 20 22 21 25 25 23 15 20 20 14 12 12 10 12 13 16 16 16 18
35 33 29 29 30 32 31 30 29 27 23 20 23 27 32 28 27 29 31 34 35 33 17 15 25 21 24 22 19 17 14 17 18 19 21 24 24 22 17 22 18 12 12 13 18 15 12 12 13 14 15 14 15 17
37 35 32 32 33 35 33 31 31 29 27 24 24 28 33 34 34 36 33 37 36 35 26 10 15 23 25 25 22 21 21 21 22 24 25 28 29 26 33 36 25 19 17 14 13 12 11 12 12 14 14 14 14 15
38 38 36 35 36 36 35 32 31 31 31 28 25 29 37 40 38 40 35 28 34 32 30 13 12 18 27 26 23 23 24 25 27 27 30 31 32 31 30 18 14 11 15 16 14 13 11 11 12 12 12 12 12 12
39 39 38 37 37 36 34 33 32 33 32 29 27 30 40 44 42 41 37 35 37 40 33 28 26 18 15 24 23 20 21 25 29 32 31 31 35 30 21 11 11 11 8 10 13 12 10 10 10 11 10 10 11 10
39 38 37 39 38 36 34 34 33 33 30 28 27 30 40 47 45 41 38 41 48 46 49 37 28 31 23 21 17 14 12 13 16 20 20 28 38 26 25 27 24 17 13 11 10 9 10 10 10 10 10 10 11 11
38 38 39 38 37 36 35 36 35 32 31 33 34 38 42 39 44 42 36 35 40 47 50 58 46 31 34 23 19 11 7 7 8 12 14 13 34 19 14 19 23 23 17 13 11 9 9 10 10 10 10 9 10 12
39 39 39 37 38 37 38 37 35 36 38 41 42 39 39 32 25 27 30 31 28 50 38 47 58 48 35 32 26 16 15 9 9 10 8 9 9 8 10 14 17 20 18 14 11 10 10 10 10 11 11 10 11 11
37 37 38 38 37 39 41 37 34 30 39 42 46 38 31 28 24 33 43 42 50 31 50 50 48 53 44 34 26 13 9 12 14 12 16 25 20 18 15 12 16 19 19 15 12 11 11 10 11 11 11 11 11 12
37 39 38 40 40 41 37 34 35 39 49 54 51 43 30 23 34 33 41 51 50 48 35 41 40 45 37 32 20 12 17 13 11 15 31 24 17 13 13 16 16 18 18 16 13 12 11 10 11 12 11 11 11 11
38 37 38 42 41 37 35 36 38 53 58 47 50 33 37 41 30 48 28 47 56 44 36 31 41 32 34 20 18 15 10 12 14 25 27 23 21 20 21 17 18 21 19 16 13 12 11 11 12 12 12 13 13 13
35 38 43 38 36 34 35 36 43 58 65 38 44 32 36 40 38 38 52 35 51 34 32 32 36 27 22 19 18 22 19 12 17 16 6 8 10 13 18 18 20 21 18 15 13 11 11 12 13 13 14 14 15 15
36 39 30 27 28 31 34 49 61 67 57 38 36 47 25 43 50 33 37 39 33 49 48 42 27 20 17 23 26 27 31 32 26 8 9 15 12 14 17 20 20 18 15 14 12 12 12 13 13 14 14 15 16 17
30 22 23 26 32 37 48 60 63 40 32 39 37 44 46 35 53 52 35 39 45 47 52 44 34 28 20 22 30 33 32 39 37 23 21 18 17 18 18 18 18 16 14 13 12 12 13 13 13 14 16 17 18 19
22 26 28 34 37 44 59 58 43 28 27 35 43 40 55 39 35 42 38 34 45 53 55 38 24 33 37 26 25 22 18 24 27 29 19 19 19 19 19 19 17 15 13 13 13 13 13 13 15 16 17 18 18 18
28 30 34 33 37 46 33 26 41 20 31 41 46 52 32 41 37 43 33 30 42 56 47 39 39 18 24 33 22 20 15 17 27 26 24 23 22 21 20 18 16 14 13 13 14 14 14 15 16 16 17 17 17 18
33 35 42 44 52 33 19 18 37 29 33 37 42 50 39 35 34 38 33 33 43 56 59 39 33 27 13 20 31 26 15 17 21 23 21 21 21 20 18 15 14 13 13 14 14 14 15 15 15 15 16 16 17 18
47 42 44 44 49 35 22 26 34 35 34 28 35 38 30 33 34 35 37 35 44 52 52 42 33 31 27 9 17 25 25 21 22 24 23 21 18 17 14 14 13 13 13 13 14 14 14 14 14 14 15 16 18 19
53 49 44 52 32 29 28 20 28 25 27 34 33 27 24 28 30 32 37 41 43 41 48 46 42 31 29 25 12 18 22 23 23 23 21 20 20 18 15 14 12 12 13 13 13 13 12 12 13 15 16 18 20 23
50 57 40 30 26 20 23 26 19 17 16 19 23 14 23 24 28 29 29 33 39 42 44 47 40 37 30 30 25 20 21 22 22 21 19 18 16 14 14 13 12 13 13 12 11 10 11 12 15 17 19 22 25 28
42 25 23 25 33 15 18 23 19 15 12 10 10 8 12 19 25 31 34 29 34 37 38 41 41 31 28 27 27 27 24 21 17 16 16 15 14 14 13 13 13 12 11 9 9 10 13 15 17 19 23 28 30 30
21 17 12 19 33 29 16 23 23 16 13 17 15 13 14 15 18 15 29 31 29 27 32 33 39 39 30 27 28 25 19 17 18 15 15 16 14 13 13 12 11 9 9 9 10 12 14 16 20 25 28 29 30 30
11 14 33 26 31 33 14 17 19 23 23 19 16 15 14 9 10 12 11 15 22 23 24 27 35 39 39 35 33 28 24 22 19 17 16 15 13 12 12 11 10 9 8 10 11 13 17 21 24 26 27 27 27 29
12 16 34 29 29 34 33 26 22 17 14 14 18 15 7 10 11 10 13 18 20 18 19 24 34 39 43 42 35 30 27 22 19 16 16 14 13 12 12 11 9 8 9 10 13 17 21 22 23 24 24 26 25 21
17 13 26 31 32 33 31 33 34 32 25 17 14 18 23 17 8 11 18 18 17 21 22 23 27 34 40 37 34 29 27 21 16 17 15 14 13 13 11 9 9 9 10 12 16 19 20 21 21 22 22 20 19 21
22 20 25 32 34 27 28 29 25 25 24 17 10 14 17 21 21 18 18 22 23 24 24 23 26 31 32 31 26 20 17 18 19 17 16 15 13 11 10 9 9 9 12 15 17 18 18 18 19 19 17 17 19 19
17 22 22 25 30 21 21 23 19 21 20 16 16 12 13 21 24 22 20 23 24 26 27 25 26 27 25 22 19 18 19 18 17 16 16 15 12 11 10 9 9 11 14 15 16 16 16 16 15 14 16 16 16 17
21 29 25 21 25 23 22 25 23 21 20 23 25 23 17 12 15 19 20 21 22 23 25 27 28 27 25 23 23 21 19 17 18 17 15 12 11 10 9 9 11 13 13 14 13 13 14 13 13 14 14 15 16 17
21 21 21 19 22 26 27 25 26 24 25 25 25 22 21 19 18 18 20 21 21 19 20 22 25 26 26 24 22 20 19 20 18 15 13 12 11 10 9 10 11 12 12 11 11 11 11 11 12 13 14 14 15 16

GFSWCAN_700_spd_114.txt.gz
Wind_Speed
29 24 19 19 20 23 21 20 11 10 10 11 14 14 12 14 20 22 17 11 11 11 11 14 14 12 8 7 4 2 5 8 7 8 5 4 2 6 6 10 9 5 3 3 4 5 6 3 6 5 8 14 15 17
30 26 23 20 21 22 23 22 17 11 13 10 13 17 17 15 17 20 21 20 17 17 12 16 17 16 12 13 12 7 6 7 4 5 6 5 11 8 9 5 8 5 7 4 7 6 8 10 12 10 12 16 18 18
33 28 26 23 23 24 25 23 22 15 15 13 12 16 19 18 17 20 21 24 22 19 15 18 19 18 17 15 17 12 10 9 9 8 10 9 8 11 9 12 14 12 15 15 13 8 8 11 12 11 12 15 18 19
35 32 29 27 24 27 27 27 25 21 17 17 13 15 21 21 19 23 23 25 23 22 25 19 21 24 21 19 19 19 16 15 14 13 14 16 16 16 17 23 26 23 23 18 19 15 15 15 13 11 11 14 17 17
38 36 32 31 28 28 29 30 29 25 21 18 17 16 20 27 22 22 22 23 28 26 17 25 25 22 26 22 21 22 20 19 18 18 18 20 21 21 24 26 23 10 12 14 19 16 14 9 11 12 13 13 14 13
39 39 37 34 31 30 32 32 32 28 25 22 20 17 19 25 29 24 24 25 27 29 31 27 18 25 25 27 24 23 21 22 22 21 22 25 24 22 19 31 28 19 16 17 15 14 13 14 12 12 13 13 14 12
41 40 40 37 34 33 33 34 34 32 28 24 21 20 21 25 29 29 25 26 27 27 30 25 30 25 26 27 28 27 25 24 24 26 29 30 29 29 37 38 25 23 18 20 17 14 14 12 11 12 12 13 13 12
40 40 42 39 37 36 36 35 36 34 30 26 24 23 23 26 29 33 27 25 22 26 30 23 20 20 17 28 29 29 28 27 29 30 34 35 35 34 39 27 21 18 16 14 15 16 11 13 12 11 12 12 12 12
44 44 43 42 40 40 38 36 37 34 31 30 25 24 27 29 31 30 31 31 27 25 35 38 38 25 25 22 28 28 28 29 30 32 35 36 42 45 36 21 24 15 12 12 13 14 14 13 12 11 11 10 11 11
45 43 43 44 42 43 40 39 38 33 30 27 28 27 27 28 23 27 32 33 39 42 43 48 40 37 28 16 20 27 24 21 19 23 24 33 47 39 30 27 26 23 21 15 14 13 13 12 12 11 11 10 11 11
45 42 44 45 44 43 44 42 37 36 31 32 31 29 27 20 18 29 25 26 30 42 47 58 50 44 37 35 24 16 13 9 10 16 20 19 45 28 21 21 21 23 25 21 18 17 13 12 11 11 11 11 11 12
46 44 44 45 44 44 45 41 41 40 35 30 28 26 24 22 15 15 21 24 28 40 41 37 49 51 43 32 30 17 18 11 11 13 11 17 32 13 6 8 16 18 21 24 20 18 16 13 11 11 11 11 11 13
46 46 46 45 45 46 45 43 42 31 28 26 25 25 18 18 21 20 30 28 36 29 34 46 40 37 45 46 29 16 11 15 17 17 24 36 31 23 22 16 13 17 21 24 22 20 16 13 11 11 11 12 12 14
49 47 46 46 48 46 44 45 37 31 28 29 35 27 21 17 19 43 35 36 37 30 38 25 43 34 39 29 25 15 19 17 13 21 35 32 27 23 19 15 18 15 19 22 22 20 16 13 13 12 12 13 13 14
49 46 46 47 45 44 45 41 30 29 33 40 28 23 41 41 39 17 20 34 33 32 28 25 29 37 31 26 17 18 13 15 19 37 37 29 31 28 23 23 19 19 21 22 22 19 16 14 13 13 13 14 14 15
47 45 47 46 45 45 40 25 27 39 48 40 35 38 39 36 43 38 30 24 25 26 36 33 32 25 25 22 21 29 31 32 30 24 20 16 11 16 20 23 23 21 22 24 22 19 16 14 14 13 14 15 15 15
47 50 47 44 44 35 25 30 44 57 52 56 54 53 49 37 36 40 37 36 32 36 42 44 33 24 25 29 42 42 49 38 33 17 20 15 20 18 14 18 21 21 24 23 21 18 16 14 13 14 14 15 16 16
47 46 44 43 36 27 33 45 54 53 52 59 59 50 41 44 46 37 39 38 38 44 45 49 44 45 47 49 54 51 41 43 47 43 39 32 22 16 19 18 20 22 22 22 19 17 15 14 14 15 15 16 16 17
44 41 37 31 31 39 46 53 59 46 49 48 49 53 48 43 39 46 42 39 45 44 53 54 37 38 48 46 43 40 40 23 26 41 39 36 31 25 24 23 22 23 21 19 18 16 14 13 15 15 15 16 16 16
36 28 27 31 34 46 51 37 54 53 36 38 42 44 46 47 39 46 50 41 39 50 50 54 62 50 31 37 35 27 28 31 30 28 32 33 35 27 25 24 23 22 21 19 17 15 14 14 15 16 15 15 15 15
28 32 33 37 41 47 36 31 26 47 36 26 30 29 35 41 44 49 51 47 46 48 54 51 60 52 35 14 24 36 39 35 28 27 23 25 29 28 28 26 24 22 20 17 15 14 14 14 15 15 14 14 14 15
37 34 41 41 45 42 25 20 24 26 31 30 24 31 35 41 45 46 42 36 40 50 58 59 53 49 46 35 17 20 28 27 24 28 25 25 25 28 27 24 21 19 18 16 15 14 14 14 14 13 13 13 15 16
40 40 42 46 28 27 19 23 26 29 28 29 28 26 29 34 42 46 49 57 54 46 50 53 55 46 50 29 28 12 17 27 29 23 25 24 22 23 22 21 21 18 16 15 15 14 14 13 12 12 13 14 16 19
41 42 44 32 22 21 22 22 25 29 32 28 28 27 30 30 34 39 48 52 49 45 44 47 54 52 49 34 30 17 13 19 25 26 26 27 27 26 24 21 19 17 16 15 14 14 12 11 11 12 14 15 19 23
40 29 25 17 20 25 23 24 24 19 28 29 32 36 25 29 29 37 42 44 45 44 34 36 39 36 41 50 39 27 20 17 21 20 21 21 22 20 18 17 17 16 15 14 13 11 10 11 12 13 15 19 23 25
18 11 19 19 30 27 23 27 27 31 25 27 21 22 27 27 28 18 37 37 30 24 24 22 20 33 43 41 32 24 24 22 21 23 23 21 18 18 18 17 16 15 14 12 11 10 11 11 12 15 19 21 23 25
17 8 30 29 30 36 32 16 21 24 24 20 20 17 17 16 11 13 15 16 18 20 26 29 26 22 27 34 28 30 26 26 26 25 20 20 20 18 18 17 15 13 12 11 10 10 10 12 15 18 20 21 22 24
15 9 27 23 33 42 42 33 23 22 27 25 22 18 10 9 10 9 11 12 10 16 19 25 24 23 32 30 28 27 29 33 30 27 29 24 17 18 17 14 14 13 11 10 9 9 11 15 17 18 18 19 21 20
24 20 16 29 26 34 35 32 30 28 23 18 15 14 18 17 9 9 10 8 8 12 15 21 25 34 38 34 32 34 33 37 37 33 27 20 16 16 15 15 15 12 9 8 9 11 13 15 16 16 17 18 18 19
25 29 14 32 35 33 37 35 34 31 24 19 16 13 12 13 16 17 10 8 13 12 12 14 23 36 42 43 43 45 45 39 32 24 20 15 15 16 16 14 11 9 8 8 10 12 13 14 15 15 16 16 17 17
19 32 18 27 34 29 18 28 24 25 27 25 20 17 15 14 14 15 17 18 13 15 18 19 20 30 38 39 38 35 33 27 23 22 21 20 18 16 14 11 10 9 8 9 10 11 13 12 13 13 13 15 16 17
16 25 20 18 24 30 21 15 18 20 20 21 20 16 14 12 9 13 18 18 17 17 17 17 19 25 29 30 29 24 24 22 19 17 15 15 17 14 12 10 9 8 8 9 10 11 11 10 11 12 13 14 15 16
27 21 21 22 20 19 23 22 21 20 19 20 20 18 18 19 18 15 13 18 17 17 17 20 23 26 26 26 29 30 26 22 22 20 19 18 15 13 11 9 8 8 8 9 10 9 9 9 10 11 13 13 14 14

GFSWCAN_700_spd_117.txt.gz
Wind_Speed
27 21 26 24 23 23 22 22 16 10 11 10 9 15 15 15 17 16 19 16 13 13 11 15 19 13 11 9 7 5 3 2 3 5 3 4 3 5 5 11 7 4 4 3 3 6 5 4 4 6 7 8 7 9
31 27 29 26 25 25 25 24 22 16 13 13 12 13 19 22 22 20 24 26 23 18 13 16 20 17 16 14 15 12 7 5 3 4 5 4 9 7 10 6 6 5 4 7 7 6 11 13 10 11 12 12 12 12
36 34 31 30 26 27 28 27 27 22 19 15 15 16 16 20 23 21 20 27 28 22 18 21 19 21 18 17 17 19 15 11 10 10 10 9 9 11 9 12 14 13 15 18 18 5 8 12 13 11 12 12 13 15
37 36 34 33 30 29 31 30 29 29 23 20 16 17 18 18 21 23 21 23 27 26 25 20 19 23 23 21 20 20 21 18 15 15 16 18 17 16 17 20 27 23 21 18 20 18 19 16 14 13 10 11 12 13
40 38 39 37 35 33 32 33 32 31 29 24 19 19 20 18 20 24 23 23 25 24 20 20 28 26 23 28 26 25 23 24 23 23 22 23 24 23 27 28 26 14 14 19 22 15 15 13 13 11 10 11 11 11
50 41 42 42 37 39 36 35 35 33 32 28 23 22 21 21 22 24 27 25 26 25 28 33 31 26 27 29 29 30 28 27 28 28 27 28 27 25 21 32 31 22 20 22 22 20 16 15 15 12 12 12 11 11
50 51 44 43 43 40 42 39 36 34 33 31 27 25 23 24 24 25 22 23 23 24 27 27 30 33 34 28 29 30 31 31 30 31 34 33 32 32 40 44 30 29 26 23 20 20 19 15 14 14 13 12 11 11
48 51 50 46 45 40 43 41 38 35 34 33 30 28 27 27 26 26 26 25 22 18 24 18 18 22 21 17 23 29 30 32 36 35 38 38 37 39 49 41 31 26 17 19 18 18 17 19 17 15 14 13 12 11
51 52 55 50 46 43 43 44 43 39 37 36 33 33 31 30 26 23 24 25 20 28 24 25 33 25 24 28 24 20 25 32 35 40 41 42 46 51 47 34 34 29 27 25 19 18 18 20 19 17 14 13 12 12
54 51 53 49 49 47 46 48 45 45 42 39 37 39 37 29 23 22 25 29 32 35 40 44 38 31 26 17 17 16 17 20 23 30 33 46 61 54 48 40 33 30 30 29 28 20 18 20 18 17 15 13 13 12
55 54 54 51 51 52 51 49 50 51 46 46 43 41 32 22 23 24 20 23 25 27 38 53 48 38 34 30 25 17 10 9 13 20 28 35 46 43 31 30 25 22 25 27 28 25 22 20 21 18 15 13 13 12
51 53 51 51 52 53 55 55 54 57 56 53 44 40 33 25 16 15 18 19 24 29 29 22 29 33 41 38 28 20 21 12 13 17 18 27 29 13 11 5 8 16 24 26 29 30 24 21 19 17 15 14 13 13
48 49 50 51 54 55 57 57 56 57 55 49 40 33 20 17 19 20 29 26 28 28 22 22 22 21 33 40 29 19 14 19 23 22 37 42 32 37 32 30 30 24 18 21 27 30 27 24 21 18 16 14 14 14
49 52 51 53 54 52 54 52 56 56 53 50 39 28 23 17 21 50 47 42 39 30 27 20 17 23 33 29 23 14 21 21 18 31 45 29 27 27 29 25 24 23 25 23 25 28 26 23 22 20 17 15 15 15
54 52 50 50 51 52 53 56 56 56 54 41 32 19 35 43 40 22 21 32 26 25 24 20 21 28 28 21 19 17 12 15 21 40 35 24 12 17 23 26 27 26 21 20 23 27 26 24 22 20 17 16 16 16
52 50 47 48 49 50 53 53 57 56 57 34 37 38 46 38 39 38 30 18 15 18 20 20 26 22 24 26 21 27 25 34 36 27 16 18 27 34 23 22 19 24 23 22 24 26 25 23 20 19 18 17 16 16
46 46 48 48 49 50 49 58 56 52 43 39 51 57 50 36 27 30 31 27 22 27 33 25 25 21 16 31 49 45 52 42 31 22 11 12 15 11 21 28 25 21 24 25 26 27 25 22 20 18 17 17 16 16
47 47 48 47 47 49 57 62 57 38 41 49 54 47 42 47 44 33 25 28 31 33 33 37 36 33 43 41 40 45 50 50 44 37 40 40 39 41 38 34 30 21 20 24 26 26 23 21 19 18 17 17 16 16
45 45 49 50 54 60 61 58 58 31 47 52 48 45 42 43 39 36 34 31 30 32 36 40 41 46 46 49 45 45 45 45 43 43 43 44 35 34 35 34 32 28 24 26 27 23 22 21 19 18 17 16 16 16
40 43 46 49 55 58 43 25 56 43 32 40 42 46 45 42 37 39 41 35 36 40 49 55 55 48 42 40 39 43 47 34 32 37 42 40 25 23 25 26 26 25 27 29 28 26 22 19 18 17 16 17 17 16
35 35 35 44 53 53 34 26 35 44 49 35 34 38 41 43 43 42 41 43 47 50 52 51 47 46 50 45 43 42 24 32 48 43 38 34 31 31 27 26 28 28 29 27 23 21 20 18 16 16 16 16 16 15
40 42 51 49 55 39 29 29 36 35 40 45 34 28 29 32 34 38 41 47 51 52 50 48 49 48 47 46 47 47 45 30 25 37 48 39 26 21 22 25 25 30 28 24 22 21 19 17 16 16 15 14 14 14
47 51 53 50 36 32 23 30 29 33 28 32 37 36 35 30 30 32 39 44 44 41 41 41 45 44 44 40 40 45 46 37 24 25 26 27 32 33 26 23 25 29 26 23 22 19 16 15 15 15 13 13 14 16
48 51 42 34 25 26 27 28 30 27 29 28 32 34 26 32 32 33 40 46 45 39 37 39 43 47 46 49 46 42 48 46 24 25 28 26 20 24 24 24 27 25 24 22 19 17 15 14 14 13 12 14 15 17
35 28 17 18 26 26 26 31 31 32 28 27 27 29 27 28 27 36 47 48 47 46 44 41 37 40 41 42 49 44 37 39 23 20 20 24 23 25 26 26 27 26 22 18 15 13 13 14 14 13 14 14 16 20
19 11 23 21 26 30 23 30 30 30 27 24 22 28 30 27 28 30 41 30 28 29 29 25 26 33 37 40 42 43 37 38 30 21 19 21 27 25 27 27 22 18 15 16 16 15 15 16 14 13 13 16 19 20
17 9 28 26 27 24 31 31 28 27 28 27 23 16 17 15 21 31 25 25 22 17 17 19 15 18 30 31 31 33 37 37 24 21 25 28 25 26 23 20 16 20 18 17 16 14 16 15 13 12 14 16 17 17
12 10 25 33 25 25 26 32 31 27 23 22 24 24 13 13 20 22 20 24 18 16 19 25 28 26 31 27 24 32 38 35 33 32 31 28 28 29 26 25 23 19 19 16 15 17 14 13 12 13 14 15 14 15
17 13 18 32 32 26 28 29 26 22 24 23 17 21 29 29 26 24 21 19 16 11 13 18 26 30 27 20 27 36 39 34 36 36 34 34 36 32 30 25 21 20 16 17 17 14 13 12 12 12 12 12 12 14
17 20 15 25 27 30 30 26 26 30 33 27 24 23 19 17 15 14 17 19 15 13 14 12 14 18 24 29 37 37 34 30 29 27 30 30 22 22 22 22 19 18 19 17 14 13 11 11 10 10 10 10 11 14
24 22 24 18 15 24 22 23 23 27 29 28 22 21 18 15 15 20 20 18 20 22 16 11 15 21 28 39 39 34 35 36 34 33 28 29 28 26 23 21 19 19 17 15 12 10 9 9 8 8 8 9 12 14
13 23 25 23 15 15 25 20 20 27 27 20 20 23 23 21 19 17 14 15 16 14 14 11 16 25 32 36 33 36 35 32 35 34 28 27 27 25 24 21 20 17 14 12 10 8 7 7 6 6 8 10 12 13
23 13 21 20 20 18 24 24 21 17 17 19 22 21 20 21 19 16 16 15 15 16 13 14 21 29 32 35 34 30 27 25 25 24 24 24 25 22 20 19 17 14 12 10 8 6 6 5 5 6 8 10 10 11

GFSWCAN_700_spd_120.txt.gz
Wind_Speed
36 34 34 31 25 22 22 25 25 21 18 20 17 16 18 18 18 19 19 17 16 15 15 15 17 21 17 13 10 7 6 4 5 4 3 4 3 5 5 10 7 4 3 3 3 5 5 4 5 7 6 8 7 8
37 36 36 34 33 28 26 26 29 26 23 20 21 19 19 20 24 23 23 22 23 22 17 16 18 22 23 19 17 15 12 8 5 5 5 4 9 9 9 7 5 5 3 8 7 7 14 18 15 14 13 12 12 11
44 36 37 38 36 35 31 30 30 32 28 23 21 23 22 21 22 26 28 27 25 25 25 27 24 23 27 24 21 22 20 18 16 14 14 12 11 12 11 11 14 11 15 19 20 4 11 16 15 14 15 14 14 13
49 44 39 41 39 39 36 33 32 33 33 28 26 24 24 25 23 24 26 28 27 24 26 26 20 23 26 28 28 26 24 23 23 21 20 21 21 18 20 20 27 26 26 23 21 16 17 16 17 15 17 16 14 14
50 47 44 44 42 40 38 38 37 34 36 34 29 27 26 27 26 26 24 26 28 25 16 19 29 31 27 25 27 29 29 28 26 28 30 30 29 28 31 34 35 23 18 17 23 22 22 18 17 17 16 15 15 14
55 50 47 45 45 42 43 40 41 40 37 36 32 30 28 28 29 28 28 26 28 28 27 31 31 30 24 25 32 31 30 33 34 34 34 37 35 32 25 38 38 27 20 23 28 27 27 24 20 18 17 16 16 14
64 57 52 47 47 46 45 41 42 45 44 38 33 32 30 30 29 29 26 23 23 27 27 23 29 33 35 32 33 29 27 32 33 38 42 39 38 38 45 53 41 33 31 28 24 25 25 20 19 20 20 18 17 16
71 64 58 53 50 51 47 44 41 47 46 40 34 34 32 34 34 32 28 27 26 22 23 17 18 22 20 21 27 35 35 33 36 38 45 43 42 45 55 51 42 35 25 16 18 19 19 21 23 23 20 19 18 16
74 72 66 58 54 52 49 48 44 47 47 43 39 38 39 41 38 30 27 27 26 28 18 23 31 23 23 24 22 21 20 24 30 39 40 39 48 54 47 42 41 38 41 39 36 32 33 26 22 24 23 20 18 17
68 71 69 65 57 54 51 50 46 49 49 43 44 46 49 47 35 32 29 28 31 36 39 44 35 29 18 13 14 18 19 21 23 31 28 41 57 55 44 36 36 29 29 29 33 34 30 25 24 22 21 21 21 19
62 61 65 70 62 56 52 53 48 50 52 54 55 55 47 35 35 32 23 23 24 26 38 53 50 39 32 25 21 13 13 10 11 22 25 34 56 52 40 36 32 27 25 28 30 29 31 30 28 25 24 23 21 21
53 55 57 66 57 55 53 54 52 57 62 61 62 59 46 31 20 20 22 21 23 27 27 26 25 30 37 35 27 16 20 11 13 18 18 35 42 23 12 9 5 13 23 23 20 28 29 29 29 26 24 23 22 21
53 55 56 59 56 52 53 55 57 58 61 64 63 48 32 25 20 22 33 27 28 25 25 20 13 19 25 33 20 13 11 15 18 17 26 43 30 28 30 33 34 21 23 27 21 18 23 30 33 28 25 24 22 20
51 51 55 58 58 56 53 56 59 60 58 71 60 43 29 17 23 54 46 48 41 33 29 18 16 23 26 26 17 12 15 14 12 20 37 28 29 32 29 28 30 26 24 23 21 21 22 25 30 27 26 26 22 20
55 55 49 55 57 53 53 54 60 59 64 45 42 32 48 52 40 16 23 35 32 25 22 20 23 22 23 15 14 15 10 14 15 21 14 10 6 7 9 8 12 14 15 23 25 20 21 25 29 27 27 25 21 19
57 54 58 57 53 53 51 55 56 57 66 34 36 45 55 49 49 51 39 20 18 23 23 23 28 19 22 16 19 25 18 17 18 15 12 10 11 14 19 23 17 14 19 20 23 22 21 24 27 26 26 24 21 19
51 53 54 48 52 48 49 57 70 75 54 33 48 60 66 64 54 44 34 29 26 29 35 34 21 19 15 20 35 34 44 33 19 22 17 16 11 17 17 23 24 31 35 31 30 26 24 25 29 28 24 21 19 19
48 47 48 46 44 46 55 64 61 45 40 55 65 64 60 59 41 36 27 28 31 32 37 41 30 32 33 35 33 28 34 38 39 36 35 34 33 30 35 37 38 35 34 31 30 26 28 28 27 24 23 20 19 19
39 44 43 43 50 54 70 63 67 28 46 56 58 55 54 46 45 33 29 29 30 28 33 38 34 42 48 45 39 36 35 34 38 38 39 36 33 36 35 31 33 32 31 31 29 24 26 26 24 24 22 20 18 18
34 38 45 47 50 63 49 37 68 41 34 48 51 41 43 48 41 36 35 34 32 33 42 51 56 50 41 35 38 39 35 34 35 34 30 34 35 33 34 36 37 37 26 26 27 24 28 31 27 22 20 18 17 17
33 33 39 44 68 45 32 30 42 47 33 25 36 39 45 43 37 38 35 31 38 48 50 50 49 47 41 37 35 37 36 37 40 38 35 36 34 42 44 41 32 34 32 28 23 28 31 27 24 21 19 17 17 16
39 41 42 63 58 38 28 29 37 37 43 29 23 25 33 35 36 35 34 39 46 49 47 39 31 27 34 37 36 39 38 38 40 40 40 40 34 29 30 37 38 32 27 26 20 28 27 25 22 20 18 16 15 14
40 44 66 57 33 21 20 28 33 37 31 34 34 28 29 30 31 28 37 44 47 41 29 27 25 25 28 26 30 32 35 38 39 40 37 34 34 33 33 33 31 29 28 18 26 29 27 24 21 18 16 13 13 13
47 64 44 36 23 17 27 29 34 32 33 28 29 31 27 34 33 35 45 47 35 25 29 26 31 36 35 34 33 31 30 31 35 37 36 31 32 33 26 26 30 27 20 25 31 29 25 22 19 15 13 10 12 15
33 29 20 18 23 26 24 33 34 34 28 33 32 28 28 32 30 35 41 31 23 24 25 28 34 36 38 37 37 35 33 39 39 36 27 26 32 33 27 25 28 25 29 31 29 25 23 19 14 11 12 13 16 15
22 14 20 23 36 29 31 34 34 35 28 27 24 29 26 23 24 21 27 17 17 17 21 26 29 26 28 29 35 34 31 33 36 35 33 33 32 29 27 26 28 30 34 31 25 21 17 15 15 15 13 16 15 14
14 13 33 24 31 33 27 31 25 28 30 27 31 28 23 17 16 26 13 7 12 16 21 20 20 23 22 22 24 25 25 28 30 28 25 30 31 25 27 24 26 28 26 25 24 21 19 20 15 13 16 14 14 15
16 12 32 28 26 33 28 29 27 28 27 23 25 31 20 16 21 17 13 13 17 20 23 18 16 20 21 15 18 15 18 20 27 24 34 33 25 28 31 30 29 27 27 26 25 23 20 16 15 16 14 13 14 13
16 18 20 28 26 26 32 32 31 30 29 27 25 21 23 24 26 26 23 20 16 17 19 16 16 19 25 29 30 20 18 25 32 31 31 33 34 36 36 33 30 30 29 27 23 21 19 17 16 14 13 12 12 11
19 13 19 28 32 24 30 25 23 22 21 26 25 26 17 13 14 13 11 10 15 19 20 21 20 19 22 21 19 21 23 26 25 28 34 37 35 33 33 33 31 29 27 22 22 16 16 15 14 12 11 10 9 10
19 22 16 13 27 27 21 25 22 24 25 23 24 26 20 21 15 12 10 17 22 21 19 19 19 22 16 14 19 22 24 27 28 32 33 30 29 31 31 28 29 26 23 22 17 18 16 14 12 10 9 8 8 8
19 16 19 21 20 20 23 23 20 22 23 24 26 25 21 16 15 17 19 20 18 17 14 13 14 14 11 18 18 18 22 29 31 30 30 30 27 27 20 15 19 27 22 19 17 15 13 11 10 9 8 8 7 6
22 19 26 25 22 20 15 15 16 17 15 18 19 18 18 21 21 19 16 15 14 16 14 12 12 8 14 20 22 26 27 30 31 30 28 26 21 23 23 25 27 20 19 17 15 13 11 10 9 8 7 5 4 5